[[{"header":{"parameterUnit":"m.s-1","parameterCategory":1,"la1":30.6,"la2":29.2853,"lo1":-89.7004,"lo2":-87.6739,"dy":0.0162,"dx":0.0183,"nx":112,"ny":82,"refTime":"2024-06-25T06:00:00:Z","depth":0,"parameterNumber":2,"parameterNumberName":"U-component_of_WINDS"},"data":[0.0,0.0,0.0,0.0,0.0,0.0,0.0,0.0,0.0,0.0,0.0,0.0,0.0,0.0,0.0,0.0,0.0,0.0,0.0,0.0,0.0,0.0,0.0,0.0,0.0,0.0,0.0,0.0,0.0,0.0,0.0,0.0,0.0,0.0,0.0,0.0,0.0,0.0,0.0,0.0,0.0,0.0,0.0,0.0,0.0,0.0,0.0,0.0,0.0,0.0,0.0,0.0,0.0,0.0,0.0,0.0,0.0,0.0,0.0,0.0,0.0,0.0,0.0,0.0,0.0,0.0,0.0,0.0,0.0,0.0,0.0,0.0,0.0,0.0,0.0,0.0,0.0,0.0,0.0,0.0,0.0,0.0,0.0,0.0,0.0,0.0,0.0,0.0,0.0,0.0,-1.4012,-1.65,-1.8191,-1.8873,-1.8324,-1.6894,-1.5209,-1.3312,0.0,0.0,0.0,0.0,0.0,0.0,0.0,0.0,0.0,0.0,0.0,0.0,0.0,0.0,0.0,0.0,0.0,0.0,0.0,0.0,0.0,0.0,0.0,0.0,0.0,0.0,0.0,0.0,0.0,0.0,0.0,0.0,0.0,0.0,0.0,0.0,0.0,0.0,0.0,0.0,0.0,0.0,0.0,0.0,0.0,0.0,0.0,0.0,0.0,0.0,0.0,0.0,0.0,0.0,0.0,0.0,0.0,0.0,0.0,0.0,0.0,0.0,0.0,0.0,0.0,0.0,0.0,0.0,0.0,0.0,0.0,0.0,0.0,0.0,0.0,0.0,0.0,0.0,0.0,0.0,0.0,0.0,0.0,0.0,0.0,0.0,0.0,0.0,0.0,0.0,0.0,0.0,0.0,0.0,0.0,0.0,0.0,0.0,0.0,0.0,0.0,0.0,0.0,0.0,-1.3905,-1.7551,-1.8983,-1.9268,-1.8232,-1.7194,-1.5695,-1.3653,0.0,0.0,0.0,0.0,0.0,0.0,0.0,0.0,0.0,0.0,0.0,0.0,0.0,0.0,0.0,0.0,0.0,0.0,0.0,0.0,0.0,0.0,0.0,0.0,0.0,0.0,0.0,0.0,0.0,0.0,0.0,0.0,0.0,0.0,0.0,0.0,0.0,0.0,0.0,0.0,0.0,0.0,0.0,0.0,0.0,0.0,0.0,0.0,0.0,0.0,0.0,0.0,0.0,0.0,0.0,0.0,0.0,0.0,0.0,0.0,0.0,0.0,0.0,0.0,0.0,0.0,0.0,0.0,0.0,0.0,0.0,0.0,0.0,0.0,0.0,0.0,0.0,0.0,0.0,0.0,0.0,0.0,0.0,0.0,0.0,0.0,0.0,0.0,0.0,0.0,0.0,0.0,0.0,0.0,0.0,0.0,0.0,0.0,0.0,0.0,0.0,0.0,0.0,-1.3948,-1.5535,-1.7953,-1.8895,-1.9253,-1.903,-1.7317,-1.5661,-1.4272,-1.1231,0.0,0.0,0.0,0.0,0.0,0.0,0.0,0.0,0.0,0.0,0.0,0.0,0.0,0.0,0.0,0.0,0.0,0.0,0.0,0.0,0.0,0.0,0.0,0.0,0.0,0.0,0.0,0.0,0.0,0.0,0.0,0.0,0.0,0.0,0.0,0.0,0.0,0.0,0.0,0.0,0.0,0.0,0.0,0.0,0.0,0.0,0.0,0.0,0.0,0.0,0.0,0.0,0.0,0.0,0.0,0.0,0.0,0.0,0.0,0.0,0.0,0.0,0.0,0.0,0.0,0.0,0.0,0.0,0.0,0.0,0.0,0.0,0.0,0.0,0.0,0.0,0.0,0.0,0.0,0.0,0.0,0.0,0.0,0.0,0.0,0.0,0.0,0.0,0.0,0.0,0.0,0.0,0.0,0.0,0.0,0.0,0.0,0.0,0.0,0.0,0.0,0.0,-1.5906,-1.7215,-1.8116,-1.8794,-1.9242,-1.938,-1.719,-1.5375,-1.445,-1.1107,0.0,0.0,0.0,0.0,0.0,0.0,0.0,0.0,0.0,0.0,0.0,0.0,0.0,0.0,0.0,0.0,0.0,0.0,0.0,0.0,0.0,0.0,0.0,0.0,0.0,0.0,0.0,0.0,0.0,0.0,0.0,0.0,0.0,0.0,0.0,0.0,0.0,0.0,0.0,0.0,0.0,0.0,0.0,0.0,0.0,0.0,0.0,0.0,0.0,0.0,0.0,0.0,0.0,0.0,0.0,0.0,0.0,0.0,0.0,0.0,0.0,0.0,0.0,0.0,0.0,0.0,0.0,0.0,0.0,0.0,0.0,0.0,0.0,0.0,0.0,0.0,0.0,0.0,0.0,0.0,0.0,0.0,0.0,0.0,0.0,0.0,0.0,0.0,0.0,0.0,0.0,0.0,0.0,0.0,0.0,0.0,0.0,0.0,0.0,0.0,0.0,0.0,-1.6099,-1.8116,-1.8191,-1.9146,-1.9329,-1.8316,-1.6504,-1.4883,-1.3572,-1.0216,0.0,0.0,0.0,0.0,0.0,0.0,0.0,0.0,0.0,0.0,0.0,0.0,0.0,0.0,0.0,0.0,0.0,0.0,0.0,0.0,0.0,0.0,0.0,0.0,0.0,0.0,0.0,0.0,0.0,0.0,0.0,0.0,0.0,0.0,0.0,0.0,0.0,0.0,0.0,0.0,0.0,0.0,0.0,0.0,0.0,0.0,0.0,0.0,0.0,0.0,0.0,0.0,0.0,0.0,0.0,0.0,0.0,0.0,0.0,0.0,0.0,0.0,0.0,0.0,0.0,0.0,0.0,0.0,0.0,0.0,0.0,0.0,0.0,0.0,0.0,0.0,0.0,0.0,0.0,0.0,0.0,0.0,0.0,0.0,0.0,0.0,0.0,0.0,0.0,0.0,0.0,0.0,0.0,0.0,0.0,0.0,0.0,0.0,0.0,0.0,0.0,0.0,-1.551,-1.7426,0.0,-1.9158,-1.9483,-1.8721,-1.717,-1.5381,-1.3395,0.0,0.0,0.0,0.0,0.0,0.0,0.0,0.0,0.0,0.0,0.0,0.0,0.0,0.0,0.0,0.0,0.0,0.0,0.0,0.0,0.0,0.0,0.0,0.0,0.0,0.0,0.0,0.0,0.0,0.0,0.0,0.0,0.0,0.0,0.0,0.0,0.0,0.0,0.0,0.0,0.0,0.0,0.0,0.0,0.0,0.0,0.0,0.0,0.0,0.0,0.0,0.0,0.0,0.0,0.0,0.0,0.0,0.0,0.0,0.0,0.0,0.0,0.0,0.0,0.0,0.0,0.0,0.0,0.0,0.0,0.0,0.0,0.0,0.0,0.0,0.0,0.0,0.0,0.0,0.0,0.0,0.0,0.0,0.0,0.0,0.0,0.0,0.0,0.0,0.0,0.0,0.0,0.0,0.0,0.0,0.0,0.0,0.0,0.0,0.0,0.0,0.0,-1.3232,-1.558,-1.739,0.0,-1.9271,-1.9522,-1.8807,-1.7231,-1.54,-1.3341,0.0,0.0,0.0,0.0,0.0,0.0,0.0,0.0,0.0,0.0,0.0,0.0,0.0,0.0,0.0,0.0,0.0,0.0,0.0,0.0,0.0,0.0,0.0,0.0,0.0,0.0,0.0,0.0,0.0,0.0,0.0,0.0,0.0,0.0,0.0,0.0,0.0,0.0,0.0,0.0,0.0,0.0,0.0,0.0,0.0,0.0,0.0,0.0,0.0,0.0,0.0,0.0,0.0,0.0,0.0,0.0,0.0,0.0,0.0,0.0,0.0,0.0,0.0,0.0,0.0,0.0,0.0,0.0,0.0,0.0,0.0,0.0,0.0,0.0,0.0,0.0,0.0,0.0,0.0,0.0,0.0,0.0,0.0,0.0,0.0,0.0,0.0,0.0,0.0,0.0,0.0,0.0,0.0,0.0,0.0,0.0,0.0,0.0,0.0,0.0,0.0,0.0,-1.3889,-1.6505,-1.8417,-1.8945,-1.9497,-1.9371,-1.8292,-1.6494,-1.4785,0.0,0.0,0.0,0.0,0.0,0.0,0.0,0.0,0.0,0.0,0.0,0.0,0.0,0.0,0.0,0.0,0.0,0.0,0.0,0.0,0.0,0.0,0.0,0.0,0.0,0.0,0.0,0.0,0.0,0.0,0.0,0.0,0.0,0.0,0.0,0.0,0.0,0.0,0.0,0.0,0.0,0.0,0.0,0.0,0.0,0.0,0.0,0.0,0.0,0.0,0.0,0.0,0.0,0.0,0.0,0.0,0.0,0.0,0.0,0.0,0.0,0.0,0.0,0.0,0.0,0.0,0.0,0.0,0.0,0.0,0.0,0.0,0.0,0.0,0.0,0.0,0.0,0.0,0.0,0.0,0.0,0.0,0.0,0.0,0.0,0.0,0.0,0.0,0.0,0.0,0.0,0.0,0.0,0.0,0.0,0.0,0.0,0.0,0.0,0.0,0.0,0.0,0.0,-1.3889,-1.6505,-1.8417,-1.8945,-1.9497,-1.9371,-1.8292,-1.7385,-1.5748,-1.3092,0.0,0.0,0.0,0.0,0.0,0.0,0.0,0.0,0.0,0.0,0.0,0.0,0.0,0.0,0.0,0.0,0.0,0.0,0.0,0.0,0.0,0.0,0.0,0.0,0.0,0.0,0.0,0.0,0.0,0.0,0.0,0.0,0.0,0.0,0.0,0.0,0.0,0.0,0.0,0.0,0.0,0.0,0.0,0.0,0.0,0.0,0.0,0.0,0.0,0.0,0.0,0.0,0.0,0.0,0.0,0.0,0.0,0.0,0.0,0.0,0.0,0.0,0.0,0.0,0.0,0.0,0.0,0.0,0.0,0.0,0.0,0.0,0.0,0.0,0.0,0.0,0.0,0.0,0.0,0.0,0.0,0.0,0.0,0.0,0.0,0.0,0.0,0.0,0.0,0.0,0.0,0.0,0.0,0.0,0.0,0.0,0.0,0.0,0.0,0.0,0.0,0.0,-1.4475,-1.6748,-1.8493,-1.9233,-1.961,-1.9371,-1.8292,-1.7774,-1.6294,-1.3495,0.0,0.0,0.0,0.0,0.0,0.0,0.0,0.0,0.0,0.0,0.0,0.0,0.0,0.0,0.0,0.0,0.0,0.0,0.0,0.0,0.0,0.0,0.0,0.0,0.0,0.0,0.0,0.0,0.0,0.0,0.0,0.0,0.0,0.0,0.0,0.0,0.0,0.0,0.0,0.0,0.0,0.0,0.0,0.0,0.0,0.0,0.0,0.0,0.0,0.0,0.0,0.0,0.0,0.0,0.0,0.0,0.0,0.0,0.0,0.0,0.0,0.0,0.0,0.0,0.0,0.0,0.0,0.0,0.0,0.0,0.0,0.0,0.0,0.0,0.0,0.0,0.0,0.0,0.0,0.0,0.0,0.0,0.0,0.0,0.0,0.0,0.0,0.0,0.0,0.0,0.0,0.0,0.0,0.0,0.0,0.0,0.0,0.0,0.0,0.0,0.0,0.0,-1.5341,-1.7162,-1.8618,-1.9685,-1.9798,-1.9371,-1.8292,-1.7798,-1.6587,-1.4318,0.0,0.0,0.0,0.0,0.0,0.0,0.0,0.0,0.0,0.0,0.0,0.0,0.0,0.0,0.0,0.0,0.0,0.0,0.0,0.0,0.0,0.0,0.0,0.0,0.0,0.0,0.0,0.0,0.0,0.0,0.0,0.0,0.0,0.0,0.0,0.0,0.0,0.0,0.0,0.0,0.0,0.0,0.0,0.0,0.0,0.0,0.0,0.0,0.0,0.0,0.0,0.0,0.0,0.0,0.0,0.0,0.0,0.0,0.0,0.0,-1.3876,0.0,0.0,0.0,0.0,0.0,0.0,0.0,0.0,0.0,0.0,0.0,0.0,0.0,0.0,0.0,0.0,0.0,0.0,0.0,0.0,0.0,0.0,0.0,0.0,0.0,0.0,0.0,0.0,0.0,0.0,0.0,0.0,0.0,0.0,0.0,0.0,0.0,0.0,0.0,0.0,0.0,-1.5341,-1.7162,-1.8618,-1.9685,-1.9798,-1.9371,-1.8292,-1.8109,-1.711,-1.4859,-1.3423,0.0,0.0,0.0,0.0,0.0,0.0,0.0,0.0,0.0,0.0,0.0,0.0,0.0,0.0,0.0,0.0,0.0,0.0,0.0,0.0,0.0,0.0,0.0,0.0,0.0,0.0,0.0,0.0,0.0,0.0,0.0,0.0,0.0,0.0,0.0,0.0,0.0,0.0,0.0,0.0,0.0,0.0,0.0,0.0,0.0,0.0,0.0,0.0,0.0,0.0,0.0,0.0,0.0,0.0,0.0,0.0,0.0,0.0,0.0,0.0,-1.5178,0.0,0.0,0.0,0.0,0.0,0.0,0.0,0.0,0.0,0.0,0.0,0.0,0.0,0.0,0.0,0.0,0.0,0.0,0.0,0.0,0.0,0.0,0.0,0.0,0.0,0.0,0.0,0.0,0.0,0.0,0.0,0.0,0.0,0.0,0.0,0.0,0.0,0.0,0.0,0.0,-1.6141,-1.7501,-1.8618,-1.9685,-1.9798,-1.9371,-1.8292,-1.8204,-1.7363,-1.5412,-1.4292,0.0,0.0,0.0,0.0,0.0,0.0,0.0,0.0,0.0,0.0,0.0,0.0,0.0,0.0,0.0,0.0,0.0,0.0,0.0,0.0,0.0,0.0,0.0,0.0,0.0,0.0,0.0,0.0,0.0,0.0,0.0,0.0,0.0,0.0,0.0,0.0,0.0,0.0,0.0,0.0,0.0,0.0,0.0,0.0,0.0,0.0,0.0,0.0,0.0,0.0,0.0,0.0,0.0,-1.8599,-1.9078,-1.9854,-2.0295,-2.0534,-2.0489,-1.8835,-1.776,-1.7169,-1.7125,0.0,0.0,0.0,0.0,0.0,0.0,0.0,0.0,0.0,0.0,0.0,0.0,0.0,0.0,0.0,0.0,0.0,0.0,0.0,0.0,0.0,0.0,0.0,0.0,-1.7814,-1.75,-1.4866,0.0,0.0,0.0,0.0,0.0,0.0,0.0,0.0,0.0,0.0,0.0,-1.7008,-1.7953,-1.8719,-1.9723,-1.9824,-1.9397,-1.8352,-1.8275,-1.7594,-1.6006,-1.5025,-1.4052,0.0,0.0,0.0,0.0,0.0,0.0,0.0,0.0,0.0,0.0,0.0,0.0,0.0,0.0,0.0,0.0,0.0,0.0,0.0,0.0,0.0,0.0,0.0,0.0,0.0,0.0,0.0,0.0,0.0,0.0,0.0,0.0,-1.2571,-1.3282,0.0,0.0,0.0,0.0,0.0,0.0,0.0,0.0,0.0,0.0,0.0,0.0,0.0,-1.892,-1.9475,-2.0718,-2.1403,-2.1509,-2.1706,-2.1877,-2.1996,-2.2075,-2.2101,-2.2088,-2.1826,0.0,-1.8953,-1.7936,0.0,0.0,0.0,0.0,0.0,0.0,0.0,0.0,0.0,0.0,0.0,0.0,0.0,0.0,0.0,0.0,0.0,0.0,0.0,0.0,0.0,0.0,-1.9812,-1.9348,-1.9623,-1.9743,0.0,-1.6764,-1.4688,-1.356,-1.2849,0.0,0.0,0.0,0.0,0.0,0.0,0.0,-1.7159,-1.8279,-1.9183,-1.9901,-1.9978,-1.9598,-1.8625,-1.8559,-1.8035,-1.6829,-1.6125,-1.5492,-1.487,-1.3288,0.0,0.0,0.0,0.0,0.0,0.0,0.0,0.0,0.0,0.0,0.0,0.0,0.0,0.0,0.0,0.0,0.0,0.0,0.0,0.0,0.0,0.0,0.0,0.0,0.0,0.0,0.0,0.0,0.0,-1.2157,-1.3874,-1.5107,-1.5427,-1.5257,0.0,0.0,0.0,0.0,0.0,0.0,0.0,0.0,0.0,-1.9433,-2.0653,-2.1329,-2.1399,-2.2614,-2.3392,-2.373,-2.3806,-2.4021,-2.4292,-2.4321,-2.4308,-2.4308,-2.4308,-2.3623,-2.2419,-2.0799,-1.9632,-1.8852,0.0,0.0,0.0,0.0,-1.9248,-1.9411,-2.0454,-2.0817,-2.0686,-1.9811,0.0,0.0,0.0,0.0,0.0,0.0,0.0,0.0,0.0,0.0,-2.1082,-2.116,-2.1329,-2.1407,-2.1173,-1.9874,-1.8224,0.0,-1.5691,-1.5063,-1.3828,0.0,0.0,0.0,0.0,-1.6045,-1.8053,-1.8707,-1.9233,-1.9838,-1.9952,-1.9598,-1.8576,-1.8569,-1.8106,-1.6974,-1.6695,-1.6316,-1.5789,-1.4774,-1.3507,0.0,0.0,0.0,0.0,0.0,0.0,0.0,0.0,0.0,0.0,0.0,0.0,0.0,0.0,0.0,0.0,0.0,0.0,0.0,0.0,0.0,0.0,0.0,0.0,0.0,0.0,0.0,0.0,-1.3633,-1.5411,-1.6869,-1.755,-1.7557,0.0,0.0,0.0,0.0,0.0,0.0,-2.0703,-2.1295,-2.1785,-2.2184,-2.3052,-2.3527,-2.3578,-2.4368,-2.509,-2.571,-2.5724,-2.5928,-2.6312,-2.6312,-2.6312,-2.6312,-2.6312,-2.6102,-2.5544,-2.3285,-2.1827,-2.1048,-2.1503,-2.115,-2.0526,-2.158,-2.1942,-2.2136,-2.3317,-2.3912,-2.389,-2.2738,-2.1959,-2.109,-1.9111,0.0,0.0,0.0,0.0,-2.0248,-2.0945,-2.1538,-2.206,-2.2505,-2.2714,-2.2794,-2.2637,-2.2243,-2.1303,0.0,-1.8418,-1.776,-1.647,0.0,0.0,0.0,0.0,-1.7248,-1.888,-1.922,-1.9485,-1.9927,-2.0067,-1.9685,-1.8633,-1.8626,-1.8183,-1.7059,-1.7023,-1.6871,-1.6464,-1.5925,-1.4904,-1.3292,0.0,0.0,0.0,0.0,0.0,0.0,0.0,0.0,0.0,0.0,0.0,0.0,0.0,0.0,0.0,0.0,0.0,0.0,0.0,0.0,0.0,0.0,0.0,0.0,0.0,0.0,0.0,0.0,0.0,-1.8706,-1.9911,0.0,0.0,0.0,0.0,-2.0404,-2.1096,-2.2138,-2.3614,-2.3728,-2.4101,-2.4895,-2.4901,-2.5507,-2.6764,-2.6707,-2.6994,-2.7651,-2.7651,-2.7679,-2.7707,-2.7707,-2.7707,-2.7707,-2.7707,-2.7693,-2.7423,-2.4396,-2.3041,-2.2761,-2.1743,-2.152,-2.1856,-2.2226,-2.236,-2.2506,-2.3315,-2.32,-2.2848,-2.3847,-2.3631,-2.2929,-2.2682,-2.2178,0.0,0.0,-2.1924,-2.2025,-2.2233,-2.2701,-2.3104,-2.3143,-2.3587,-2.3864,-2.3274,-2.313,-2.2752,0.0,-2.0441,-1.9634,-1.9411,0.0,-1.8549,-1.8472,-1.8874,-1.9235,-1.9374,-1.9811,-2.0232,-2.0436,-2.0461,-2.0044,-1.8956,-1.8888,-1.8405,-1.7256,-1.7199,-1.7186,-1.716,-1.6637,-1.5774,-1.4533,-1.2816,0.0,0.0,0.0,0.0,0.0,0.0,0.0,0.0,0.0,0.0,0.0,0.0,0.0,0.0,0.0,0.0,0.0,0.0,0.0,0.0,0.0,0.0,0.0,0.0,0.0,0.0,0.0,0.0,-2.1288,-2.1955,0.0,-2.1994,-2.2284,-2.2666,-2.317,-2.3827,-2.4813,-2.6204,-2.6312,-2.668,-2.7387,-2.7383,-2.7611,-2.8093,-2.8382,-2.8725,-2.9088,-2.9095,-2.913,-2.922,-2.922,-2.922,-2.922,-2.922,-2.922,-2.9105,-2.7604,-2.6692,-2.6231,-2.6295,-2.6218,-2.6073,-2.6541,-2.6481,-2.6158,-2.6466,-2.6382,-2.613,-2.6122,-2.5226,-2.4202,-2.4287,-2.3858,-2.3339,-2.3379,-2.3393,-2.3407,-2.3489,-2.3642,-2.377,-2.377,-2.3926,-2.4031,-2.3822,-2.377,-2.3652,-2.3263,-2.2162,-2.1199,-2.0784,-2.0462,-2.0142,-1.9757,-1.986,-1.9951,-1.9938,-2.0079,-2.0233,-2.0296,-2.0423,-2.0044,-1.8877,-1.8865,-1.8414,-1.7264,-1.7199,-1.7199,-1.7199,-1.7016,-1.6362,-1.5199,-1.4193,-1.2648,0.0,0.0,0.0,0.0,0.0,0.0,0.0,0.0,0.0,0.0,0.0,0.0,0.0,0.0,0.0,0.0,0.0,0.0,0.0,0.0,0.0,0.0,0.0,0.0,0.0,0.0,-2.1048,-2.2843,-2.3629,-2.4052,-2.42,-2.4645,-2.5145,-2.564,-2.6315,-2.7155,-2.8276,-2.8373,-2.8716,-2.9392,-2.9183,-2.9257,-2.9633,-2.9769,-3.0046,-3.0481,-3.041,-3.048,-3.0659,-3.0644,-3.0644,-3.0659,-3.0659,-3.0659,-3.0659,-3.0295,-2.9855,-2.9388,-2.8977,-2.8606,-2.8339,-2.876,-2.8621,-2.8311,-2.8339,-2.8325,-2.8211,-2.771,-2.6891,-2.6022,-2.5881,-2.5533,-2.5159,-2.5128,-2.4945,-2.4807,-2.4958,-2.4853,-2.4648,-2.4452,-2.44,-2.4347,-2.4122,-2.4083,-2.4083,-2.4083,-2.3243,-2.2421,-2.2018,-2.1717,-2.1418,-2.1056,-2.1017,-2.0914,-2.0682,-2.0643,-2.0579,-2.0385,-2.0486,-2.0171,-1.9162,-1.8982,-1.8506,-1.7565,-1.7316,-1.7199,-1.7199,-1.7029,-1.648,-1.5513,-1.452,-1.3377,-1.2073,0.0,0.0,0.0,0.0,0.0,0.0,0.0,0.0,0.0,0.0,0.0,0.0,0.0,0.0,0.0,0.0,0.0,0.0,0.0,0.0,0.0,0.0,0.0,-1.8469,-2.1252,-2.3354,-2.3335,-2.492,-2.5796,-2.5188,-2.6189,-2.7161,-2.7831,-2.8494,-2.9158,-2.9791,-2.9837,-3.0154,-3.0787,-3.0199,-3.0395,-3.1525,-3.0896,-3.0999,-3.1873,-3.1686,-3.1772,-3.2085,-3.193,-3.1959,-3.2085,-3.2085,-3.2085,-3.2085,-3.2211,-3.228,-3.1972,-2.9443,-2.8425,-2.8453,-2.8566,-2.8594,-2.8594,-2.8721,-2.8749,-2.8721,-2.8637,-2.8581,-2.8397,-2.7647,-2.7383,-2.7337,-2.7159,-2.6631,-2.6259,-2.6651,-2.6298,-2.568,-2.5162,-2.5018,-2.4874,-2.4295,-2.4122,-2.4122,-2.4122,-2.3626,-2.3221,-2.3221,-2.2807,-2.2453,-2.2439,-2.2427,0.0,-2.1616,-2.1525,-2.1302,-2.0791,-2.0712,-2.0451,-1.9852,-1.9251,-1.8675,-1.8127,-1.7539,-1.7199,-1.7199,-1.6702,-1.6147,-1.5563,-1.3831,-1.3251,-1.3852,0.0,0.0,0.0,0.0,0.0,0.0,0.0,0.0,0.0,0.0,0.0,0.0,0.0,0.0,0.0,0.0,0.0,0.0,0.0,0.0,0.0,0.0,-2.2173,-2.1932,-2.3503,-2.5078,-2.612,-2.6627,-2.7184,-2.7978,-2.8242,-2.8667,-2.9329,-2.9932,-3.0319,-3.0528,-3.0983,-3.1261,-3.1312,-3.127,-3.1642,-3.2434,-3.236,-3.2733,-3.3541,-3.3467,-3.357,-3.3805,-3.3776,-3.3776,-3.3805,-3.3805,-3.3805,-3.3834,-3.3848,-3.3541,-3.2959,-3.1721,-3.1276,-3.1276,-3.1304,-3.1052,-3.0612,-3.0163,-2.9899,-2.9855,-3.0323,-3.0061,-2.9649,-2.9908,-2.9581,-2.8907,-2.796,-2.7492,-2.7077,-2.6277,-2.5936,-2.5754,-2.5628,-2.5589,-2.5537,-2.5362,-2.5027,-2.4756,-2.4756,-2.4269,-2.3848,-2.3848,-2.3733,-2.3485,-2.3054,-2.2988,0.0,-2.223,-2.1786,-2.1446,-2.1289,-2.0923,-2.0451,-1.9852,-1.9251,-1.8675,-1.8127,-1.7615,-1.7363,-1.7363,-1.7205,-1.6957,-1.6583,-1.4972,-1.4387,0.0,0.0,0.0,0.0,0.0,0.0,0.0,0.0,0.0,0.0,0.0,0.0,0.0,0.0,0.0,0.0,0.0,0.0,0.0,0.0,0.0,0.0,-2.3382,-2.4764,-2.5349,-2.5843,-2.6543,-2.7688,-2.7962,-2.8471,-2.9593,-2.9857,-3.0083,-3.0464,-3.1037,-3.1389,-3.1389,-3.2014,-3.232,-3.2219,-3.2593,-3.297,-3.3305,-3.3379,-3.3679,-3.4193,-3.4149,-3.4253,-3.4505,-3.4401,-3.4431,-3.4505,-3.4505,-3.4505,-3.4505,-3.4505,-3.4258,0.0,0.0,0.0,0.0,0.0,-3.216,-3.1823,-3.1436,-3.1232,-3.1188,-3.1564,-3.1218,-3.0645,-3.0774,-3.0279,-2.9518,-2.8721,-2.8195,-2.7754,-2.7215,-2.6786,-2.6446,-2.6229,-2.6177,-2.6112,-2.5845,-2.5563,-2.5262,-2.5044,-2.473,0.0,-2.4122,-2.4083,-2.4082,-2.397,-2.3945,-2.3733,-2.3189,-2.3044,-2.2602,-2.1616,-2.1467,-2.1166,-2.0507,-1.9735,0.0,0.0,0.0,-1.7813,-1.7377,-1.7296,0.0,0.0,0.0,0.0,0.0,0.0,0.0,0.0,-1.5891,-1.5536,0.0,0.0,0.0,0.0,0.0,0.0,0.0,0.0,0.0,0.0,0.0,0.0,0.0,0.0,0.0,0.0,-2.5468,-2.7034,-2.8442,-2.8119,-2.7965,-2.855,-2.9051,-2.9654,-3.0448,-3.0926,-3.1255,-3.1316,-3.1943,-3.2298,-3.2298,0.0,0.0,0.0,0.0,-3.418,-3.4151,-3.4151,-3.4272,-3.4468,-3.4318,-3.4423,-3.4736,-3.4527,-3.4557,-3.4736,-3.4736,-3.4736,-3.4736,-3.4736,-3.469,-3.4551,-3.3798,-3.3152,-3.2628,-3.2628,-3.2628,-3.2613,-3.2536,0.0,0.0,-3.2413,-3.1992,-3.1393,-3.0792,-3.0133,-2.9549,-2.9453,-2.8881,-2.8379,-2.8739,-2.8254,-2.7525,-2.6961,-2.683,-2.6667,-2.6125,-2.5923,-2.5772,-2.5293,-2.5083,-2.4835,-2.437,-2.4181,-2.4316,-2.492,-2.5005,-2.4829,-2.4354,-2.4702,-2.4191,-2.2114,0.0,0.0,-2.1632,-2.0612,-1.9997,-1.9993,-1.9312,-1.8521,-1.7617,-1.7417,-1.7319,-1.7365,-1.7232,-1.7852,-1.9176,-1.912,-1.9306,-1.9633,-1.6651,-1.6188,0.0,0.0,0.0,0.0,0.0,0.0,0.0,0.0,0.0,0.0,0.0,0.0,0.0,0.0,0.0,-2.6364,-2.7427,-2.8464,-2.9817,-2.9894,-2.9863,-3.0002,-3.0099,-3.0448,-3.1136,-3.1186,-3.1466,-3.2112,-3.2704,-3.3001,-3.3001,-3.3643,-3.3951,-3.3847,-3.4073,-3.4468,-3.4973,-3.5125,-3.5492,-3.6061,0.0,0.0,-3.6107,-3.6061,-3.6076,-3.6107,-3.6107,-3.6107,-3.6107,-3.6107,-3.5784,-3.5244,-3.4551,-3.4212,-3.4104,-3.4104,-3.4104,-3.4012,-3.3413,-3.3213,-3.3121,-3.2567,-3.1992,-3.1495,-3.1335,-3.0763,0.0,-3.0058,-2.9844,-2.9532,-2.9079,-2.8857,-2.851,-2.7762,-2.7584,-2.7525,-2.7223,-2.6831,-2.651,-2.6392,-2.5633,-2.5103,-2.5418,-2.471,-2.4316,-2.492,-2.5005,-2.5119,-2.5438,-2.5206,-2.484,-2.4366,-2.3509,-2.2902,-2.279,-2.1792,-2.1173,-2.1157,-2.0229,-1.9609,-1.9405,-1.8865,-1.8668,-1.8957,-1.8508,-1.875,-1.9654,-1.9288,-1.9306,-1.9693,-1.9031,-1.9173,0.0,0.0,0.0,0.0,0.0,0.0,0.0,0.0,0.0,0.0,0.0,-2.3058,-2.4576,0.0,-2.6598,-2.8021,-2.8905,-2.974,-3.0766,-3.0905,-3.0905,-3.0905,-3.0905,-3.1166,-3.1828,-3.1835,-3.21,-3.2844,-3.3157,-3.3453,-3.3821,-3.448,-3.4818,-3.4758,-3.514,-3.5508,-3.5845,-3.5953,-3.6153,-3.6492,-3.6492,-3.6492,-3.6492,-3.6492,-3.6492,-3.6492,-3.6492,-3.6492,-3.6492,-3.6492,-3.6292,-3.5984,-3.5614,-3.5106,-3.4505,-3.4505,-3.4505,-3.4459,-3.4089,-3.3937,-3.3891,-3.3581,-3.3011,-3.2437,-3.2107,-3.15,-3.0747,-3.0052,-2.9952,-2.9966,-2.93,-2.9331,-2.93,-2.85,-2.8287,-2.8157,-2.7623,-2.7301,-2.7013,-2.6758,-2.6248,-2.5845,-2.5808,-2.5325,-2.5158,-2.5743,-2.5838,-2.5947,-2.6203,-2.6275,-2.5983,-2.5202,-2.4808,-2.4336,-2.3697,-2.2643,-2.1981,-2.1938,-2.1222,-2.0813,-2.0813,-2.0416,-2.0308,-2.0506,-2.0167,-2.0264,-2.0809,-2.0582,-2.0544,-2.0711,-2.0711,-2.0673,0.0,0.0,0.0,0.0,0.0,0.0,0.0,0.0,-2.2156,-2.4217,-2.482,-2.5614,-2.7626,-2.8183,-2.8649,-2.954,-3.0186,-3.0843,-3.149,-3.1582,-3.1582,-3.1582,-3.1582,-3.1797,-3.2336,-3.2505,-3.2813,-3.3367,-3.3644,-3.406,-3.4659,-3.5337,-3.5676,-3.5676,-3.6199,-3.6492,-3.6492,-3.6492,-3.6492,-3.6492,-3.6492,-3.6492,-3.6492,-3.6492,-3.6492,-3.6492,-3.6492,-3.6492,-3.6492,-3.6492,-3.6492,-3.6492,-3.6492,-3.583,-3.489,-3.489,-3.489,-3.4874,-3.4751,-3.4705,-3.4674,-3.4536,-3.406,-3.3411,-3.2856,-3.2136,-3.129,-3.0356,-3.0266,-3.0346,-2.9842,-3.0025,-3.0072,-2.9282,-2.9062,-2.8871,-2.8124,-2.7842,-2.7611,-2.715,-2.6965,-2.6773,-2.6391,-2.6258,-2.6301,-2.6664,-2.6721,-2.6774,-2.6893,-2.7357,-2.7189,-2.5882,-2.6052,-2.5745,-2.449,-2.3425,-2.2802,-2.2781,-2.229,-2.2023,-2.2023,-2.1779,-2.1679,-2.1739,-2.163,-2.1635,-2.1842,-2.1822,-2.1779,-2.1695,-2.1829,-2.1605,-1.7752,-1.7804,-1.8597,-2.1268,-2.1481,-2.2055,0.0,0.0,-2.6503,-2.808,-2.8471,-2.8854,-2.9952,-2.9835,-3.0093,-3.1614,-3.1535,-3.1505,-3.2182,-3.2275,-3.2275,-3.2275,-3.2275,-3.2305,-3.2382,-3.2936,-3.3321,-3.3398,-3.4552,-3.5291,-3.5398,-3.6014,-3.6384,-3.6384,-3.6445,-3.6492,-3.6492,-3.6492,-3.6492,-3.6492,-3.6492,-3.6492,-3.6492,-3.6492,-3.6492,-3.6492,-3.6492,-3.6492,-3.6492,-3.6492,-3.6492,-3.6492,-3.6492,-3.6399,-3.6261,-3.6261,-3.6261,-3.6184,-3.5584,-3.5398,-3.5306,-3.469,-3.406,-3.3501,-3.3426,-3.2506,-3.1576,-3.2034,-3.1767,-3.1349,-3.1277,-3.1291,-3.1102,-3.0256,-3.0029,-2.9952,-2.9628,-2.9062,-2.8583,-2.8322,-2.7922,-2.7721,-2.8138,-2.7812,-2.7326,-2.677,-2.6785,-2.7071,-2.76,-2.784,-2.79,-2.77,-2.7216,-2.6403,-2.5194,-2.4444,-2.4023,-2.4076,-2.3467,-2.3119,-2.3119,-2.2536,-2.2194,-2.221,-2.2148,-2.2071,-2.1974,-2.1862,-2.1779,-2.171,-2.2313,-2.2553,-2.1906,0.0,0.0,0.0,-2.4964,-2.5777,-2.7623,-2.7794,-2.7964,-2.9406,-2.9565,-2.989,-3.1385,-3.1416,-3.1512,0.0,-3.258,-3.2513,-3.2407,-3.2398,-3.2244,-3.1844,-3.2151,-3.2398,-3.2398,-3.3013,-3.3583,-3.4027,-3.4967,-3.566,-3.6045,-3.6338,-3.6492,-3.6492,-3.6492,-3.6492,-3.6492,-3.6492,-3.6492,-3.6492,-3.6492,-3.6492,-3.6492,-3.6492,-3.6492,-3.6492,-3.6492,-3.6492,-3.6492,-3.6492,-3.6492,-3.6492,-3.6492,-3.6492,-3.6492,-3.6492,-3.6492,-3.6445,-3.6168,-3.6076,-3.603,-3.5768,-3.5477,-3.5171,-3.479,-3.4273,-3.3638,-3.2736,-3.2551,-3.2437,-3.17,-3.1766,-3.1807,-3.0969,-3.0778,-3.0615,-3.0027,-2.9345,-2.8771,-2.8707,-2.8407,-2.8247,-2.8465,-2.8654,-2.8545,-2.8006,-2.7635,-2.7534,-2.788,-2.7955,-2.8029,-2.8103,-2.759,-2.6842,-2.5906,-2.5238,-2.4691,-2.4333,-2.404,-2.3887,-2.3887,-2.3609,-2.3456,-2.3456,-2.3431,-2.3386,-2.3285,-2.3147,-2.3024,-2.2921,-2.3128,-2.3206,-2.4438,0.0,0.0,-2.6363,-2.7568,-2.8493,-2.8646,-2.8868,-2.9329,-3.0365,-3.0381,-3.0712,-3.2247,-3.2495,-3.2564,-3.2894,-3.3335,-3.3339,-3.252,-3.252,-3.2389,-3.1747,-3.209,-3.2398,-3.2398,-3.3013,-3.3706,-3.4443,-3.5136,-3.5799,-3.6445,-3.6492,-3.6492,-3.6492,-3.6492,-3.6492,-3.6492,-3.6492,-3.6492,-3.6492,-3.6492,-3.6492,-3.6492,-3.6492,-3.6492,-3.6492,-3.6492,-3.6492,-3.6492,-3.6492,-3.6492,-3.6492,-3.6492,-3.6492,-3.6492,-3.6492,-3.6492,-3.6492,-3.6492,-3.6492,-3.6492,-3.6492,-3.6492,-3.6399,-3.5907,-3.566,-3.5216,-3.3758,-3.3372,-3.3205,-3.2245,-3.2214,-3.2244,-3.1664,-3.1534,-3.1362,-3.0733,-2.9997,-2.9425,-2.9376,-2.9219,-2.9112,-2.905,-2.9492,-2.9701,-2.9196,-2.8586,-2.8152,-2.8084,-2.8079,-2.8152,-2.8235,-2.7748,-2.718,-2.6634,-2.5788,-2.5081,-2.4604,-2.441,-2.4302,-2.4302,-2.4302,-2.4302,-2.4302,-2.4302,-2.4255,-2.4202,-2.4103,-2.3982,-2.3797,-2.3696,-2.3653,0.0,0.0,-2.554,-2.7782,-2.8853,-2.9557,-3.026,-3.0941,-3.1413,-3.1447,-3.1487,-3.1766,-3.2474,-3.2848,-3.3067,-3.3085,-3.3706,-3.3761,-3.2574,-3.2841,-3.2986,-3.2434,-3.2382,-3.2398,0.0,-3.3013,-3.3706,-3.4443,-3.5136,-3.5799,-3.6445,-3.6492,-3.6492,-3.6492,-3.6492,-3.6492,-3.6492,-3.6492,-3.6492,-3.6492,-3.6492,-3.6492,-3.6492,-3.6492,-3.6492,-3.6492,-3.6492,-3.6492,-3.6492,-3.6492,-3.6492,-3.6492,-3.6492,-3.6492,-3.6492,-3.6492,-3.6492,-3.6492,-3.6492,-3.6492,-3.6492,-3.6492,-3.6492,-3.6492,-3.6476,-3.603,-3.5476,-3.543,-3.4445,-3.3398,-3.3354,-3.2862,-3.2398,-3.2355,-3.2355,-3.2315,-3.2163,-3.1593,-3.1043,-3.0792,-3.0748,-3.0673,-3.0465,-3.0612,-3.0588,-3.0042,-2.9489,-2.892,-2.8278,-2.8299,-2.8387,-2.8387,-2.7796,-2.738,-2.7365,-2.6103,-2.5281,-2.5266,-2.465,-2.4302,-2.4302,-2.4302,-2.4302,-2.4302,-2.4302,-2.4255,-2.4202,-2.4202,-2.4061,-2.3797,-2.3797,-2.3717,0.0,0.0,-2.8283,-2.9489,-3.0329,-3.0911,-3.111,-3.1369,-3.1559,-3.1559,-3.1275,-3.1191,-3.1817,-3.2104,-3.2394,-3.289,-3.3665,-3.3928,-3.3171,-3.3604,-3.3439,-3.1936,-3.2521,0.0,0.0,0.0,0.0,-3.4443,-3.5136,-3.5799,-3.6445,-3.6492,-3.6492,-3.6492,-3.6492,-3.6492,-3.6492,-3.6492,-3.6492,-3.6492,-3.6492,-3.6492,-3.6492,-3.6492,-3.6492,-3.6492,-3.6492,-3.6492,-3.6492,-3.6492,-3.6492,-3.6492,-3.6492,-3.6492,-3.6492,-3.6492,-3.6492,-3.6492,-3.6492,-3.6492,-3.6492,-3.6492,-3.6492,-3.6492,-3.6492,-3.6322,-3.6061,-3.5645,-3.5153,-3.4568,-3.3644,-3.3229,-3.2952,-3.2505,-3.2398,-3.2398,-3.2342,-3.1736,-3.1174,-3.1087,-3.097,-3.0896,-3.0837,-3.1243,-3.1268,-3.0293,-2.9307,-2.8584,-2.8354,-2.8372,-2.8411,-2.8411,-2.8211,-2.7888,-2.7442,-2.6965,-2.6503,-2.6057,-2.5364,-2.4958,-2.4958,-2.4548,-2.4302,-2.4302,-2.4302,-2.4297,-2.4255,-2.4208,-2.4374,-2.4715,-2.4541,-2.4679,-2.811,-2.9263,-3.0161,-3.1105,-3.1706,-3.1979,-3.1682,-3.1651,-3.1585,-3.1328,-3.0729,-3.0385,-3.0779,-3.0918,-3.1338,-3.24,-3.3414,-3.408,-3.4071,-3.4204,-3.4058,-3.3314,-3.3403,-3.3364,0.0,0.0,0.0,-3.4474,-3.5136,-3.5799,-3.6445,-3.6492,-3.6492,-3.6492,-3.6492,-3.6492,-3.6492,-3.6492,-3.6492,-3.6492,-3.6492,-3.6492,-3.6492,-3.6492,-3.6492,-3.6492,-3.6492,-3.6492,-3.6492,-3.6492,-3.6492,-3.6492,-3.6492,-3.6492,-3.6492,-3.6492,-3.6492,-3.6492,-3.6492,-3.6492,-3.6492,-3.6492,-3.6492,-3.6492,-3.6492,-3.6492,-3.6399,-3.5968,-3.566,-3.5306,-3.4383,-3.3783,-3.329,-3.2859,-3.2567,-3.2398,-3.2398,-3.199,-3.1607,-3.1549,-3.1478,-3.1407,-3.1364,-3.1571,-3.1467,-3.0757,-2.9561,-2.8673,-2.8427,-2.8411,-2.8411,-2.8411,-2.8411,-2.8227,-2.7796,-2.7534,-2.7211,-2.678,-2.6087,-2.5703,-2.5703,-2.5287,-2.5056,-2.5056,-2.5056,-2.5056,-2.5056,-2.5007,-2.5157,-2.5482,-2.5303,-2.5417,-3.0239,-3.0924,-3.1196,-3.261,-3.2938,-3.2714,-3.1972,-3.1731,-3.1472,-3.0713,-2.9903,-2.9334,0.0,0.0,-2.9985,-3.1665,-3.3036,-3.424,-3.5218,-3.4782,-3.4905,0.0,0.0,0.0,0.0,0.0,0.0,-3.4551,0.0,-3.5799,-3.6445,-3.6492,-3.6492,-3.6492,-3.6492,-3.6492,-3.6492,-3.6492,-3.6492,-3.6492,-3.6523,-3.6523,-3.6523,-3.6523,-3.6523,-3.6523,-3.6492,-3.6492,-3.6492,-3.6523,-3.6523,-3.6523,-3.6523,-3.6523,-3.6523,-3.6492,-3.6492,-3.6492,-3.6492,-3.6492,-3.6492,-3.6492,-3.6492,-3.6492,-3.6492,-3.6492,-3.6492,-3.6492,-3.603,-3.5552,-3.5521,-3.4506,-3.349,-3.3413,-3.2906,-3.2428,-3.2398,-3.2398,-3.237,-3.2247,-3.2219,-3.2178,-3.2038,-3.1588,-3.1309,-3.1397,-3.032,-2.9258,-2.855,-2.8427,-2.8411,-2.8411,-2.8411,-2.8411,-2.8411,-2.7811,-2.7442,-2.7442,-2.6811,-2.6464,-2.6464,-2.6433,-2.6402,-2.6402,-2.6402,-2.6402,-2.638,-2.6402,-2.629,-2.6077,-2.6054,-2.5931,-3.063,-3.1976,-3.3337,-3.3697,-3.3335,-3.2714,-3.1972,-3.092,-2.9886,-2.9144,-2.792,-2.6956,-2.6956,0.0,0.0,-3.0773,-3.272,0.0,-3.5991,-3.6467,0.0,0.0,0.0,-3.5888,-3.5621,-3.5519,0.0,0.0,-3.5414,-3.5799,-3.6445,-3.6492,-3.6492,-3.6492,-3.6492,-3.6492,-3.6492,-3.6492,-3.6492,-3.6492,-3.66,-3.6662,-3.6662,-3.6662,-3.6662,-3.6631,-3.6538,-3.6492,-3.6523,-3.66,-3.6662,-3.6662,-3.6662,-3.6662,-3.6631,-3.6554,-3.6492,-3.6492,-3.6492,-3.6492,-3.6492,-3.6492,-3.6492,-3.6492,-3.6492,-3.6492,-3.6492,-3.6492,-3.6368,-3.6122,-3.5645,-3.5214,-3.4691,-3.3644,-3.3275,-3.3013,-3.2505,-3.2398,-3.2398,-3.2342,-3.2342,-3.2342,-3.2287,-3.2176,-3.1939,-3.1459,-3.1105,-3.0474,-2.9304,-2.8719,-2.8411,-2.8411,-2.8411,-2.8411,-2.8411,-2.8242,-2.815,-2.815,-2.7519,-2.7149,-2.7149,-2.668,-2.6402,-2.6402,-2.6402,-2.638,-2.6327,-2.638,-2.6619,-2.7026,-2.6839,-2.697,-3.265,-3.3731,-3.455,-3.4364,-3.3869,-3.2974,-3.1232,-3.0162,-2.9073,-2.7417,-2.6316,0.0,-2.4882,0.0,0.0,0.0,0.0,0.0,-3.6503,-3.6979,-3.742,0.0,-3.7566,0.0,-3.7053,-3.6595,-3.6196,0.0,-3.5983,-3.6091,-3.6476,-3.6492,-3.6492,-3.6492,-3.6492,-3.6492,-3.6492,-3.6554,-3.6585,-3.6585,-3.6754,-3.6831,-3.6831,-3.6723,-3.6693,-3.6693,0.0,-3.6585,-3.66,-3.677,-3.6831,-3.6831,-3.6831,-3.6785,-3.6693,-3.6616,-3.6554,-3.6492,-3.6492,-3.6492,-3.6492,-3.6492,-3.6492,-3.6492,-3.6492,-3.6492,-3.6492,-3.6492,-3.6492,-3.6399,-3.603,-3.5707,-3.5291,-3.4506,-3.3844,-3.3306,-3.2921,-3.2613,-3.2398,-3.2398,-3.2398,-3.2398,-3.2398,-3.2398,-3.2259,-3.189,-3.1609,-3.112,-3.0366,-2.9443,-2.8735,-2.8442,-2.8411,-2.8411,-2.8411,-2.8411,-2.8411,-2.8411,-2.8057,-2.7842,-2.7842,-2.7473,-2.7272,-2.7272,-2.7272,-2.7257,-2.7218,-2.7257,-2.7449,-2.7755,-2.7555,-2.7606,-3.5188,-3.5673,-3.535,-3.4935,-3.4469,-3.3318,-3.0386,-2.9412,-2.8363,-2.5688,0.0,-2.4234,-2.3137,-2.4011,-2.5671,-2.8022,0.0,-3.3089,-3.6805,-3.7019,-3.7759,-4.0398,-3.8809,-3.7889,-3.8912,-3.794,-3.715,-3.6861,-3.6739,-3.6631,-3.6523,-3.6523,-3.6554,-3.6554,-3.6554,-3.6554,-3.6554,-3.6662,-3.6723,-3.6723,-3.6923,-3.703,-3.703,-3.6831,-3.6754,-3.6769,-3.6723,-3.6723,-3.6754,-3.6953,-3.703,-3.703,-3.7015,-3.6908,-3.6723,-3.6693,-3.66,-3.6492,-3.6492,-3.6492,-3.6492,-3.6492,-3.6492,-3.6492,-3.6492,-3.6492,-3.6492,-3.6492,-3.6492,-3.6492,-3.6492,-3.6061,-3.5629,-3.5537,-3.4491,-3.3521,-3.3429,-3.2875,-3.2398,-3.2398,-3.2398,-3.2398,-3.2398,-3.2398,-3.2398,-3.2398,-3.1917,-3.1516,-3.1424,-3.0228,-2.9196,-2.8596,-2.8458,-2.8411,-2.8411,-2.8411,-2.8411,-2.8411,-2.8411,-2.8411,-2.8411,-2.8411,-2.8411,-2.8411,-2.8411,-2.8411,-2.8411,-2.8411,-2.8348,-2.821,-2.8079,-2.793,-3.6057,-3.6611,-3.6664,-3.6203,-3.5046,-3.336,-3.0909,-2.8375,0.0,0.0,0.0,-2.1885,-2.2141,-2.337,0.0,-2.8032,0.0,0.0,0.0,0.0,-3.8877,0.0,0.0,0.0,0.0,0.0,0.0,0.0,0.0,-3.7326,-3.6693,-3.6662,-3.6739,-3.6908,-3.6908,-3.6908,-3.6908,-3.6938,-3.6938,-3.6938,-3.7089,-3.7164,-3.7164,-3.7014,-3.7014,-3.7104,-3.6831,0.0,-3.6969,-3.7089,-3.7164,-3.7134,-3.7044,-3.6969,-3.6908,-3.6647,-3.6523,-3.6492,-3.6492,-3.6492,-3.6492,-3.6492,-3.6492,-3.6492,-3.6492,-3.6492,-3.6492,-3.6492,-3.6492,-3.6492,-3.6492,-3.6399,-3.6184,-3.5614,-3.4905,-3.415,-3.3537,-3.2875,-3.2398,-3.2398,-3.2398,-3.2398,-3.2398,-3.2398,-3.2398,-3.2398,-3.229,-3.2013,-3.1459,-3.0228,-2.9366,-2.9258,-2.8735,-2.8411,-2.8411,-2.8411,-2.8411,-2.8411,-2.8411,-2.8411,-2.8411,-2.8411,-2.8411,-2.8411,-2.8411,-2.8411,-2.8411,-2.8411,-2.8387,-2.8348,-2.8103,-2.798,-3.6476,-3.7127,-3.722,-3.6414,-3.5143,-3.3277,-3.013,0.0,0.0,0.0,0.0,-2.1032,-2.0612,-2.2271,0.0,0.0,0.0,0.0,0.0,0.0,0.0,0.0,0.0,0.0,0.0,0.0,0.0,0.0,0.0,-3.7851,-3.6923,-3.6862,-3.6908,-3.7015,-3.7015,-3.7015,-3.7015,-3.7075,-3.7089,-3.7105,-3.7285,-3.7359,-3.7359,-3.718,-3.715,-3.7178,-3.7043,-3.7013,-3.7119,-3.727,-3.7359,-3.7345,-3.7301,-3.7151,-3.6969,-3.6816,-3.6647,-3.6492,-3.6492,-3.6492,-3.6492,-3.6492,-3.6492,-3.6492,-3.6492,-3.6492,-3.6492,-3.6492,-3.6492,-3.6492,-3.6492,-3.6492,-3.6415,-3.6091,-3.5244,-3.4212,-3.3106,-3.2628,-3.2398,-3.2398,-3.2398,-3.2398,-3.2398,-3.2398,-3.2398,-3.2398,-3.2398,-3.2275,-3.1951,-3.1043,-3.0181,-2.9464,-2.8812,-2.8411,-2.8411,-2.8411,-2.8411,-2.8411,-2.8411,-2.8411,-2.8411,-2.8411,-2.8411,-2.8411,-2.8411,-2.8411,-2.8411,-2.8411,-2.8411,-2.8411,-2.8201,-2.8079,-3.6772,-3.7433,-3.738,-3.6379,-3.5023,-3.2984,-2.9424,-2.6934,0.0,0.0,0.0,-2.0572,-1.9661,-2.1332,-2.297,0.0,0.0,0.0,0.0,0.0,0.0,0.0,0.0,0.0,0.0,0.0,0.0,0.0,0.0,0.0,-3.7462,-3.7449,-3.7478,-3.7478,-3.7478,-3.7478,-3.7478,-3.7594,-3.7637,-3.7637,-3.7786,-3.786,-3.786,-3.7666,-3.7608,-3.7637,-3.7562,-3.7519,-3.7431,-3.7626,-3.7612,-3.748,-3.7421,-3.7241,-3.6984,-3.6908,-3.6724,-3.6492,-3.6492,-3.6492,-3.6492,-3.6492,-3.6492,-3.6492,-3.6492,-3.6492,-3.6492,-3.6492,-3.6492,-3.6492,-3.6492,-3.6492,-3.6415,-3.6122,-3.5167,-3.3935,-3.2659,-3.2398,-3.2398,-3.2398,-3.2398,-3.2398,-3.2398,-3.2398,-3.2398,-3.2398,-3.2398,-3.2398,-3.2398,-3.1797,-3.0997,-2.995,-2.9104,-2.8565,-2.8411,-2.8411,-2.8411,-2.8411,-2.8411,-2.8411,-2.8411,-2.8411,-2.8411,-2.8411,-2.8411,-2.8411,-2.8411,-2.8411,-2.8323,-2.821,-2.8073,-2.7949,-3.7091,-3.7595,-3.7211,-3.6694,-3.4763,-3.2342,-2.981,0.0,0.0,0.0,-2.0789,-1.9878,-2.0301,-2.1133,0.0,0.0,0.0,0.0,0.0,0.0,0.0,0.0,0.0,0.0,0.0,0.0,0.0,0.0,0.0,0.0,-3.8734,-3.8903,-3.9017,-3.9017,-3.9017,-3.9017,-3.9017,-3.9001,-3.9017,-3.9017,-3.9044,-3.9044,-3.9044,-3.8832,-3.8859,-3.9001,-3.8816,-3.8541,0.0,-3.821,-3.7927,-3.748,-3.7151,-3.7045,-3.6969,-3.6662,-3.6523,-3.6492,-3.6492,-3.6492,-3.6492,-3.6492,-3.6492,-3.6492,-3.6492,-3.6492,-3.6492,-3.6492,-3.6492,-3.6492,-3.6492,-3.6492,-3.6184,-3.4982,-3.406,-3.329,-3.2552,-3.2398,-3.2398,-3.2398,-3.2398,-3.2398,-3.2398,-3.2398,-3.2398,-3.2398,-3.2398,-3.2398,-3.2398,-3.1797,-3.1362,-3.1239,-3.0074,-2.9048,-2.8458,-2.8411,-2.8411,-2.8411,-2.8411,-2.8411,-2.8411,-2.8411,-2.8411,-2.8411,-2.8411,-2.8411,-2.8411,-2.8411,-2.8122,-2.7565,-2.7464,-2.7373,-3.5119,-3.6284,-3.6777,-3.6101,-3.4068,-3.173,-2.9795,0.0,-2.2969,-2.221,-2.0745,-1.968,-1.9922,-2.0499,-2.1325,0.0,0.0,0.0,0.0,0.0,0.0,0.0,0.0,0.0,0.0,0.0,0.0,0.0,0.0,0.0,-4.012,-3.9532,-3.9206,-3.9206,-3.9206,-3.9206,-3.9206,-3.9206,-3.9206,-3.9206,-3.9206,-3.9206,-3.9206,-3.9135,-3.9135,-3.9206,-3.9135,-3.8984,0.0,-3.8821,-3.8701,-3.8495,-3.8298,-3.7927,-3.746,-3.7237,-3.6876,-3.6492,-3.6492,-3.6492,-3.6492,-3.6492,-3.6492,-3.6492,-3.6492,-3.6492,-3.6492,-3.6492,-3.6492,-3.6492,-3.6492,-3.6492,-3.6153,-3.4828,-3.4289,-3.3752,-3.2628,-3.2398,-3.2398,-3.2398,-3.2398,-3.2398,-3.2398,-3.2398,-3.2398,-3.2398,-3.2398,-3.2398,-3.2398,-3.2151,-3.1844,-3.1455,-3.0197,-2.9279,-2.9002,-2.8642,-2.8411,-2.8411,-2.8411,-2.8411,-2.8411,-2.8411,-2.8411,-2.8411,-2.8411,-2.8411,-2.8411,-2.8411,-2.8275,-2.8048,-2.7984,-2.7695,-3.308,-3.4544,-3.5473,-3.4897,-3.292,-3.0719,0.0,0.0,-2.2731,-2.22,-2.0774,-1.9604,-1.9604,-2.0348,-2.1086,0.0,-2.2405,-2.4052,-2.6988,0.0,0.0,0.0,0.0,0.0,0.0,0.0,0.0,0.0,0.0,0.0,-4.0912,-4.0137,-3.9705,-3.9705,-3.9705,-3.9705,-3.9705,-3.9705,-3.9705,-3.9705,-3.9705,-3.9705,-3.9705,-3.9705,-3.9705,-3.9705,-3.9705,-3.9584,0.0,-3.9259,-3.9082,-3.892,-3.859,-3.8112,-3.7562,-3.7445,-3.7058,-3.6554,-3.6554,-3.6554,-3.6554,-3.6523,-3.6492,-3.6492,-3.6492,-3.6492,-3.6492,-3.6492,-3.6492,-3.6492,-3.6492,-3.6199,-3.566,-3.472,-3.4181,-3.3627,-3.2598,-3.2398,-3.2398,-3.2398,-3.2398,-3.2398,-3.2398,-3.2398,-3.2398,-3.2398,-3.2398,-3.2398,-3.2398,-3.2398,-3.2213,-3.1736,-3.0674,-2.9843,-2.9417,-2.8796,-2.8411,-2.8411,-2.8411,-2.8411,-2.8411,-2.8411,-2.8411,-2.8411,-2.8411,-2.8411,-2.8411,-2.8411,-2.8323,-2.8122,-2.8122,-2.777,-3.1469,-3.2478,-3.3039,-3.3039,-3.1213,-2.9216,0.0,-2.5061,-2.21,-2.21,-2.0772,-1.9608,-1.9608,-2.0912,-2.1914,-2.173,-2.3654,0.0,0.0,0.0,0.0,0.0,0.0,0.0,0.0,0.0,0.0,0.0,0.0,0.0,-4.0912,-4.0888,-4.0871,-4.0871,-4.0871,-4.0871,-4.0871,-4.0871,-4.0871,-4.0871,-4.0871,-4.0871,-4.0871,-4.0871,-4.0871,-4.0871,-4.0871,-4.0549,0.0,-3.9428,-3.8865,-3.8238,-3.749,-3.7119,-3.7015,-3.7015,-3.6862,-3.6693,-3.6693,-3.6693,-3.6693,-3.6554,-3.6492,-3.6492,-3.6492,-3.6492,-3.6492,-3.6492,-3.6492,-3.6492,-3.6492,-3.5537,-3.452,-3.4505,-3.3457,-3.2413,-3.2398,-3.2398,-3.2398,-3.2398,-3.2398,-3.2398,-3.2398,-3.2398,-3.2398,-3.2398,-3.2398,-3.2398,-3.2398,-3.2398,-3.2398,-3.2382,-3.1767,-3.0828,-2.952,-2.8796,-2.8411,-2.8411,-2.8411,-2.8411,-2.8411,-2.8411,-2.8411,-2.8411,-2.8411,-2.8411,-2.8411,-2.8411,-2.8097,-2.7515,-2.7515,-2.7424,-2.8268,-2.9162,-2.9636,-2.9058,-2.7913,-2.672,-2.5916,-2.3844,-2.1965,-2.1452,-2.042,-1.9608,-1.9608,-2.002,-2.1079,-2.3264,-2.4091,0.0,0.0,0.0,0.0,0.0,0.0,0.0,0.0,0.0,0.0,0.0,0.0,0.0,-4.0912,-4.0912,-4.0912,-4.0912,-4.0912,-4.0912,-4.0912,-4.0912,-4.0912,-4.0912,-4.0912,-4.0912,-4.0912,-4.0912,-4.0912,-4.0912,-4.0912,-4.0799,-4.0597,-4.0427,-3.9995,-3.9447,-3.9102,-3.8463,-3.774,-3.7639,-3.73,-3.6908,-3.6754,-3.6693,-3.6693,-3.6538,-3.6492,-3.6492,-3.6492,-3.6492,-3.6492,-3.6492,-3.6492,-3.6492,-3.6492,-3.583,-3.5075,-3.4613,-3.3752,-3.2952,-3.249,-3.2398,-3.2398,-3.2398,-3.2398,-3.2398,-3.2398,-3.2398,-3.2398,-3.2398,-3.2398,-3.2398,-3.2398,-3.2398,-3.2398,-3.2398,-3.1782,-3.1028,-3.0156,-2.9464,-2.8904,-2.8427,-2.8411,-2.8411,-2.8411,-2.8411,-2.8411,-2.8411,-2.8411,-2.8411,-2.8411,-2.8411,-2.8299,-2.8097,-2.759,-2.7565,0.0,-2.6297,-2.6767,-2.6226,-2.5497,-2.4748,-2.4257,-2.2862,-2.1541,-2.1088,-2.028,-1.9629,-1.9635,-2.0122,-2.1209,-2.3227,-2.3941,0.0,0.0,0.0,0.0,0.0,0.0,0.0,0.0,0.0,0.0,0.0,0.0,0.0,-4.0912,-4.0912,-4.0912,-4.0912,-4.0912,-4.0912,-4.0912,-4.0912,-4.0912,-4.0912,-4.0912,-4.0912,-4.0912,-4.0912,-4.0912,-4.0912,-4.0912,-4.0912,0.0,-4.0645,-4.0336,-3.9978,-3.9688,-3.9092,-3.8407,-3.8395,-3.7972,-3.7389,-3.7268,-3.7043,-3.68,-3.6647,-3.6554,-3.6492,-3.6492,-3.6492,-3.6492,-3.6492,-3.6492,-3.6492,-3.6492,-3.5799,-3.5028,-3.4597,-3.3737,-3.2906,-3.249,-3.2398,-3.2398,-3.2398,-3.2398,-3.2398,-3.2398,-3.2398,-3.2398,-3.2398,-3.2398,-3.2398,-3.2398,-3.2398,-3.2398,-3.2398,-3.2013,-3.1505,-3.0843,-3.0156,-2.9587,-2.9196,-2.9166,-2.9058,-2.8796,-2.8781,-2.8673,-2.8411,-2.8411,-2.8411,-2.8411,-2.8411,-2.8411,-2.8387,-2.7934,-2.8056,0.0,-2.381,-2.4337,-2.4273,-2.3737,-2.3206,-2.315,-2.2025,0.0,-2.094,-2.0276,-1.9738,-1.9849,-2.1033,-2.2088,-2.2327,-2.371,0.0,0.0,0.0,0.0,0.0,0.0,0.0,0.0,0.0,0.0,0.0,0.0,0.0,-4.0912,-4.0912,-4.0912,-4.0912,-4.0912,-4.0912,-4.0912,-4.0912,-4.0912,-4.0912,-4.0912,-4.0912,-4.0912,-4.0912,-4.0912,0.0,-4.0912,-4.0912,-4.0847,-4.0311,-4.0028,-3.9952,-3.9454,-3.9119,-3.8951,-3.9135,-3.8772,-3.8185,-3.8157,-3.7698,-3.7075,-3.6816,-3.6631,-3.6492,-3.6492,-3.6492,-3.6492,-3.6492,-3.6492,-3.6492,-3.6492,-3.5521,-3.4505,-3.4505,-3.3426,-3.2398,-3.2398,-3.2398,-3.2398,-3.2398,-3.2398,-3.2398,-3.2398,-3.2398,-3.2398,-3.2398,-3.2398,-3.2398,-3.2398,-3.2398,-3.2398,-3.2398,-3.2398,-3.2136,-3.1505,-3.0859,-3.0448,-3.0402,-3.0402,-3.0125,-2.9494,-2.9417,-2.9095,-2.8488,-2.8427,-2.8411,-2.8411,-2.8411,-2.8427,-2.8473,-2.8427,-2.8796,-1.9741,0.0,-2.1834,-2.1108,-2.1245,-2.1408,0.0,-2.0833,0.0,0.0,0.0,-2.01,-2.1372,-2.1327,-2.2133,-2.5316,-2.6628,0.0,0.0,0.0,0.0,0.0,0.0,0.0,0.0,0.0,0.0,0.0,0.0,-4.0912,-4.0912,-4.0912,-4.0912,-4.0912,-4.0912,-4.0912,-4.0912,-4.0912,-4.0912,-4.0912,-4.0912,-4.0912,-4.0912,-4.0912,-4.0912,-4.0912,-4.0912,-4.0912,-4.0888,-4.0752,-4.041,-3.9978,-3.9851,-3.9516,-3.9135,-3.9162,-3.9098,-3.892,-3.8778,-3.853,-3.8181,-3.746,-3.6892,-3.6492,-3.6492,-3.6492,-3.6492,-3.6492,-3.6492,-3.6492,-3.6492,-3.5521,-3.4505,-3.4505,-3.3426,-3.2398,-3.2398,-3.2398,-3.2398,-3.2398,-3.2398,-3.2398,-3.2398,-3.2398,-3.2398,-3.2398,-3.2398,-3.2398,-3.2398,-3.2398,-3.2398,-3.2398,-3.2398,-3.2336,-3.2167,-3.1536,-3.0951,-3.0432,-3.0402,-3.0325,-3.0171,-2.9664,-2.9335,-2.9181,-2.8673,-2.8411,-2.8411,-2.8411,-2.8673,-2.9166,-2.8642,-2.9018,-1.8177,-1.9523,-2.0644,-2.0474,-2.0777,-2.0954,-2.0465,0.0,0.0,0.0,0.0,0.0,-2.144,0.0,0.0,0.0,0.0,0.0,0.0,0.0,0.0,0.0,0.0,0.0,0.0,0.0,0.0,0.0,0.0,-4.0912,-4.0912,-4.0912,-4.0912,-4.0912,-4.0912,-4.0912,-4.0912,-4.0912,-4.0912,-4.0912,-4.0912,-4.0912,-4.0912,-4.0912,-4.0912,-4.0912,-4.0912,-4.0912,-4.0912,-4.0912,-4.071,-4.041,-4.041,-4.0237,-3.9986,-3.9986,-3.9791,-3.9542,-3.943,-3.9102,-3.8613,-3.8067,-3.765,-3.7342,-3.7342,-3.7342,-3.7222,-3.6662,-3.6492,-3.6492,-3.6492,-3.5521,-3.4505,-3.4505,-3.3426,-3.2398,-3.2398,-3.2398,-3.2398,-3.2398,-3.2398,-3.2398,-3.2398,-3.2398,-3.2398,-3.2398,-3.2398,-3.2398,-3.2398,-3.2398,-3.2398,-3.2398,-3.2398,-3.2398,-3.2398,-3.2059,-3.169,-3.1351,-3.1336,-3.1182,-3.0874,-3.0505,-3.0181,-2.9848,-2.9494,-2.9335,-2.9335,-2.9335,-2.9494,-2.9848,-2.9479,-2.9874,-1.7642,-1.8989,-2.0294,-2.1026,-2.128,-2.1358,0.0,0.0,0.0,0.0,0.0,0.0,0.0,0.0,0.0,0.0,0.0,0.0,0.0,0.0,0.0,0.0,0.0,0.0,0.0,0.0,0.0,0.0,0.0,-4.0912,-4.0912,-4.0912,-4.0912,-4.0912,-4.0912,-4.0912,-4.0912,-4.0912,-4.0912,-4.0912,-4.0912,-4.0912,-4.0912,-4.0912,-4.0912,-4.0912,0.0,0.0,-4.0912,-4.0912,-4.0912,-4.0912,-4.0912,-4.0912,-4.0912,-4.0912,-4.0573,-4.0128,-4.012,-3.9551,-3.8832,-3.8695,-3.8502,-3.8351,-3.8322,-3.8306,-3.808,-3.6952,-3.6554,-3.6446,-3.6369,-3.5322,-3.4335,-3.4335,-3.3321,-3.2398,-3.2398,-3.2398,-3.2398,-3.2398,-3.2398,-3.2398,-3.2398,-3.2398,-3.2398,-3.2398,-3.2398,-3.2398,-3.2398,-3.2398,-3.2398,-3.2398,-3.2398,-3.2398,-3.2398,-3.2398,-3.2398,-3.2398,-3.2398,-3.209,-3.1439,-3.1409,-3.1074,-3.0402,-3.0402,-3.0402,-3.0402,-3.0402,-3.0448,-3.054,-3.0448,-3.0801,-1.8266,-1.9514,-2.0348,-2.1024,-2.1711,-2.2198,0.0,0.0,0.0,0.0,0.0,0.0,0.0,0.0,0.0,0.0,0.0,0.0,0.0,0.0,0.0,0.0,0.0,0.0,0.0,0.0,0.0,0.0,0.0,-4.0912,-4.0912,-4.0912,-4.0912,-4.0912,-4.0912,-4.0912,-4.0912,-4.0912,-4.0912,-4.0912,-4.0912,-4.0912,-4.0912,-4.0912,-4.0912,-4.0912,0.0,-4.0912,-4.0912,-4.0912,-4.0912,-4.0912,-4.0912,-4.0912,-4.0912,-4.0912,-4.0847,-4.0752,-4.0631,-4.0162,-3.9603,-3.9342,-3.8914,-3.8446,-3.8334,-3.8362,-3.8294,-3.749,-3.6843,-3.6315,-3.5781,-3.4614,-3.3567,-3.3567,-3.2967,-3.2398,-3.2398,-3.2398,-3.2398,-3.2398,-3.2398,-3.2398,-3.2398,-3.2398,-3.2398,-3.2398,-3.2398,-3.2398,-3.2398,-3.2398,-3.2398,-3.2398,-3.2398,-3.2398,-3.2398,-3.2398,-3.2398,-3.2398,-3.2398,-3.209,-3.1439,-3.1409,-3.1074,-3.0402,-3.0402,-3.0402,-3.0402,-3.0402,-3.0705,-3.1228,-3.0648,-3.1074,-1.7887,-1.9358,-2.0573,-2.1677,-2.2853,-2.372,0.0,0.0,0.0,0.0,0.0,0.0,0.0,0.0,0.0,0.0,0.0,0.0,0.0,0.0,0.0,0.0,0.0,0.0,0.0,0.0,0.0,0.0,0.0,0.0,-3.9669,-4.0049,-4.0233,-4.0233,-4.0687,-4.0912,-4.0912,-4.0912,-4.0912,-4.0912,-4.0912,-4.0912,-4.0912,-4.0912,-4.0912,-4.0912,0.0,-4.0912,-4.0912,-4.0912,-4.0912,-4.0912,-4.0912,-4.0912,-4.0912,-4.0912,-4.0912,-4.0888,-4.084,-4.0566,-4.0279,-4.0137,-3.9868,-3.9568,-3.9516,-3.9516,-3.9437,-3.8778,-3.7854,-3.6803,-3.5764,-3.4737,-3.3875,-3.349,-3.289,-3.2398,-3.2398,-3.2398,-3.2398,-3.2398,-3.2398,-3.2398,-3.2398,-3.2398,-3.2398,-3.2398,-3.2398,-3.2398,-3.2398,-3.2398,-3.2398,-3.2398,-3.2398,-3.2425,-3.2496,-3.2523,-3.248,-3.2398,-3.2398,-3.2259,-3.1936,-3.1921,-3.1797,-3.149,-3.149,-3.149,-3.149,-3.149,-3.1643,-3.1921,-3.1628,-3.1813,-1.7413,-1.8932,-2.0457,-2.2192,0.0,0.0,0.0,0.0,0.0,0.0,0.0,0.0,0.0,0.0,0.0,0.0,0.0,0.0,0.0,0.0,0.0,0.0,0.0,0.0,0.0,0.0,0.0,0.0,0.0,0.0,-3.8594,-3.9129,-3.9439,-3.9439,-4.0049,-4.0359,-4.0359,-4.0359,-4.0463,-4.0636,-4.0636,-4.0532,-4.0359,-4.0359,-4.0463,-4.0636,-4.0636,-4.0739,-4.0912,-4.0912,-4.0912,-4.0912,-4.0912,-4.0912,-4.0912,-4.0912,-4.0912,-4.0912,-4.0912,-4.084,-4.0745,-4.0697,-4.0648,-4.0534,-4.051,-4.0534,-4.0419,-3.9765,-3.8755,-3.7507,-3.6121,-3.5052,-3.4149,-3.3537,-3.289,-3.2398,-3.2398,-3.2398,-3.2398,-3.2398,-3.2398,-3.2398,-3.2398,-3.2398,-3.2398,-3.2398,-3.2398,-3.2425,-3.2425,-3.2453,-3.2453,-3.2523,-3.2523,-3.2551,-3.2648,-3.2676,-3.2621,-3.2523,-3.2523,-3.2496,-3.2453,-3.2453,-3.2425,-3.2398,-3.2398,-3.2398,-3.2398,-3.2398,-3.2398,-3.2398,-3.2425,-3.2453,-1.7348,-1.8397,-1.9603,-2.2074,0.0,0.0,0.0,0.0,0.0,0.0,0.0,0.0,0.0,0.0,0.0,0.0,0.0,0.0,0.0,0.0,0.0,0.0,0.0,0.0,0.0,0.0,0.0,0.0,0.0,0.0,-3.8617,-3.8646,-3.8663,-3.8663,-3.8755,-3.8767,-3.8767,-3.8767,-3.9094,-3.9784,-3.9784,-3.9422,-3.8767,-3.8767,-3.9129,-3.9784,-3.9784,-4.0198,-4.0912,-4.0912,-4.0912,-4.0912,-4.0912,-4.0912,-4.0912,-4.0912,-4.0912,-4.0912,-4.0912,-4.0894,-4.0864,-4.0745,-4.0697,-4.0673,-4.0534,-4.0583,-4.0534,-3.9791,-3.9075,-3.8234,-3.6878,-3.5153,-3.3705,-3.3442,-3.289,-3.2398,-3.2398,-3.2398,-3.2398,-3.2398,-3.2398,-3.2398,-3.2398,-3.2398,-3.2398,-3.2398,-3.2398,-3.2425,-3.2578,-3.2578,-3.2648,-3.2843,-3.287,-3.287,-3.287,-3.287,-3.287,-3.287,-3.287,-3.2773,-3.2578,-3.2578,-3.2523,-3.2398,-3.2398,-3.2398,-3.2398,-3.2398,-3.2398,-3.2398,-3.2523,-3.2578,-1.6723,-1.8725,-2.0689,-2.1692,0.0,0.0,0.0,0.0,0.0,0.0,0.0,0.0,0.0,0.0,0.0,0.0,0.0,0.0,0.0,0.0,0.0,0.0,0.0,0.0,0.0,0.0,0.0,0.0,0.0,0.0,-3.7428,-3.7862,-3.8062,-3.7979,-3.8464,-3.8684,-3.8594,-3.8594,-3.8491,-3.8336,-3.8784,-3.887,-3.8594,-3.8594,-3.8732,-3.9008,-3.9008,-3.9203,-3.9479,-3.9479,-3.9479,-3.9479,-3.9479,-3.9733,-4.0146,-4.0146,-4.0457,-4.0825,-4.0342,-4.0146,-4.006,-3.9566,-3.9388,-3.9388,-3.9342,-3.9365,-3.9342,-3.905,-3.8817,-3.8321,-3.6847,-3.5715,-3.4644,-3.3544,-3.3306,-3.3172,-3.2545,-3.2453,-3.2496,-3.2425,-3.2398,-3.2398,-3.2398,-3.2398,-3.2398,-3.2398,-3.2453,-3.2551,-3.2578,-3.2718,-3.2816,-3.2897,-3.2978,-3.3032,-3.3032,-3.3096,-3.315,-3.315,-3.3005,-3.2816,-3.2621,-3.2594,-3.2551,-3.2398,-3.2398,-3.2398,-3.2398,-3.2398,-3.2425,-3.2523,-3.2578,-3.2676,-1.6848,-1.9217,-2.1624,0.0,0.0,0.0,0.0,0.0,0.0,0.0,0.0,0.0,0.0,0.0,0.0,0.0,0.0,0.0,0.0,0.0,0.0,0.0,0.0,0.0,0.0,0.0,0.0,0.0,0.0,0.0,0.0,-3.7189,-3.7408,-3.7307,-3.7806,-3.8018,-3.7953,-3.7892,-3.7611,-3.7133,-3.7629,-3.787,-3.787,-3.787,-3.8008,-3.8254,-3.8254,-3.8392,-3.8594,-3.8594,-3.8594,-3.8594,-3.8594,-3.8905,-3.9353,-3.9353,-3.9704,-4.0101,-3.9526,-3.9353,-3.9267,-3.875,-3.8594,-3.8594,-3.8594,-3.8594,-3.8594,-3.8594,-3.8465,-3.806,-3.697,-3.6293,-3.5546,-3.4101,-3.3879,-3.3772,-3.3058,-3.2884,-3.2819,-3.2668,-3.252,-3.2398,-3.2398,-3.2425,-3.2453,-3.2453,-3.2594,-3.2703,-3.2757,-3.2881,-3.2978,-3.3032,-3.3112,-3.315,-3.315,-3.3256,-3.3309,-3.3309,-3.3123,-3.2935,-3.2757,-3.2757,-3.2687,-3.2551,-3.2551,-3.2551,-3.2551,-3.2551,-3.2621,-3.2703,-3.273,-3.2827,-1.7893,-1.9751,0.0,0.0,0.0,0.0,0.0,0.0,0.0,0.0,0.0,0.0,0.0,0.0,0.0,0.0,0.0,0.0,0.0,0.0,0.0,0.0,0.0,0.0,0.0,0.0,0.0,0.0,0.0,0.0,0.0,-3.6702,-3.6702,-3.6702,-3.6564,-3.6502,-3.6502,-3.6381,-3.6301,-3.6301,-3.6301,-3.6301,-3.6301,-3.6301,-3.6732,-3.7495,-3.7495,-3.7909,-3.8577,-3.8577,-3.8577,-3.8577,-3.8577,-3.8577,-3.8599,-3.8599,-3.8577,-3.8594,-3.8577,-3.8599,-3.8599,-3.8577,-3.8577,-3.8577,-3.8577,-3.8577,-3.8577,-3.8577,-3.8065,-3.7452,-3.7325,-3.6848,-3.6163,-3.5218,-3.4607,-3.4178,-3.402,-3.3675,-3.3365,-3.3235,-3.2761,-3.2425,-3.241,-3.2508,-3.2621,-3.2594,-3.2773,-3.2951,-3.3069,-3.3096,-3.315,-3.3282,-3.3309,-3.3309,-3.3309,-3.3309,-3.3309,-3.3309,-3.3309,-3.3229,-3.3112,-3.3096,-3.3032,-3.2897,-3.2897,-3.2897,-3.2897,-3.2897,-3.2897,-3.2897,-3.3032,-3.3096,-1.8048,0.0,0.0,0.0,0.0,0.0,0.0,0.0,0.0,0.0,0.0,0.0,0.0,0.0,0.0,0.0,0.0,0.0,0.0,0.0,0.0,0.0,0.0,0.0,0.0,0.0,0.0,0.0,0.0,0.0,0.0,-3.6908,-3.6846,-3.6702,-3.6643,-3.6544,-3.6343,-3.6322,-3.6301,-3.6301,-3.6301,-3.6301,-3.6301,-3.6301,-3.6422,-3.6663,-3.6663,-3.6784,-3.6973,-3.6973,-3.6973,-3.6973,-3.6973,-3.7318,-3.784,-3.784,-3.8146,-3.8525,-3.8013,-3.784,-3.7737,-3.7163,-3.6973,-3.6973,-3.6973,-3.6973,-3.6973,-3.6973,-3.715,-3.7239,-3.6668,-3.6707,-3.6606,-3.5424,-3.5274,-3.5186,-3.444,-3.426,-3.4211,-3.4087,-3.3912,-3.3684,-3.3313,-3.3277,-3.3188,-3.2854,-3.2951,-3.3085,-3.3229,-3.3229,-3.3256,-3.3309,-3.3309,-3.3309,-3.3309,-3.3309,-3.3309,-3.3309,-3.3309,-3.3229,-3.3112,-3.3096,-3.3032,-3.2897,-3.2897,-3.2897,-3.2897,-3.2897,-3.2897,-3.2897,-3.3032,-3.3096,-1.984,0.0,0.0,0.0,0.0,0.0,0.0,0.0,0.0,0.0,0.0,0.0,0.0,0.0,0.0,0.0,0.0,0.0,0.0,0.0,0.0,0.0,0.0,0.0,0.0,0.0,0.0,0.0,0.0,0.0,0.0,-3.7007,-3.6948,-3.6826,-3.6766,-3.6667,-3.6489,-3.6464,-3.6423,-3.6381,-3.6423,-3.6423,-3.6381,-3.6322,-3.6301,-3.6301,-3.6301,-3.6301,-3.6301,-3.6301,-3.6301,-3.6301,-3.6301,-3.6594,-3.7008,-3.7008,-3.7301,-3.7611,-3.718,-3.7008,-3.6939,-3.6456,-3.6301,-3.6301,-3.6301,-3.6301,-3.6301,-3.6301,-3.6582,-3.6814,-3.6371,-3.6513,-3.6566,-3.5735,-3.5773,-3.583,-3.5182,-3.4971,-3.4878,-3.4743,-3.4552,-3.4309,-3.3987,-3.3962,-3.3903,-3.362,-3.3539,-3.3529,-3.3607,-3.3424,-3.3309,-3.3309,-3.3309,-3.3309,-3.3309,-3.3309,-3.3309,-3.3309,-3.3309,-3.324,-3.3176,-3.3176,-3.3123,-3.3058,-3.3058,-3.3058,-3.3058,-3.3058,-3.3058,-3.3058,-3.3123,-3.3176,0.0,0.0,0.0,0.0,0.0,0.0,0.0,0.0,0.0,0.0,0.0,0.0,0.0,0.0,0.0,0.0,0.0,0.0,0.0,0.0,0.0,0.0,0.0,0.0,0.0,0.0,0.0,0.0,0.0,0.0,-3.7007,-3.7007,-3.7009,-3.7046,-3.6871,-3.6831,-3.6873,-3.6788,-3.6687,-3.6612,-3.6728,-3.6728,-3.6591,-3.6406,-3.6322,-3.6301,-3.6322,-3.6322,-3.6301,-3.6301,-3.6301,-3.6301,-3.6301,-3.6301,-3.6301,-3.6301,-3.6301,-3.6301,-3.6301,-3.6301,-3.6301,-3.6301,-3.6301,-3.6301,-3.6301,-3.6301,-3.6301,-3.6301,-3.6301,-3.6301,-3.6301,-3.6301,-3.6259,-3.6084,-3.6122,-3.6165,-3.6041,-3.5744,-3.5442,-3.5311,-3.4901,-3.4552,-3.4528,-3.46,-3.4671,-3.464,-3.4325,-3.4101,-3.4101,-3.3617,-3.3309,-3.3309,-3.3309,-3.3309,-3.3309,-3.3309,-3.3309,-3.3309,-3.3309,-3.3309,-3.3309,-3.3309,-3.3309,-3.3309,-3.3309,-3.3309,-3.3309,-3.3361,-3.3319,-3.3282,-3.3346,-3.3319,0.0,0.0,0.0,0.0,0.0,0.0,0.0,0.0,0.0,0.0,0.0,0.0,0.0,0.0,0.0,0.0,0.0,0.0,0.0,0.0,0.0,0.0,0.0,0.0,0.0,0.0,0.0,0.0,0.0,0.0,-3.7007,-3.7007,-3.7106,-3.73,-3.6989,-3.7015,-3.7488,-3.7227,-3.7208,-3.7452,-3.747,-3.747,-3.7416,-3.6759,-3.6402,-3.6301,-3.6423,-3.6402,-3.6301,-3.6301,-3.6301,-3.6301,-3.6301,-3.6301,-3.6301,-3.6301,-3.6301,-3.6301,-3.6301,-3.6301,-3.6301,-3.6301,-3.6301,-3.6301,-3.6301,-3.6301,-3.6301,-3.6301,-3.6301,-3.6301,-3.6301,-3.6301,-3.6301,-3.6237,-3.6276,-3.6259,-3.6237,-3.6174,-3.6092,-3.6071,-3.5968,-3.5776,-3.5419,-3.5374,-3.5237,-3.4816,-3.4391,-3.4101,-3.4101,-3.3617,-3.3309,-3.3309,-3.3309,-3.3309,-3.3309,-3.3309,-3.3309,-3.3309,-3.3309,-3.3309,-3.3309,-3.3309,-3.3309,-3.3309,-3.3309,-3.3309,-3.3309,-3.372,-3.3658,-3.315,-3.3684,-3.3658,0.0,0.0,0.0,0.0,0.0,0.0,0.0,0.0,0.0,0.0,0.0,0.0,0.0,0.0,0.0,0.0,0.0,0.0,0.0,0.0,0.0,0.0,0.0,0.0,0.0,0.0,0.0,0.0,0.0,-3.6166,-3.631,-3.6328,-3.6399,-3.6538,-3.6328,-3.6381,-3.6689,-3.6738,-3.6826,-3.6934,-3.6827,-3.6772,-3.6752,-3.6936,-3.688,-3.6641,-3.6676,-3.6533,-3.6301,-3.6301,-3.6301,-3.6301,-3.6301,-3.6301,-3.6301,-3.6301,-3.6301,-3.6301,-3.6301,-3.6301,-3.6301,-3.6301,-3.6301,-3.6301,-3.6301,-3.6301,-3.6301,-3.6301,-3.6301,-3.6301,-3.6301,-3.6301,-3.6301,-3.6301,-3.6301,-3.6301,-3.6301,-3.6301,-3.6301,-3.6301,-3.6301,-3.622,-3.5985,-3.5749,-3.5504,-3.523,-3.4561,-3.4101,-3.4101,-3.3617,-3.3309,-3.3309,-3.3309,-3.3309,-3.3309,-3.3529,-3.3581,-3.3335,-3.3755,-3.3933,-3.3694,-3.3908,-3.3908,-3.3684,-3.3684,-3.3797,-3.4018,-3.4292,-3.4267,-3.3917,-3.4267,-3.4134,0.0,0.0,0.0,0.0,0.0,0.0,0.0,0.0,0.0,0.0,0.0,0.0,0.0,0.0,0.0,0.0,0.0,0.0,0.0,0.0,0.0,0.0,0.0,0.0,0.0,0.0,0.0,0.0,0.0,-3.5301,-3.558,-3.5596,-3.5627,-3.5709,-3.5627,-3.5659,-3.5784,-3.6116,-3.627,-3.6199,-3.6043,-3.6006,-3.6111,-3.7148,-3.7381,-3.6958,-3.6898,-3.6676,-3.6381,-3.6343,-3.6322,-3.6322,-3.6301,-3.6301,-3.6301,-3.6301,-3.6301,-3.6301,-3.6301,-3.6301,-3.6301,-3.6301,-3.6301,-3.6301,-3.6301,-3.6301,-3.6301,-3.6301,-3.6301,-3.6301,-3.6301,-3.6301,-3.6301,-3.6301,-3.6301,-3.6301,-3.6301,-3.6301,-3.6301,-3.6301,-3.6301,-3.6301,-3.6301,-3.5985,-3.5705,-3.5705,-3.4951,-3.4358,-3.4358,-3.3882,-3.3565,-3.3565,-3.3565,-3.3565,-3.3565,-3.3975,-3.4034,-3.3591,-3.435,-3.4617,-3.4234,-3.4593,-3.4666,-3.4358,-3.4259,-3.4415,-3.4793,-3.4887,-3.4887,-3.4793,-3.4887,-3.469,0.0,0.0,0.0,0.0,0.0,0.0,0.0,0.0,0.0,0.0,0.0,0.0,0.0,0.0,0.0,0.0,0.0,0.0,0.0,0.0,0.0,0.0,0.0,0.0,0.0,0.0,0.0,0.0,-3.5564,-3.5564,-3.5596,-3.5596,-3.5755,-3.6113,-3.5771,-3.5924,-3.6549,-3.6321,-3.6347,-3.6629,-3.6602,-3.6939,-3.7608,-3.7708,-3.7397,-3.6745,-3.6725,-3.6705,-3.6643,-3.6523,-3.6464,-3.6444,-3.636,-3.6301,-3.6301,-3.6301,-3.6301,-3.6301,-3.6301,-3.6301,-3.6301,-3.6301,-3.6301,-3.6301,-3.6301,-3.6301,-3.6301,-3.6301,-3.6301,-3.6301,-3.6301,-3.6301,-3.6301,-3.6301,-3.6301,-3.6301,-3.6301,-3.6301,-3.6301,-3.6301,-3.6301,-3.6301,-3.6301,-3.6259,-3.6216,-3.6216,-3.5749,-3.5391,-3.5391,-3.4911,-3.4617,-3.4617,-3.4617,-3.4617,-3.4617,-3.4666,-3.469,-3.4601,-3.4738,-3.4785,-3.4714,-3.4761,-3.4998,-3.5391,-3.4951,-3.4738,-3.4793,-3.5276,-3.5237,-3.4793,-3.5276,-3.5207,0.0,0.0,0.0,0.0,0.0,0.0,0.0,0.0,0.0,0.0,0.0,0.0,0.0,0.0,0.0,0.0,0.0,0.0,0.0,0.0,0.0,0.0,0.0,0.0,0.0,0.0,0.0,0.0,-3.4676,-3.4647,-3.4798,-3.483,-3.4898,-3.5069,-3.4898,-3.4966,-3.5293,-3.5404,-3.5475,-3.5475,-3.5886,-3.6047,-3.6007,-3.6833,-3.7354,-3.7649,-3.7614,-3.7358,-3.6972,-3.6933,-3.6774,-3.6602,-3.6544,-3.6482,-3.6423,-3.6423,-3.6364,-3.6301,-3.6301,-3.6301,-3.6301,-3.6301,-3.6301,-3.6301,-3.6301,-3.6301,-3.6301,-3.6301,-3.6301,-3.6301,-3.6301,-3.6301,-3.6301,-3.6301,-3.6301,-3.6301,-3.6301,-3.6301,-3.6301,-3.6301,-3.6301,-3.6301,-3.6301,-3.6071,-3.592,-3.592,-3.5875,-3.582,-3.582,-3.563,-3.5462,-3.5462,-3.5081,-3.4793,-3.4793,-3.5091,-3.5121,-3.4833,-3.5328,-3.5509,-3.5276,-3.5487,-3.5749,-3.5985,-3.5504,-3.5391,-3.5638,-3.5881,-3.5859,-3.5661,-3.5881,-3.5727,0.0,0.0,0.0,0.0,0.0,0.0,0.0,0.0,0.0,0.0,0.0,0.0,0.0,0.0,0.0,0.0,0.0,0.0,0.0,0.0,0.0,0.0,0.0,0.0,0.0,0.0,0.0,0.0,-3.4011,-3.3985,-3.4185,-3.4197,-3.4197,-3.4197,-3.4197,-3.4197,-3.4197,-3.4544,-3.461,-3.4429,-3.4983,-3.5074,-3.4794,-3.5884,-3.6957,-3.7973,-3.8143,-3.7911,-3.7431,-3.7395,-3.7226,-3.6989,-3.6869,-3.6751,-3.6612,-3.6527,-3.6423,-3.6301,-3.6301,-3.6301,-3.6301,-3.6301,-3.6301,-3.6301,-3.6301,-3.6301,-3.6301,-3.6301,-3.6301,-3.6301,-3.6301,-3.6301,-3.6301,-3.6301,-3.6301,-3.6301,-3.6301,-3.6301,-3.6301,-3.6301,-3.6301,-3.6301,-3.6301,-3.6006,-3.5856,-3.6043,-3.6257,-3.646,-3.6645,-3.6662,-3.6662,-3.6662,-3.6118,-3.5676,-3.5492,-3.5859,-3.5819,-3.523,-3.5881,-3.6135,-3.5793,-3.6114,-3.6301,-3.6301,-3.5963,-3.5963,-3.6301,-3.6301,-3.6301,-3.6301,-3.6301,-3.6114,0.0,0.0,0.0,0.0,0.0,0.0,0.0,0.0,0.0,0.0,0.0,0.0,0.0,0.0,0.0,0.0,0.0,0.0,0.0,0.0,0.0,0.0,0.0,0.0,0.0,0.0,0.0,0.0,-3.4185,-3.4185,-3.4197,-3.4197,-3.4197,-3.4197,-3.4197,-3.4197,-3.4197,-3.4222,-3.4228,-3.4216,-3.4253,-3.4699,-3.5441,-3.5534,-3.5998,-3.6825,-3.7587,-3.7981,-3.8051,-3.7929,-3.7842,-3.779,-3.7339,-3.7094,-3.6941,-3.6612,-3.6423,-3.6301,-3.6301,-3.6301,-3.6301,-3.6301,-3.6301,-3.6301,-3.6301,-3.6301,-3.6301,-3.6301,-3.6301,-3.6301,-3.6301,-3.6301,-3.6301,-3.6301,-3.6301,-3.6301,-3.6301,-3.6301,-3.6301,-3.6301,-3.6301,-3.6301,-3.6301,-3.628,-3.6521,-3.7279,-3.7413,-3.7666,-3.8372,-3.8458,-3.8458,-3.8458,-3.8424,-3.8114,-3.7408,-3.7378,-3.7051,-3.6272,-3.628,-3.6301,-3.6259,-3.6301,-3.6301,-3.6301,-3.628,-3.628,-3.6301,-3.6301,-3.6301,-3.6301,-3.6301,-3.6301,0.0,0.0,0.0,0.0,0.0,0.0,0.0,0.0,0.0,0.0,0.0,0.0,0.0,0.0,0.0,0.0,0.0,0.0,0.0,0.0,0.0,0.0,0.0,0.0,0.0,0.0,0.0,0.0,0.0,-3.4245,-3.4209,-3.4197,-3.4197,-3.4197,-3.4197,-3.4197,-3.4197,-3.4197,-3.4197,-3.4197,-3.4197,-3.4364,-3.468,-3.525,-3.5659,-3.598,-3.6782,-3.7319,-3.7645,-3.7596,-3.776,-3.8016,-3.7844,-3.7667,-3.7506,-3.7395,-3.7227,-3.7036,-3.6761,-3.6678,-3.6638,-3.6367,-3.6301,-3.6301,-3.6301,-3.6301,-3.6301,-3.6301,-3.6301,-3.6301,-3.6301,-3.6301,-3.6301,-3.6301,-3.6301,-3.6301,-3.6301,-3.6301,-3.6301,-3.6301,-3.6301,-3.6301,-3.6301,-3.6301,-3.6559,-3.7392,-3.7909,-3.8456,-3.9198,-3.9301,-3.9301,-3.9301,-3.8461,-3.7806,-3.753,-3.7047,-3.6611,-3.6318,-3.6301,-3.6301,-3.6301,-3.6301,-3.6301,-3.6301,-3.6301,-3.6301,-3.6301,-3.6301,-3.6301,-3.6301,-3.6301,-3.6301,0.0,0.0,0.0,0.0,0.0,0.0,0.0,0.0,0.0,0.0,0.0,0.0,0.0,0.0,0.0,0.0,0.0,0.0,0.0,0.0,0.0,0.0,0.0,0.0,0.0,0.0,0.0,0.0,0.0,0.0,-3.4269,-3.4245,-3.4221,-3.4197,-3.4197,-3.4197,-3.4197,-3.4197,-3.4197,-3.4197,-3.4197,-3.4197,-3.4216,-3.4804,-3.5064,-3.5101,-3.564,-3.6345,-3.72,-3.7458,-3.7749,-3.8045,-3.8223,-3.8148,-3.7946,-3.7843,-3.7685,-3.7469,-3.719,-3.7113,-3.7055,-3.6781,-3.6698,-3.6698,-3.6698,-3.6597,-3.6512,-3.6512,-3.6409,-3.6301,-3.6301,-3.6301,-3.6301,-3.6301,-3.6301,-3.6301,-3.6301,-3.6301,-3.6301,-3.6301,-3.6301,-3.6301,-3.6301,-3.6301,-3.6559,-3.7392,-3.8134,-3.887,-3.9612,-3.9939,-4.0095,-4.0095,-3.8974,-3.8151,-3.7892,-3.7146,-3.6577,-3.6318,-3.6301,-3.6301,-3.6301,-3.6301,-3.6301,-3.6301,-3.6301,-3.6301,-3.6301,-3.6301,-3.6301,-3.6301,-3.6301,-3.6301,0.0,0.0,0.0,0.0,0.0,0.0,0.0,0.0,0.0,0.0,0.0,0.0,0.0,0.0,0.0,0.0,0.0,0.0,0.0,0.0,0.0,0.0,0.0,0.0,0.0,0.0,0.0,0.0,-3.436,-3.4379,-3.4348,-3.434,-3.4269,-3.4209,-3.4209,-3.4209,-3.4197,-3.4197,-3.4197,-3.4197,-3.4197,-3.4197,-3.4197,-3.4197,-3.4197,-3.4197,-3.4197,-3.5126,-3.6686,-3.7503,-3.7856,-3.7941,-3.8398,-3.8465,-3.8293,-3.7946,-3.7721,-3.7542,-3.7523,-3.7523,-3.7523,-3.7505,-3.7505,-3.7505,-3.7505,-3.7227,-3.6919,-3.6919,-3.6638,-3.6343,-3.6343,-3.6343,-3.6322,-3.6322,-3.6322,-3.6301,-3.6301,-3.6301,-3.6301,-3.6301,-3.6301,-3.6301,-3.6301,-3.6301,-3.6559,-3.7392,-3.8116,-3.8819,-3.956,-4.0359,-4.0825,-4.0825,-4.0095,-3.9353,-3.8629,-3.7892,-3.7129,-3.6353,-3.6301,-3.6301,-3.6301,-3.6301,-3.6301,-3.6301,-3.6301,-3.6301,-3.6301,-3.6301,-3.6301,-3.6301,-3.6301,-3.6301,-1.3843,0.0,0.0,0.0,0.0,0.0,0.0,0.0,0.0,0.0,0.0,0.0,0.0,0.0,0.0,0.0,0.0,0.0,0.0,0.0,0.0,0.0,0.0,0.0,0.0,0.0,0.0,0.0,-3.3294,-3.3579,-3.3534,-3.4076,-3.434,-3.4269,-3.4269,-3.4245,-3.4197,-3.4197,-3.4197,-3.4197,-3.4197,-3.4197,-3.4197,-3.4197,-3.4197,-3.4197,-3.4197,-3.4457,-3.4959,-3.5807,-3.6848,-3.7912,-3.8053,-3.8371,-3.8707,-3.8631,-3.8494,-3.8336,-3.8016,-3.793,-3.7896,-3.7596,-3.7505,-3.7505,-3.7505,-3.7432,-3.7322,-3.7322,-3.7247,-3.717,-3.717,-3.6958,-3.6721,-3.6721,-3.6512,-3.6301,-3.6301,-3.6301,-3.6301,-3.6301,-3.6301,-3.6301,-3.6301,-3.6301,-3.6559,-3.7392,-3.7668,-3.8082,-3.8801,-3.9117,-3.9255,-3.9255,-3.8565,-3.8047,-3.7823,-3.7077,-3.6542,-3.6318,-3.6301,-3.6301,-3.6301,-3.6301,-3.6301,-3.6301,-3.6301,-3.6301,-3.6301,-3.6301,-3.6301,-3.6301,-3.6301,-3.6301,0.0,0.0,0.0,0.0,0.0,0.0,0.0,-2.1061,0.0,0.0,0.0,0.0,0.0,0.0,0.0,0.0,0.0,0.0,0.0,0.0,0.0,0.0,0.0,0.0,0.0,-3.2555,-3.2658,-3.2139,-3.2523,-3.2772,-3.2737,-3.3186,-3.3556,-3.3824,-3.3843,-3.3969,-3.4245,-3.4245,-3.4221,-3.4197,-3.4197,-3.4197,-3.4197,-3.4197,-3.4197,-3.4197,-3.4197,-3.4197,-3.4234,-3.4748,-3.5733,-3.6965,-3.7634,-3.8123,-3.8492,-3.8824,-3.8851,-3.8719,-3.8462,-3.8399,-3.8348,-3.8101,-3.805,-3.8082,-3.8048,-3.7946,-3.7843,-3.7808,-3.7649,-3.7505,-3.7505,-3.7339,-3.7151,-3.7151,-3.6978,-3.6741,-3.6577,-3.6536,-3.6512,-3.6343,-3.6301,-3.6301,-3.6301,-3.6301,-3.6456,-3.6943,-3.7288,-3.7668,-3.8099,-3.8405,-3.8594,-3.8594,-3.7944,-3.7512,-3.7512,-3.6749,-3.6301,-3.6301,-3.6301,-3.6301,-3.6301,-3.6301,-3.6301,-3.6301,-3.6301,-3.6301,-3.6301,-3.6301,-3.6301,-3.6301,-3.6301,-3.6301,0.0,-1.8864,0.0,0.0,0.0,0.0,-2.1803,-2.0827,-2.0385,0.0,0.0,0.0,0.0,0.0,0.0,0.0,0.0,0.0,0.0,0.0,0.0,0.0,0.0,0.0,-3.1823,-3.1917,-3.1936,-3.1842,-3.1917,-3.1972,-3.1958,-3.2052,-3.2395,-3.306,-3.3078,-3.343,-3.4174,-3.4174,-3.4188,-3.4221,-3.4209,-3.4209,-3.4209,-3.4209,-3.4197,-3.4197,-3.4197,-3.4197,-3.4197,-3.4197,-3.4699,-3.564,-3.7071,-3.7691,-3.79,-3.8604,-3.8832,-3.8822,-3.8822,-3.8822,-3.8807,-3.8735,-3.8792,-3.8896,-3.8837,-3.86,-3.8342,-3.8279,-3.7964,-3.7632,-3.7632,-3.7596,-3.756,-3.756,-3.7542,-3.7414,-3.7055,-3.6958,-3.686,-3.6512,-3.6364,-3.6301,-3.6301,-3.6301,-3.6301,-3.6301,-3.6904,-3.7374,-3.7374,-3.7922,-3.8336,-3.8336,-3.7771,-3.7374,-3.7374,-3.6715,-3.6301,-3.6301,-3.6301,-3.6301,-3.6301,-3.6301,-3.6301,-3.6301,-3.6301,-3.6301,-3.6301,-3.6301,-3.6301,-3.6301,-3.6301,-3.6301,-2.0191,-2.0643,-2.1037,-1.9965,0.0,0.0,-1.922,-1.9608,-2.0286,0.0,0.0,0.0,0.0,0.0,0.0,0.0,0.0,0.0,0.0,0.0,0.0,0.0,0.0,0.0,-3.019,-3.0753,-3.0865,-3.0208,-3.0772,-3.1137,-3.1128,-3.1747,-3.2177,-3.2302,-3.2302,-3.2663,-3.3411,-3.34,-3.3735,-3.4351,-3.4305,-3.4281,-3.4281,-3.4221,-3.4197,-3.4197,-3.4197,-3.4197,-3.4197,-3.4197,-3.4699,-3.5529,-3.5863,-3.6721,-3.7826,-3.7975,-3.8381,-3.8881,-3.8881,-3.8881,-3.8881,-3.8866,-3.8881,-3.891,-3.8877,-3.8803,-3.8698,-3.8624,-3.853,-3.8467,-3.8467,-3.8236,-3.7982,-3.7982,-3.7739,-3.7487,-3.7414,-3.7377,-3.7377,-3.7266,-3.6741,-3.6301,-3.6301,-3.6301,-3.6301,-3.6301,-3.6422,-3.6525,-3.6525,-3.6663,-3.6749,-3.6749,-3.6611,-3.6525,-3.6525,-3.6387,-3.6301,-3.6301,-3.6301,-3.6301,-3.6301,-3.6301,-3.6301,-3.6301,-3.6301,-3.6301,-3.6301,-3.6301,-3.6301,-3.6301,-3.6301,-3.6301,-2.2685,-2.2753,-2.2986,-2.2558,0.0,0.0,0.0,-2.0809,-2.0741,-2.1567,0.0,0.0,0.0,0.0,0.0,0.0,0.0,0.0,0.0,0.0,0.0,0.0,0.0,0.0,-2.9257,-2.965,-2.9869,-2.9905,-3.0276,-3.0503,-3.0503,-3.0882,-3.13,-3.1747,-3.1747,-3.2062,-3.2734,-3.2753,-3.3104,-3.3807,-3.3773,-3.3943,-3.4293,-3.4269,-3.4233,-3.4197,-3.4197,-3.4197,-3.4197,-3.4197,-3.4457,-3.4897,-3.5343,-3.5968,-3.6745,-3.7561,-3.8063,-3.8399,-3.8806,-3.8935,-3.8935,-3.8925,-3.895,-3.8993,-3.895,-3.8939,-3.8896,-3.8807,-3.878,-3.875,-3.8707,-3.8578,-3.843,-3.8417,-3.83,-3.8132,-3.7894,-3.7877,-3.7842,-3.7649,-3.7268,-3.6923,-3.6658,-3.643,-3.6301,-3.6301,-3.6301,-3.6301,-3.6301,-3.6301,-3.6301,-3.6301,-3.6301,-3.6322,-3.6402,-3.6343,-3.6322,-3.6402,-3.6512,-3.6597,-3.6597,-3.6781,-3.69,-3.69,-3.69,-3.69,-3.69,-3.69,-3.6799,-3.6597,-3.6818,-3.69,0.0,0.0,0.0,0.0,0.0,-2.4052,0.0,0.0,0.0,-2.3285,0.0,0.0,0.0,0.0,0.0,0.0,0.0,0.0,0.0,0.0,0.0,0.0,0.0,0.0,-2.8575,-2.8453,-2.8688,-2.9555,-2.9612,-2.9688,-2.9841,-3.0013,-3.0426,-3.1137,-3.1157,-3.1454,-3.2125,-3.2125,-3.2534,-3.3323,-3.332,-3.3701,-3.4435,-3.4413,-3.4397,-3.4321,-3.4293,-3.4281,-3.4281,-3.4281,-3.4245,-3.4271,-3.4971,-3.5343,-3.5659,-3.6946,-3.7501,-3.7706,-3.8521,-3.8799,-3.8803,-3.8913,-3.9003,-3.9087,-3.9021,-3.8993,-3.8997,-3.8925,-3.8866,-3.8807,-3.875,-3.8795,-3.8807,-3.875,-3.8807,-3.8803,-3.8426,-3.8392,-3.8326,-3.7993,-3.7874,-3.7649,-3.7133,-3.6781,-3.6577,-3.6557,-3.6557,-3.6557,-3.656,-3.6557,-3.6536,-3.6536,-3.6557,-3.6577,-3.6713,-3.6615,-3.6615,-3.6713,-3.6898,-3.7017,-3.7017,-3.7339,-3.7505,-3.7505,-3.7505,-3.7505,-3.7505,-3.7578,-3.7414,-3.7036,-3.7358,-3.7505,0.0,0.0,0.0,0.0,-2.6674,0.0,0.0,0.0,-2.4235,-2.1509,0.0,0.0,0.0,0.0,0.0,0.0,0.0,0.0,0.0,0.0,0.0,0.0,0.0,0.0,0.0,-2.7045,-2.695,-2.7829,-2.7873,-2.8211,-2.8911,-2.9681,-3.0147,-3.0242,-3.0261,-3.0641,-3.1501,-3.1501,-3.2275,-3.3813,-3.3698,-3.4091,-3.4916,-3.487,-3.4821,-3.4812,-3.4636,-3.455,-3.455,-3.455,-3.4397,-3.4197,-3.4309,-3.4822,-3.5529,-3.5714,-3.6222,-3.6933,-3.775,-3.801,-3.814,-3.8864,-3.9087,-3.9087,-3.9021,-3.8993,-3.8997,-3.8925,-3.8877,-3.8896,-3.8881,-3.8881,-3.8896,-3.8881,-3.8896,-3.8896,-3.8833,-3.8833,-3.8833,-3.877,-3.847,-3.8079,-3.7596,-3.7524,-3.7524,-3.747,-3.7451,-3.747,-3.7524,-3.7451,-3.7377,-3.7433,-3.7451,-3.7451,-3.747,-3.7451,-3.7451,-3.747,-3.7451,-3.7432,-3.7432,-3.7487,-3.7505,-3.7505,-3.7505,-3.7505,-3.7505,-3.7861,-3.7826,-3.7432,-3.7487,-3.7505,0.0,0.0,0.0,0.0,0.0,0.0,-2.5225,0.0,-2.4647,0.0,0.0,0.0,0.0,0.0,0.0,0.0,0.0,0.0,0.0,0.0,0.0,0.0,0.0,0.0,0.0,0.0,0.0,-2.7827,-2.7422,-2.7715,-2.9011,-2.9443,-2.9861,-3.0361,-3.0381,-3.0519,-3.0765,-3.0759,-3.1325,-3.2455,-3.287,-3.3478,-3.4257,-3.4744,-3.4945,-3.4908,-3.4821,-3.4781,-3.4781,-3.4781,-3.4701,-3.4599,-3.4599,-3.466,-3.481,-3.5306,-3.5714,-3.6197,-3.7448,-3.7894,-3.8024,-3.8841,-3.9101,-3.9101,-3.9059,-3.9064,-3.9031,-3.8979,-3.8968,-3.8935,-3.8925,-3.8921,-3.8954,-3.8925,-3.8964,-3.9007,-3.8964,-3.8993,-3.9021,-3.9021,-3.8884,-3.8685,-3.8455,-3.8028,-3.7684,-3.7666,-3.7649,-3.7649,-3.7649,-3.7596,-3.7578,-3.7596,-3.7596,-3.7614,-3.7703,-3.7632,-3.7614,-3.765,-3.7774,-3.7948,-3.8203,-3.8203,-3.8203,-3.8203,-3.8203,-3.8203,-3.8203,-3.8368,-3.8368,-3.8203,-3.8203,-3.8203,-2.7683,0.0,0.0,0.0,0.0,0.0,0.0,0.0,0.0,0.0,0.0,0.0,0.0,0.0,0.0,0.0,0.0,0.0,0.0,0.0,0.0,0.0,0.0,0.0,0.0,0.0,0.0,-2.6965,0.0,-2.6591,-2.85,-2.9049,-2.9601,-3.0211,-3.0482,-3.0525,-3.0389,-3.0389,-3.0756,-3.1513,-3.2107,-3.2896,-3.3888,-3.4495,-3.4874,-3.507,-3.5019,-3.4992,-3.4992,-3.4992,-3.4955,-3.4917,-3.4964,-3.4733,-3.4465,-3.51,-3.5343,-3.5567,-3.7193,-3.8003,-3.8409,-3.8924,-3.9101,-3.9101,-3.9101,-3.9101,-3.9087,-3.905,-3.9021,-3.9021,-3.8964,-3.8993,-3.9021,-3.8964,-3.9017,-3.9087,-3.9036,-3.9078,-3.9101,-3.9101,-3.9101,-3.9087,-3.9036,-3.8496,-3.8092,-3.8059,-3.8061,-3.8061,-3.8029,-3.7978,-3.7945,-3.7978,-3.7978,-3.803,-3.8132,-3.803,-3.7981,-3.8,-3.817,-3.8401,-3.8704,-3.8723,-3.8707,-3.8707,-3.8707,-3.8707,-3.8707,-3.8707,-3.8707,-3.8707,-3.8707,-3.8707,0.0,0.0,0.0,-2.8413,0.0,0.0,0.0,0.0,-2.6699,0.0,0.0,0.0,0.0,0.0,0.0,0.0,0.0,0.0,0.0,0.0,0.0,0.0,0.0,0.0,0.0,0.0,-2.1742,0.0,-2.3608,-2.4216,-2.6746,-2.8422,-2.9304,-2.9345,-3.0153,-3.0598,-3.0593,-3.0593,-3.0994,-3.1782,-3.1809,-3.2687,-3.4276,-3.4243,-3.4674,-3.5463,-3.527,-3.5201,-3.5201,-3.5201,-3.5081,-3.4927,-3.5115,-3.5063,-3.4889,-3.4908,-3.4927,-3.5154,-3.6764,-3.8241,-3.9414,-3.9178,-3.9101,-3.9101,-3.9101,-3.9101,-3.9101,-3.9101,-3.9101,-3.9101,-3.9101,-3.9101,-3.9101,-3.9101,-3.9101,-3.9101,-3.9101,-3.9101,-3.9101,-3.9101,-3.9101,-3.9101,-3.9101,-3.9069,-3.9027,-3.8979,-3.8964,-3.8974,-3.9027,-3.8931,-3.8877,-3.895,-3.895,-3.8964,-3.8964,-3.8892,-3.8833,-3.8777,-3.8719,-3.8719,-3.8792,-3.8735,-3.8707,-3.8707,-3.8707,-3.8707,-3.8707,-3.8707,-3.8707,-3.8707,-3.8707,-3.8707,0.0,0.0,-2.9486,-2.9143,0.0,0.0,0.0,0.0,0.0,0.0,0.0,0.0,0.0,0.0,0.0,0.0,0.0,0.0,0.0,0.0,0.0,0.0,0.0,0.0,0.0,0.0,0.0,0.0,-2.3162,0.0,-2.6662,-2.7873,-2.8749,-2.9285,-3.0156,-3.0597,-3.0598,-3.0598,-3.0733,-3.1004,-3.155,-3.2405,-3.3528,-3.4033,-3.4717,-3.5509,-3.5423,-3.5393,-3.5403,-3.5403,-3.5354,-3.5289,-3.5369,-3.5354,-3.5258,-3.5001,-3.4908,-3.5135,-3.6746,-3.8342,-3.9683,-3.9583,-3.9559,-3.9559,-3.9559,-3.9477,-3.9357,-3.9357,-3.9232,-3.9101,-3.9101,-3.9101,-3.9101,-3.9101,-3.9101,-3.9101,-3.9101,-3.9101,-3.9101,-3.9101,-3.9101,-3.9101,-3.9101,-3.9101,-3.9087,-3.9059,-3.9078,-3.9064,-3.9036,-3.8993,-3.8964,-3.9011,-3.8993,-3.8993,-3.8993,-3.8935,-3.8896,-3.8881,-3.8837,-3.8822,-3.8807,-3.8777,-3.875,-3.8707,-3.8707,-3.8707,-3.8707,-3.8707,-3.8707,-3.8707,-3.8707,-3.8707,-3.0955,-3.0956,0.0,-3.0516,-3.0027,0.0,-2.7764,0.0,-2.7557,0.0,0.0,0.0,0.0,0.0,0.0,0.0,0.0,0.0,0.0,0.0,0.0,0.0,0.0,0.0,0.0,0.0,-2.083,-2.2841,-2.2166,0.0,0.0,-2.7468,-2.8346,-2.8865,-3.0008,-3.0595,-3.0592,-3.0592,-3.0607,-3.0617,-3.1424,-3.2265,-3.3133,-3.3926,-3.4753,-3.554,-3.5534,-3.5522,-3.5508,-3.5508,-3.5494,-3.55,-3.55,-3.55,-3.5479,-3.5218,-3.5496,-3.6145,-3.711,-3.8545,-3.9932,-3.9829,-3.9808,-3.9808,-3.9808,-3.9717,-3.9585,-3.952,-3.9376,-3.9219,-3.911,-3.9101,-3.9101,-3.9101,-3.9101,-3.9101,-3.9101,-3.9101,-3.9101,-3.9101,-3.9101,-3.9101,-3.9101,-3.9101,-3.9101,-3.9101,-3.9101,-3.9087,-3.905,-3.9036,-3.9036,-3.9036,-3.9036,-3.9021,-3.8993,-3.895,-3.8939,-3.8939,-3.8906,-3.8896,-3.8862,-3.8851,-3.8807,-3.8735,-3.8735,-3.8719,-3.8707,-3.8707,-3.8707,-3.8707,-3.8707,-3.8707]},{"header":{"parameterUnit":"m.s-1","parameterCategory":1,"la1":30.6,"la2":29.2853,"lo1":-89.7004,"lo2":-87.6739,"dy":0.0162,"dx":0.0183,"nx":112,"ny":82,"refTime":"2024-06-25T06:00:00:Z","depth":0,"parameterNumber":3,"parameterNumberName":"V-component_of_WINDS"},"data":[0.0,0.0,0.0,0.0,0.0,0.0,0.0,0.0,0.0,0.0,0.0,0.0,0.0,0.0,0.0,0.0,0.0,0.0,0.0,0.0,0.0,0.0,0.0,0.0,0.0,0.0,0.0,0.0,0.0,0.0,0.0,0.0,0.0,0.0,0.0,0.0,0.0,0.0,0.0,0.0,0.0,0.0,0.0,0.0,0.0,0.0,0.0,0.0,0.0,0.0,0.0,0.0,0.0,0.0,0.0,0.0,0.0,0.0,0.0,0.0,0.0,0.0,0.0,0.0,0.0,0.0,0.0,0.0,0.0,0.0,0.0,0.0,0.0,0.0,0.0,0.0,0.0,0.0,0.0,0.0,0.0,0.0,0.0,0.0,0.0,0.0,0.0,0.0,0.0,0.0,-1.6773,-1.9708,-2.2515,-2.3994,-2.3506,-2.3359,-2.2181,-1.9598,0.0,0.0,0.0,0.0,0.0,0.0,0.0,0.0,0.0,0.0,0.0,0.0,0.0,0.0,0.0,0.0,0.0,0.0,0.0,0.0,0.0,0.0,0.0,0.0,0.0,0.0,0.0,0.0,0.0,0.0,0.0,0.0,0.0,0.0,0.0,0.0,0.0,0.0,0.0,0.0,0.0,0.0,0.0,0.0,0.0,0.0,0.0,0.0,0.0,0.0,0.0,0.0,0.0,0.0,0.0,0.0,0.0,0.0,0.0,0.0,0.0,0.0,0.0,0.0,0.0,0.0,0.0,0.0,0.0,0.0,0.0,0.0,0.0,0.0,0.0,0.0,0.0,0.0,0.0,0.0,0.0,0.0,0.0,0.0,0.0,0.0,0.0,0.0,0.0,0.0,0.0,0.0,0.0,0.0,0.0,0.0,0.0,0.0,0.0,0.0,0.0,0.0,0.0,0.0,-1.6608,-2.0917,-2.2774,-2.3954,-2.4582,-2.3503,-2.2415,-2.1431,0.0,0.0,0.0,0.0,0.0,0.0,0.0,0.0,0.0,0.0,0.0,0.0,0.0,0.0,0.0,0.0,0.0,0.0,0.0,0.0,0.0,0.0,0.0,0.0,0.0,0.0,0.0,0.0,0.0,0.0,0.0,0.0,0.0,0.0,0.0,0.0,0.0,0.0,0.0,0.0,0.0,0.0,0.0,0.0,0.0,0.0,0.0,0.0,0.0,0.0,0.0,0.0,0.0,0.0,0.0,0.0,0.0,0.0,0.0,0.0,0.0,0.0,0.0,0.0,0.0,0.0,0.0,0.0,0.0,0.0,0.0,0.0,0.0,0.0,0.0,0.0,0.0,0.0,0.0,0.0,0.0,0.0,0.0,0.0,0.0,0.0,0.0,0.0,0.0,0.0,0.0,0.0,0.0,0.0,0.0,0.0,0.0,0.0,0.0,0.0,0.0,0.0,0.0,-1.6623,-1.8555,-2.1395,-2.3075,-2.4042,-2.4194,-2.351,-2.2367,-2.0669,-1.7253,0.0,0.0,0.0,0.0,0.0,0.0,0.0,0.0,0.0,0.0,0.0,0.0,0.0,0.0,0.0,0.0,0.0,0.0,0.0,0.0,0.0,0.0,0.0,0.0,0.0,0.0,0.0,0.0,0.0,0.0,0.0,0.0,0.0,0.0,0.0,0.0,0.0,0.0,0.0,0.0,0.0,0.0,0.0,0.0,0.0,0.0,0.0,0.0,0.0,0.0,0.0,0.0,0.0,0.0,0.0,0.0,0.0,0.0,0.0,0.0,0.0,0.0,0.0,0.0,0.0,0.0,0.0,0.0,0.0,0.0,0.0,0.0,0.0,0.0,0.0,0.0,0.0,0.0,0.0,0.0,0.0,0.0,0.0,0.0,0.0,0.0,0.0,0.0,0.0,0.0,0.0,0.0,0.0,0.0,0.0,0.0,0.0,0.0,0.0,0.0,0.0,0.0,-1.8957,-2.0561,-2.159,-2.3157,-2.3975,-2.3562,-2.302,-2.1756,-1.9484,-1.6467,0.0,0.0,0.0,0.0,0.0,0.0,0.0,0.0,0.0,0.0,0.0,0.0,0.0,0.0,0.0,0.0,0.0,0.0,0.0,0.0,0.0,0.0,0.0,0.0,0.0,0.0,0.0,0.0,0.0,0.0,0.0,0.0,0.0,0.0,0.0,0.0,0.0,0.0,0.0,0.0,0.0,0.0,0.0,0.0,0.0,0.0,0.0,0.0,0.0,0.0,0.0,0.0,0.0,0.0,0.0,0.0,0.0,0.0,0.0,0.0,0.0,0.0,0.0,0.0,0.0,0.0,0.0,0.0,0.0,0.0,0.0,0.0,0.0,0.0,0.0,0.0,0.0,0.0,0.0,0.0,0.0,0.0,0.0,0.0,0.0,0.0,0.0,0.0,0.0,0.0,0.0,0.0,0.0,0.0,0.0,0.0,0.0,0.0,0.0,0.0,0.0,0.0,-1.9228,-2.159,-2.168,-2.2868,-2.3553,-2.3339,-2.1703,-2.016,-1.894,-1.5325,0.0,0.0,0.0,0.0,0.0,0.0,0.0,0.0,0.0,0.0,0.0,0.0,0.0,0.0,0.0,0.0,0.0,0.0,0.0,0.0,0.0,0.0,0.0,0.0,0.0,0.0,0.0,0.0,0.0,0.0,0.0,0.0,0.0,0.0,0.0,0.0,0.0,0.0,0.0,0.0,0.0,0.0,0.0,0.0,0.0,0.0,0.0,0.0,0.0,0.0,0.0,0.0,0.0,0.0,0.0,0.0,0.0,0.0,0.0,0.0,0.0,0.0,0.0,0.0,0.0,0.0,0.0,0.0,0.0,0.0,0.0,0.0,0.0,0.0,0.0,0.0,0.0,0.0,0.0,0.0,0.0,0.0,0.0,0.0,0.0,0.0,0.0,0.0,0.0,0.0,0.0,0.0,0.0,0.0,0.0,0.0,0.0,0.0,0.0,0.0,0.0,0.0,-1.8525,-2.0767,0.0,-2.2832,-2.3426,-2.2965,-2.2276,-2.0739,-1.8102,0.0,0.0,0.0,0.0,0.0,0.0,0.0,0.0,0.0,0.0,0.0,0.0,0.0,0.0,0.0,0.0,0.0,0.0,0.0,0.0,0.0,0.0,0.0,0.0,0.0,0.0,0.0,0.0,0.0,0.0,0.0,0.0,0.0,0.0,0.0,0.0,0.0,0.0,0.0,0.0,0.0,0.0,0.0,0.0,0.0,0.0,0.0,0.0,0.0,0.0,0.0,0.0,0.0,0.0,0.0,0.0,0.0,0.0,0.0,0.0,0.0,0.0,0.0,0.0,0.0,0.0,0.0,0.0,0.0,0.0,0.0,0.0,0.0,0.0,0.0,0.0,0.0,0.0,0.0,0.0,0.0,0.0,0.0,0.0,0.0,0.0,0.0,0.0,0.0,0.0,0.0,0.0,0.0,0.0,0.0,0.0,0.0,0.0,0.0,0.0,0.0,0.0,-1.577,-1.8568,-2.0771,0.0,-2.2966,-2.3266,-2.2463,-2.2154,-2.053,-1.7114,0.0,0.0,0.0,0.0,0.0,0.0,0.0,0.0,0.0,0.0,0.0,0.0,0.0,0.0,0.0,0.0,0.0,0.0,0.0,0.0,0.0,0.0,0.0,0.0,0.0,0.0,0.0,0.0,0.0,0.0,0.0,0.0,0.0,0.0,0.0,0.0,0.0,0.0,0.0,0.0,0.0,0.0,0.0,0.0,0.0,0.0,0.0,0.0,0.0,0.0,0.0,0.0,0.0,0.0,0.0,0.0,0.0,0.0,0.0,0.0,0.0,0.0,0.0,0.0,0.0,0.0,0.0,0.0,0.0,0.0,0.0,0.0,0.0,0.0,0.0,0.0,0.0,0.0,0.0,0.0,0.0,0.0,0.0,0.0,0.0,0.0,0.0,0.0,0.0,0.0,0.0,0.0,0.0,0.0,0.0,0.0,0.0,0.0,0.0,0.0,0.0,0.0,-1.6443,-1.9627,-2.1949,-2.2628,-2.3236,-2.3086,-2.1799,-2.097,-1.9182,0.0,0.0,0.0,0.0,0.0,0.0,0.0,0.0,0.0,0.0,0.0,0.0,0.0,0.0,0.0,0.0,0.0,0.0,0.0,0.0,0.0,0.0,0.0,0.0,0.0,0.0,0.0,0.0,0.0,0.0,0.0,0.0,0.0,0.0,0.0,0.0,0.0,0.0,0.0,0.0,0.0,0.0,0.0,0.0,0.0,0.0,0.0,0.0,0.0,0.0,0.0,0.0,0.0,0.0,0.0,0.0,0.0,0.0,0.0,0.0,0.0,0.0,0.0,0.0,0.0,0.0,0.0,0.0,0.0,0.0,0.0,0.0,0.0,0.0,0.0,0.0,0.0,0.0,0.0,0.0,0.0,0.0,0.0,0.0,0.0,0.0,0.0,0.0,0.0,0.0,0.0,0.0,0.0,0.0,0.0,0.0,0.0,0.0,0.0,0.0,0.0,0.0,0.0,-1.6443,-1.9627,-2.1949,-2.2628,-2.3236,-2.3086,-2.1799,-2.1709,-2.0066,-1.6239,0.0,0.0,0.0,0.0,0.0,0.0,0.0,0.0,0.0,0.0,0.0,0.0,0.0,0.0,0.0,0.0,0.0,0.0,0.0,0.0,0.0,0.0,0.0,0.0,0.0,0.0,0.0,0.0,0.0,0.0,0.0,0.0,0.0,0.0,0.0,0.0,0.0,0.0,0.0,0.0,0.0,0.0,0.0,0.0,0.0,0.0,0.0,0.0,0.0,0.0,0.0,0.0,0.0,0.0,0.0,0.0,0.0,0.0,0.0,0.0,0.0,0.0,0.0,0.0,0.0,0.0,0.0,0.0,0.0,0.0,0.0,0.0,0.0,0.0,0.0,0.0,0.0,0.0,0.0,0.0,0.0,0.0,0.0,0.0,0.0,0.0,0.0,0.0,0.0,0.0,0.0,0.0,0.0,0.0,0.0,0.0,0.0,0.0,0.0,0.0,0.0,0.0,-1.7174,-1.9959,-2.2039,-2.2972,-2.337,-2.3086,-2.1799,-2.1998,-2.0531,-1.6591,0.0,0.0,0.0,0.0,0.0,0.0,0.0,0.0,0.0,0.0,0.0,0.0,0.0,0.0,0.0,0.0,0.0,0.0,0.0,0.0,0.0,0.0,0.0,0.0,0.0,0.0,0.0,0.0,0.0,0.0,0.0,0.0,0.0,0.0,0.0,0.0,0.0,0.0,0.0,0.0,0.0,0.0,0.0,0.0,0.0,0.0,0.0,0.0,0.0,0.0,0.0,0.0,0.0,0.0,0.0,0.0,0.0,0.0,0.0,0.0,0.0,0.0,0.0,0.0,0.0,0.0,0.0,0.0,0.0,0.0,0.0,0.0,0.0,0.0,0.0,0.0,0.0,0.0,0.0,0.0,0.0,0.0,0.0,0.0,0.0,0.0,0.0,0.0,0.0,0.0,0.0,0.0,0.0,0.0,0.0,0.0,0.0,0.0,0.0,0.0,0.0,0.0,-1.8283,-2.0453,-2.2188,-2.346,-2.3595,-2.3086,-2.1799,-2.1979,-2.0621,-1.7026,0.0,0.0,0.0,0.0,0.0,0.0,0.0,0.0,0.0,0.0,0.0,0.0,0.0,0.0,0.0,0.0,0.0,0.0,0.0,0.0,0.0,0.0,0.0,0.0,0.0,0.0,0.0,0.0,0.0,0.0,0.0,0.0,0.0,0.0,0.0,0.0,0.0,0.0,0.0,0.0,0.0,0.0,0.0,0.0,0.0,0.0,0.0,0.0,0.0,0.0,0.0,0.0,0.0,0.0,0.0,0.0,0.0,0.0,0.0,0.0,-1.3967,0.0,0.0,0.0,0.0,0.0,0.0,0.0,0.0,0.0,0.0,0.0,0.0,0.0,0.0,0.0,0.0,0.0,0.0,0.0,0.0,0.0,0.0,0.0,0.0,0.0,0.0,0.0,0.0,0.0,0.0,0.0,0.0,0.0,0.0,0.0,0.0,0.0,0.0,0.0,0.0,0.0,-1.8283,-2.0453,-2.2188,-2.346,-2.3595,-2.3086,-2.1799,-2.1774,-2.0572,-1.7669,-1.6247,0.0,0.0,0.0,0.0,0.0,0.0,0.0,0.0,0.0,0.0,0.0,0.0,0.0,0.0,0.0,0.0,0.0,0.0,0.0,0.0,0.0,0.0,0.0,0.0,0.0,0.0,0.0,0.0,0.0,0.0,0.0,0.0,0.0,0.0,0.0,0.0,0.0,0.0,0.0,0.0,0.0,0.0,0.0,0.0,0.0,0.0,0.0,0.0,0.0,0.0,0.0,0.0,0.0,0.0,0.0,0.0,0.0,0.0,0.0,0.0,-1.5178,0.0,0.0,0.0,0.0,0.0,0.0,0.0,0.0,0.0,0.0,0.0,0.0,0.0,0.0,0.0,0.0,0.0,0.0,0.0,0.0,0.0,0.0,0.0,0.0,0.0,0.0,0.0,0.0,0.0,0.0,0.0,0.0,0.0,0.0,0.0,0.0,0.0,0.0,0.0,0.0,-1.9193,-2.0857,-2.2188,-2.346,-2.3595,-2.3086,-2.1799,-2.1695,-2.0692,-1.8326,-1.692,0.0,0.0,0.0,0.0,0.0,0.0,0.0,0.0,0.0,0.0,0.0,0.0,0.0,0.0,0.0,0.0,0.0,0.0,0.0,0.0,0.0,0.0,0.0,0.0,0.0,0.0,0.0,0.0,0.0,0.0,0.0,0.0,0.0,0.0,0.0,0.0,0.0,0.0,0.0,0.0,0.0,0.0,0.0,0.0,0.0,0.0,0.0,0.0,0.0,0.0,0.0,0.0,0.0,-2.0521,-2.1141,-2.1384,-2.1907,-2.2165,-2.202,-1.9633,-1.8472,-1.8172,-1.6792,0.0,0.0,0.0,0.0,0.0,0.0,0.0,0.0,0.0,0.0,0.0,0.0,0.0,0.0,0.0,0.0,0.0,0.0,0.0,0.0,0.0,0.0,0.0,0.0,-2.0357,-2.0087,-1.7483,0.0,0.0,0.0,0.0,0.0,0.0,0.0,0.0,0.0,0.0,0.0,-2.0225,-2.1395,-2.2308,-2.3454,-2.3573,-2.3065,-2.1774,-2.1635,-2.0829,-1.8949,-1.763,-1.638,0.0,0.0,0.0,0.0,0.0,0.0,0.0,0.0,0.0,0.0,0.0,0.0,0.0,0.0,0.0,0.0,0.0,0.0,0.0,0.0,0.0,0.0,0.0,0.0,0.0,0.0,0.0,0.0,0.0,0.0,0.0,0.0,-1.0572,-1.1244,0.0,0.0,0.0,0.0,0.0,0.0,0.0,0.0,0.0,0.0,0.0,0.0,0.0,-1.8755,-1.9305,-2.1454,-2.2555,-2.2616,-2.374,-2.4297,-2.4322,-2.4356,-2.4385,-2.437,-2.3975,0.0,-2.006,-1.8818,0.0,0.0,0.0,0.0,0.0,0.0,0.0,0.0,0.0,0.0,0.0,0.0,0.0,0.0,0.0,0.0,0.0,0.0,0.0,0.0,0.0,0.0,-2.2345,-2.1869,-2.2277,-2.2562,0.0,-1.92,-1.6786,-1.5463,-1.4684,0.0,0.0,0.0,0.0,0.0,0.0,0.0,-2.0404,-2.1784,-2.2811,-2.3457,-2.3494,-2.2946,-2.1567,-2.1444,-2.0838,-1.9402,-1.859,-1.7821,-1.7068,-1.5286,0.0,0.0,0.0,0.0,0.0,0.0,0.0,0.0,0.0,0.0,0.0,0.0,0.0,0.0,0.0,0.0,0.0,0.0,0.0,0.0,0.0,0.0,0.0,0.0,0.0,0.0,0.0,0.0,0.0,-1.0246,-1.1693,-1.3017,-1.3002,-1.2689,0.0,0.0,0.0,0.0,0.0,0.0,0.0,0.0,0.0,-1.9097,-2.0252,-2.1097,-2.1634,-2.3315,-2.4329,-2.4735,-2.5923,-2.6678,-2.7038,-2.7012,-2.6997,-2.6997,-2.6997,-2.6063,-2.4359,-2.2158,-2.033,-1.8852,0.0,0.0,0.0,0.0,-1.7676,-1.7787,-1.8702,-1.8621,-1.7942,-1.6771,0.0,0.0,0.0,0.0,0.0,0.0,0.0,0.0,0.0,0.0,-2.3568,-2.3655,-2.3897,-2.4037,-2.3774,-2.2316,-2.0464,0.0,-1.801,-1.7443,-1.6084,0.0,0.0,0.0,0.0,-1.9121,-2.1515,-2.2343,-2.2921,-2.3485,-2.3516,-2.2946,-2.1558,-2.1409,-2.0828,-1.9483,-1.9078,-1.8605,-1.7925,-1.6736,-1.5301,0.0,0.0,0.0,0.0,0.0,0.0,0.0,0.0,0.0,0.0,0.0,0.0,0.0,0.0,0.0,0.0,0.0,0.0,0.0,0.0,0.0,0.0,0.0,0.0,0.0,0.0,0.0,0.0,-1.1465,-1.2931,-1.4503,-1.4726,-1.4505,0.0,0.0,0.0,0.0,0.0,0.0,-1.7682,-1.8965,-2.0226,-2.1423,-2.2604,-2.3374,-2.3682,-2.496,-2.5756,-2.6106,-2.699,-2.7683,-2.8154,-2.8154,-2.8154,-2.8154,-2.8154,-2.7869,-2.7214,-2.4861,-2.3203,-2.2084,-2.0947,-2.0469,-2.0436,-2.0614,-2.0686,-2.0823,-2.1791,-2.1721,-2.1043,-1.9809,-1.9599,-1.9538,-1.7938,0.0,0.0,0.0,0.0,-2.1524,-2.3008,-2.3867,-2.45,-2.4994,-2.5226,-2.5259,-2.5085,-2.4704,-2.3763,0.0,-2.1048,-2.043,-1.8989,0.0,0.0,0.0,0.0,-2.0329,-2.2351,-2.2754,-2.3016,-2.3435,-2.3444,-2.2845,-2.1482,-2.1333,-2.0734,-1.9409,-1.9284,-1.9027,-1.8527,-1.7882,-1.6699,-1.4892,0.0,0.0,0.0,0.0,0.0,0.0,0.0,0.0,0.0,0.0,0.0,0.0,0.0,0.0,0.0,0.0,0.0,0.0,0.0,0.0,0.0,0.0,0.0,0.0,0.0,0.0,0.0,0.0,0.0,-1.5352,-1.6377,0.0,0.0,0.0,0.0,-1.7159,-1.7702,-1.8949,-2.103,-2.1225,-2.2036,-2.3676,-2.501,-2.5675,-2.5565,-2.6823,-2.7171,-2.6586,-2.6644,-2.6671,-2.6698,-2.6698,-2.6698,-2.6698,-2.6698,-2.6684,-2.6598,-2.5934,-2.5034,-2.3932,-2.2663,-2.1899,-2.1619,-2.2519,-2.2853,-2.2902,-2.3365,-2.3149,-2.2699,-2.268,-2.2425,-2.2142,-2.2144,-2.1794,0.0,0.0,-2.3003,-2.3311,-2.4423,-2.5212,-2.5716,-2.5759,-2.6253,-2.6504,-2.5905,-2.5745,-2.5324,0.0,-2.2752,-2.1902,-2.1892,0.0,-2.1011,-2.1156,-2.1713,-2.2176,-2.2287,-2.2891,-2.3224,-2.3149,-2.3127,-2.2557,-2.1146,-2.1023,-2.0486,-1.9207,-1.9101,-1.9087,-1.9058,-1.8477,-1.7519,-1.614,-1.4296,0.0,0.0,0.0,0.0,0.0,0.0,0.0,0.0,0.0,0.0,0.0,0.0,0.0,0.0,0.0,0.0,0.0,0.0,0.0,0.0,0.0,0.0,0.0,0.0,0.0,0.0,0.0,0.0,-1.7316,-1.7858,0.0,-1.8211,-1.8288,-1.8685,-1.9485,-2.0038,-2.0959,-2.2429,-2.3228,-2.4076,-2.5041,-2.5535,-2.5748,-2.5687,-2.6583,-2.6845,-2.648,-2.725,-2.7583,-2.7488,-2.7488,-2.7488,-2.7488,-2.7488,-2.7488,-2.7439,-2.6832,-2.6173,-2.5442,-2.4467,-2.4235,-2.442,-2.4374,-2.464,-2.5096,-2.5226,-2.5201,-2.5069,-2.4681,-2.4627,-2.4521,-2.3659,-2.412,-2.4864,-2.4422,-2.4867,-2.56,-2.5973,-2.6257,-2.6457,-2.6457,-2.6631,-2.6747,-2.6515,-2.6457,-2.6326,-2.5836,-2.4776,-2.3804,-2.3389,-2.323,-2.3018,-2.2628,-2.2796,-2.2951,-2.2936,-2.315,-2.3275,-2.3246,-2.3135,-2.2557,-2.1243,-2.1044,-2.0451,-1.9174,-1.9101,-1.9101,-1.9101,-1.8898,-1.8172,-1.688,-1.5763,-1.4078,0.0,0.0,0.0,0.0,0.0,0.0,0.0,0.0,0.0,0.0,0.0,0.0,0.0,0.0,0.0,0.0,0.0,0.0,0.0,0.0,0.0,0.0,0.0,0.0,0.0,0.0,-1.693,-1.8375,-1.9049,-1.952,-1.9772,-2.0091,-2.059,-2.1372,-2.1934,-2.2635,-2.3517,-2.434,-2.5018,-2.555,-2.5819,-2.5941,-2.5987,-2.6629,-2.6759,-2.6322,-2.7202,-2.7504,-2.7304,-2.7351,-2.7351,-2.7304,-2.7304,-2.7304,-2.7245,-2.6743,-2.6356,-2.6,-2.558,-2.5644,-2.5968,-2.5501,-2.5657,-2.6056,-2.6025,-2.6069,-2.6078,-2.5728,-2.5743,-2.5795,-2.5158,-2.5869,-2.6745,-2.5964,-2.6517,-2.731,-2.7118,-2.7241,-2.7374,-2.7157,-2.7099,-2.7041,-2.6849,-2.6806,-2.6806,-2.6806,-2.5985,-2.5121,-2.4669,-2.4493,-2.4262,-2.3904,-2.3808,-2.3743,-2.3531,-2.3487,-2.3414,-2.3194,-2.3105,-2.26,-2.1564,-2.1175,-2.0553,-1.9508,-1.9232,-1.9101,-1.9101,-1.8912,-1.8303,-1.7229,-1.6126,-1.4631,-1.2722,0.0,0.0,0.0,0.0,0.0,0.0,0.0,0.0,0.0,0.0,0.0,0.0,0.0,0.0,0.0,0.0,0.0,0.0,0.0,0.0,0.0,0.0,0.0,-1.4462,-1.6641,-1.8328,-1.8479,-2.0,-2.0843,-2.0352,-2.135,-2.229,-2.2891,-2.3437,-2.3983,-2.4504,-2.4541,-2.4801,-2.5323,-2.6021,-2.6422,-2.6512,-2.7154,-2.7066,-2.6216,-2.6411,-2.6308,-2.5924,-2.6146,-2.6111,-2.5924,-2.5924,-2.5924,-2.5924,-2.5737,-2.5619,-2.566,-2.5878,-2.599,-2.5959,-2.5834,-2.5803,-2.5803,-2.5691,-2.566,-2.5691,-2.5785,-2.5847,-2.6021,-2.6816,-2.7086,-2.7159,-2.7337,-2.788,-2.8283,-2.7779,-2.814,-2.8521,-2.7884,-2.7724,-2.7565,-2.6982,-2.6849,-2.6849,-2.6849,-2.6297,-2.5847,-2.5847,-2.5274,-2.4882,-2.4921,-2.4853,0.0,-2.4007,-2.3905,-2.3659,-2.2989,-2.2902,-2.2664,-2.2048,-2.138,-2.0741,-2.0132,-1.9478,-1.9101,-1.9101,-1.855,-1.7893,-1.7209,-1.5327,-1.4055,-1.3406,0.0,0.0,0.0,0.0,0.0,0.0,0.0,0.0,0.0,0.0,0.0,0.0,0.0,0.0,0.0,0.0,0.0,0.0,0.0,0.0,0.0,0.0,-1.7207,-1.7135,-1.8487,-1.977,-2.0499,-2.1086,-2.1672,-2.2305,-2.2819,-2.3318,-2.3804,-2.4455,-2.4938,-2.5054,-2.5484,-2.5884,-2.6158,-2.6239,-2.6433,-2.6856,-2.6914,-2.6923,-2.692,-2.698,-2.6883,-2.665,-2.6687,-2.6687,-2.665,-2.665,-2.665,-2.6613,-2.6564,-2.6323,-2.5925,-2.563,-2.5496,-2.5496,-2.5462,-2.5768,-2.6319,-2.6804,-2.704,-2.7059,-2.6593,-2.6889,-2.7169,-2.5999,-2.6693,-2.7733,-2.6942,-2.7612,-2.8533,-2.8426,-2.8553,-2.8665,-2.8463,-2.8419,-2.8361,-2.8229,-2.7795,-2.7434,-2.7434,-2.6953,-2.6544,-2.6544,-2.6358,-2.6083,-2.5604,-2.5531,0.0,-2.4689,-2.4196,-2.3818,-2.3644,-2.3186,-2.2664,-2.2048,-2.138,-2.0741,-2.0132,-1.9435,-1.9031,-1.9031,-1.8858,-1.8344,-1.7436,-1.6268,-1.4996,0.0,0.0,0.0,0.0,0.0,0.0,0.0,0.0,0.0,0.0,0.0,0.0,0.0,0.0,0.0,0.0,0.0,0.0,0.0,0.0,0.0,0.0,-1.7942,-1.9348,-1.9805,-2.0282,-2.0878,-2.1632,-2.2043,-2.2596,-2.3381,-2.3802,-2.4144,-2.445,-2.5077,-2.5419,-2.5419,-2.5982,-2.6348,-2.6441,-2.657,-2.6818,-2.7211,-2.709,-2.7091,-2.7198,-2.7285,-2.7185,-2.6898,-2.6998,-2.6961,-2.6898,-2.6898,-2.6898,-2.6898,-2.6898,-2.6705,0.0,0.0,0.0,0.0,0.0,-2.5581,-2.6,-2.6436,-2.6616,-2.6637,-2.6252,-2.6663,-2.7172,-2.6341,-2.7144,-2.8196,-2.7615,-2.8318,-2.9183,-2.8994,-2.9232,-2.9435,-2.9131,-2.9073,-2.9,-2.8767,-2.839,-2.8057,-2.7753,-2.7405,0.0,-2.6849,-2.6806,-2.657,-2.5931,-2.5847,-2.5618,-2.4977,-2.4336,-2.3921,-2.3902,-2.3324,-2.2698,-2.2136,-2.1679,0.0,0.0,0.0,-1.8853,-1.8271,-1.8267,0.0,0.0,0.0,0.0,0.0,0.0,0.0,0.0,-1.3572,-1.3446,0.0,0.0,0.0,0.0,0.0,0.0,0.0,0.0,0.0,0.0,0.0,0.0,0.0,0.0,0.0,0.0,-1.9587,-2.1169,-2.2221,-2.1969,-2.1849,-2.2306,-2.2902,-2.343,-2.3842,-2.4435,-2.4806,-2.4854,-2.5352,-2.5691,-2.5691,0.0,0.0,0.0,0.0,-2.731,-2.7532,-2.7532,-2.7445,-2.7355,-2.7543,-2.7443,-2.7078,-2.728,-2.7242,-2.7078,-2.7078,-2.7078,-2.7078,-2.7078,-2.7042,-2.6934,-2.6406,-2.5901,-2.5492,-2.5492,-2.5492,-2.548,-2.542,0.0,0.0,-2.5324,-2.5791,-2.6517,-2.7183,-2.7855,-2.8473,-2.8629,-2.9261,-2.9775,-2.9373,-2.9839,-3.0303,-2.9812,-2.9667,-2.9552,-2.9015,-2.8854,-2.8623,-2.8029,-2.7797,-2.7521,-2.6888,-2.6796,-2.6594,-2.5975,-2.5893,-2.5656,-2.5001,-2.438,-2.398,-2.3923,0.0,0.0,-2.2254,-2.1959,-2.1304,-2.0168,-1.9523,-1.8602,-1.735,-1.7303,-1.7319,-1.7327,-1.7459,-1.739,-1.7115,-1.7178,-1.6968,-1.6437,-1.4065,-1.3856,0.0,0.0,0.0,0.0,0.0,0.0,0.0,0.0,0.0,0.0,0.0,0.0,0.0,0.0,0.0,-2.0184,-2.1332,-2.2289,-2.3348,-2.3408,-2.3384,-2.3493,-2.3622,-2.3842,-2.4326,-2.4641,-2.4917,-2.5202,-2.5839,-2.625,-2.625,-2.6761,-2.7127,-2.7287,-2.7224,-2.7417,-2.7881,-2.7752,-2.7854,-2.8237,0.0,0.0,-2.821,-2.8237,-2.8249,-2.821,-2.821,-2.821,-2.821,-2.821,-2.7957,-2.7474,-2.6934,-2.6669,-2.6585,-2.6585,-2.6585,-2.6513,-2.6105,-2.5949,-2.5877,-2.5444,-2.5791,-2.6427,-2.6586,-2.7217,0.0,-2.7907,-2.8136,-2.8519,-2.8953,-2.9174,-2.9459,-3.0033,-3.0169,-3.017,-3.0234,-2.9798,-2.9378,-2.9247,-2.8406,-2.7515,-2.6903,-2.679,-2.6594,-2.5975,-2.5893,-2.5673,-2.5052,-2.4395,-2.3987,-2.3997,-2.3002,-2.231,-2.2201,-2.1182,-2.0446,-2.0209,-1.903,-1.8206,-1.7938,-1.7515,-1.7181,-1.692,-1.7411,-1.7294,-1.6565,-1.6989,-1.6968,-1.6488,-1.5969,-1.6195,0.0,0.0,0.0,0.0,0.0,0.0,0.0,0.0,0.0,0.0,0.0,-1.3957,-1.5695,0.0,-1.9148,-2.0972,-2.223,-2.3288,-2.4037,-2.4145,-2.4145,-2.4145,-2.4145,-2.435,-2.4867,-2.4985,-2.5249,-2.5661,-2.6022,-2.6372,-2.6662,-2.7182,-2.751,-2.7586,-2.7765,-2.7992,-2.8258,-2.8153,-2.8246,-2.851,-2.851,-2.851,-2.851,-2.851,-2.851,-2.851,-2.851,-2.851,-2.851,-2.851,-2.8354,-2.805,-2.7825,-2.7366,-2.6898,-2.6898,-2.6898,-2.6861,-2.6573,-2.6514,-2.6478,-2.6177,-2.6613,-2.7157,-2.6882,-2.7383,-2.8052,-2.8085,-2.7992,-2.8005,-2.873,-2.8698,-2.873,-2.9577,-2.9808,-2.9931,-3.0477,-3.0321,-3.0001,-2.9653,-2.9087,-2.8266,-2.7018,-2.6803,-2.6396,-2.5188,-2.5006,-2.4893,-2.4595,-2.3971,-2.3653,-2.3863,-2.3084,-2.23,-2.1667,-2.0388,-1.9662,-1.971,-1.8693,-1.8093,-1.8093,-1.7865,-1.7692,-1.7552,-1.7882,-1.7771,-1.7192,-1.7463,-1.7508,-1.734,-1.734,-1.7385,0.0,0.0,0.0,0.0,0.0,0.0,0.0,0.0,-1.2281,-1.3597,-1.4547,-1.5543,-1.697,-1.892,-2.0577,-2.1413,-2.2902,-2.4097,-2.4602,-2.4675,-2.4675,-2.4675,-2.4675,-2.4843,-2.5264,-2.5396,-2.5636,-2.6069,-2.6286,-2.661,-2.7018,-2.7546,-2.7873,-2.7873,-2.8282,-2.851,-2.851,-2.851,-2.851,-2.851,-2.851,-2.851,-2.851,-2.851,-2.851,-2.851,-2.851,-2.851,-2.851,-2.851,-2.851,-2.851,-2.851,-2.7993,-2.7198,-2.7198,-2.7198,-2.7186,-2.709,-2.7054,-2.703,-2.6922,-2.7397,-2.7911,-2.7509,-2.7812,-2.8297,-2.8246,-2.7855,-2.7564,-2.8195,-2.7999,-2.792,-2.8776,-2.8998,-2.9188,-2.9962,-3.0251,-3.0198,-2.9693,-2.9492,-2.8899,-2.727,-2.6662,-2.5902,-2.4326,-2.406,-2.4002,-2.3897,-2.3365,-2.317,-2.3561,-2.3049,-2.2184,-2.0917,-1.9787,-1.9133,-1.9158,-1.8497,-1.8114,-1.8114,-1.8073,-1.807,-1.812,-1.819,-1.8154,-1.7965,-1.7989,-1.8073,-1.8204,-1.8317,-1.8129,-0.9464,-0.9491,-0.9914,-1.1338,-1.1603,-1.21,0.0,0.0,-1.511,-1.609,-1.6272,-1.6743,-1.8445,-1.9468,-2.0731,-2.2811,-2.3871,-2.4614,-2.5143,-2.5216,-2.5216,-2.5216,-2.5216,-2.524,-2.53,-2.5733,-2.6033,-2.6093,-2.6995,-2.7572,-2.7594,-2.8138,-2.8426,-2.8426,-2.8474,-2.851,-2.851,-2.851,-2.851,-2.851,-2.851,-2.851,-2.851,-2.851,-2.851,-2.851,-2.851,-2.851,-2.851,-2.851,-2.851,-2.851,-2.851,-2.8438,-2.833,-2.833,-2.833,-2.827,-2.7801,-2.7594,-2.7522,-2.7042,-2.7397,-2.7986,-2.7923,-2.8071,-2.8183,-2.7542,-2.6952,-2.6539,-2.6654,-2.6607,-2.6799,-2.7664,-2.788,-2.7992,-2.8363,-2.8998,-2.947,-2.9586,-2.9104,-2.8456,-2.7711,-2.622,-2.4876,-2.421,-2.3959,-2.3636,-2.3108,-2.2848,-2.2744,-2.2834,-2.2286,-2.1428,-2.022,-1.9531,-1.9151,-1.9022,-1.85,-1.8185,-1.8185,-1.7726,-1.7497,-1.7509,-1.7618,-1.7714,-1.7834,-1.7941,-1.8073,-1.8216,-1.8682,-1.8882,-1.1678,0.0,0.0,0.0,-1.366,-1.4289,-1.5509,-1.5605,-1.5741,-1.6722,-1.7112,-1.7563,-1.8487,-1.9679,-2.1006,0.0,-2.3508,-2.439,-2.5205,-2.5312,-2.5192,-2.4879,-2.5119,-2.5312,-2.5312,-2.5793,-2.6238,-2.6525,-2.7258,-2.7861,-2.8162,-2.839,-2.851,-2.851,-2.851,-2.851,-2.851,-2.851,-2.851,-2.851,-2.851,-2.851,-2.851,-2.851,-2.851,-2.851,-2.851,-2.851,-2.851,-2.851,-2.851,-2.851,-2.851,-2.851,-2.851,-2.851,-2.851,-2.8474,-2.8258,-2.8186,-2.815,-2.7882,-2.8031,-2.8228,-2.7922,-2.7878,-2.7852,-2.7347,-2.6714,-2.6267,-2.6364,-2.607,-2.5988,-2.6862,-2.7051,-2.7265,-2.794,-2.8712,-2.9341,-2.9404,-2.9288,-2.887,-2.7851,-2.672,-2.5478,-2.4078,-2.355,-2.3155,-2.283,-2.2739,-2.2647,-2.2555,-2.1946,-2.1255,-2.0423,-1.9851,-1.9377,-1.9011,-1.8782,-1.8662,-1.8662,-1.8446,-1.8326,-1.8326,-1.8389,-1.8477,-1.8605,-1.8744,-1.8895,-1.9021,-1.9321,-1.9472,-1.2823,0.0,0.0,-1.4277,-1.5085,-1.5794,-1.6042,-1.6125,-1.6341,-1.7049,-1.7496,-1.7821,-1.8245,-1.9525,-2.0896,-2.2031,-2.2911,-2.3891,-2.5123,-2.5123,-2.4909,-2.4748,-2.5071,-2.5312,-2.5312,-2.5793,-2.6334,-2.6849,-2.739,-2.7906,-2.8474,-2.851,-2.851,-2.851,-2.851,-2.851,-2.851,-2.851,-2.851,-2.851,-2.851,-2.851,-2.851,-2.851,-2.851,-2.851,-2.851,-2.851,-2.851,-2.851,-2.851,-2.851,-2.851,-2.851,-2.851,-2.851,-2.851,-2.851,-2.851,-2.851,-2.851,-2.851,-2.851,-2.8438,-2.8053,-2.7798,-2.7637,-2.7397,-2.6724,-2.6118,-2.6286,-2.5796,-2.5476,-2.6102,-2.6227,-2.6433,-2.7191,-2.7973,-2.8602,-2.868,-2.8839,-2.867,-2.7809,-2.6906,-2.5761,-2.4121,-2.3356,-2.2899,-2.2641,-2.2586,-2.2494,-2.2359,-2.1777,-2.1235,-2.0856,-2.0193,-1.964,-1.9266,-1.9071,-1.8987,-1.8987,-1.8987,-1.8987,-1.8987,-1.8987,-1.9078,-1.9208,-1.9302,-1.942,-1.9617,-1.9708,-1.9759,0.0,0.0,-1.358,-1.4772,-1.5544,-1.609,-1.6473,-1.7019,-1.7457,-1.7476,-1.7364,-1.7382,-1.8,-1.8965,-2.0164,-2.1743,-2.2362,-2.3257,-2.5052,-2.4636,-2.4409,-2.517,-2.53,-2.5312,0.0,-2.5793,-2.6334,-2.6849,-2.739,-2.7906,-2.8474,-2.851,-2.851,-2.851,-2.851,-2.851,-2.851,-2.851,-2.851,-2.851,-2.851,-2.851,-2.851,-2.851,-2.851,-2.851,-2.851,-2.851,-2.851,-2.851,-2.851,-2.851,-2.851,-2.851,-2.851,-2.851,-2.851,-2.851,-2.851,-2.851,-2.851,-2.851,-2.851,-2.851,-2.8498,-2.8086,-2.7717,-2.7681,-2.6911,-2.6093,-2.6118,-2.5732,-2.5312,-2.5335,-2.5335,-2.5418,-2.5641,-2.6217,-2.6807,-2.7183,-2.7263,-2.7317,-2.7491,-2.6319,-2.5103,-2.4382,-2.3668,-2.3004,-2.2493,-2.2309,-2.2228,-2.2228,-2.1716,-2.1392,-2.138,-2.0394,-1.9796,-1.9784,-1.9302,-1.8987,-1.8987,-1.8987,-1.8987,-1.8987,-1.8987,-1.9078,-1.9208,-1.9208,-1.9354,-1.9617,-1.9617,-1.9682,0.0,0.0,-1.5078,-1.5886,-1.6468,-1.6871,-1.7156,-1.7254,-1.7314,-1.7314,-1.6937,-1.6804,-1.7411,-1.7659,-1.8421,-2.0303,-2.0833,-2.1771,-2.399,-2.4359,-2.4519,-2.4728,-2.5408,0.0,0.0,0.0,0.0,-2.6849,-2.739,-2.7906,-2.8474,-2.851,-2.851,-2.851,-2.851,-2.851,-2.851,-2.851,-2.851,-2.851,-2.851,-2.851,-2.851,-2.851,-2.851,-2.851,-2.851,-2.851,-2.851,-2.851,-2.851,-2.851,-2.851,-2.851,-2.851,-2.851,-2.851,-2.851,-2.851,-2.851,-2.851,-2.851,-2.851,-2.851,-2.851,-2.8378,-2.8174,-2.7786,-2.7464,-2.7007,-2.6286,-2.5961,-2.5745,-2.5396,-2.5312,-2.5312,-2.5382,-2.6045,-2.6625,-2.6786,-2.6921,-2.7035,-2.7103,-2.6332,-2.532,-2.4258,-2.3207,-2.2483,-2.2302,-2.2216,-2.2197,-2.2197,-2.2041,-2.1789,-2.144,-2.1067,-2.0706,-2.0358,-1.9817,-1.9543,-1.9543,-1.9179,-1.8987,-1.8987,-1.8987,-1.9025,-1.9078,-1.917,-1.9432,-1.988,-2.0095,-2.0389,-1.4439,-1.5355,-1.6079,-1.6757,-1.7125,-1.7318,-1.7292,-1.7185,-1.706,-1.6921,-1.6468,-1.6199,-1.6581,-1.6569,-1.7148,-1.9228,-1.9584,-2.0528,-2.3253,-2.3783,-2.3958,-2.4259,-2.5286,-2.5659,0.0,0.0,0.0,-2.6873,-2.739,-2.7906,-2.8474,-2.851,-2.851,-2.851,-2.851,-2.851,-2.851,-2.851,-2.851,-2.851,-2.851,-2.851,-2.851,-2.851,-2.851,-2.851,-2.851,-2.851,-2.851,-2.851,-2.851,-2.851,-2.851,-2.851,-2.851,-2.851,-2.851,-2.851,-2.851,-2.851,-2.851,-2.851,-2.851,-2.851,-2.851,-2.851,-2.8438,-2.8102,-2.7861,-2.7522,-2.6863,-2.6394,-2.6009,-2.5673,-2.5444,-2.5312,-2.5312,-2.5732,-2.6171,-2.6239,-2.6355,-2.6471,-2.6552,-2.5968,-2.5198,-2.4302,-2.32,-2.2402,-2.2209,-2.2197,-2.2197,-2.2197,-2.2197,-2.2053,-2.1716,-2.1512,-2.126,-2.0923,-2.0382,-2.0081,-2.0081,-1.9756,-1.9576,-1.9576,-1.9576,-1.9576,-1.9576,-1.967,-1.9922,-2.036,-2.0582,-2.0906,-1.5077,-1.597,-1.6587,-1.7339,-1.7513,-1.7394,-1.7,-1.6872,-1.6734,-1.6331,-1.59,-1.5597,0.0,0.0,-1.6365,-1.8513,-1.8596,-1.9521,-2.2762,-2.2858,-2.2885,0.0,0.0,0.0,0.0,0.0,0.0,-2.6934,0.0,-2.7906,-2.8474,-2.851,-2.851,-2.851,-2.851,-2.851,-2.851,-2.851,-2.851,-2.851,-2.8471,-2.8471,-2.8471,-2.8471,-2.8471,-2.8471,-2.851,-2.851,-2.851,-2.8471,-2.8471,-2.8471,-2.8471,-2.8471,-2.8471,-2.851,-2.851,-2.851,-2.851,-2.851,-2.851,-2.851,-2.851,-2.851,-2.851,-2.851,-2.851,-2.851,-2.815,-2.7714,-2.769,-2.6959,-2.6166,-2.6105,-2.5709,-2.5336,-2.5312,-2.5312,-2.5347,-2.5535,-2.5571,-2.5653,-2.5828,-2.5296,-2.4737,-2.453,-2.3688,-2.2859,-2.2306,-2.2209,-2.2197,-2.2197,-2.2197,-2.2197,-2.2197,-2.1728,-2.144,-2.144,-2.0947,-2.0629,-2.0629,-2.0605,-2.0581,-2.0581,-2.0581,-2.0581,-2.061,-2.0581,-2.0725,-2.1023,-2.1051,-2.1234,-1.586,-1.6868,-1.7679,-1.7917,-1.7724,-1.7394,-1.7,-1.6441,-1.589,-1.5496,-1.4845,-1.437,-1.437,0.0,0.0,-1.6796,-1.7673,0.0,-2.1519,-2.2129,0.0,0.0,0.0,-2.5599,-2.5233,-2.6403,0.0,0.0,-2.7606,-2.7906,-2.8474,-2.851,-2.851,-2.851,-2.851,-2.851,-2.851,-2.851,-2.851,-2.851,-2.8339,-2.8259,-2.8259,-2.8259,-2.8259,-2.8299,-2.8419,-2.851,-2.8471,-2.8339,-2.8259,-2.8259,-2.8259,-2.8259,-2.8299,-2.8431,-2.851,-2.851,-2.851,-2.851,-2.851,-2.851,-2.851,-2.851,-2.851,-2.851,-2.851,-2.851,-2.8414,-2.8222,-2.7786,-2.7512,-2.7103,-2.6286,-2.5997,-2.5793,-2.5396,-2.5312,-2.5312,-2.5382,-2.5382,-2.5382,-2.5453,-2.5309,-2.501,-2.4578,-2.4302,-2.3809,-2.2895,-2.2438,-2.2197,-2.2197,-2.2197,-2.2197,-2.2197,-2.2065,-2.1993,-2.1993,-2.15,-2.1211,-2.1211,-2.0798,-2.0581,-2.0581,-2.0581,-2.061,-2.0615,-2.061,-2.0844,-2.1305,-2.1541,-2.1938,-1.6412,-1.7559,-1.8226,-1.7651,-1.7631,-1.7487,-1.6519,-1.5953,-1.5296,-1.4121,-1.3699,0.0,-1.2815,0.0,0.0,0.0,0.0,0.0,-2.06,-2.1458,-2.2097,0.0,-2.4454,0.0,-2.5051,-2.6588,-2.7711,0.0,-2.7987,-2.8198,-2.8498,-2.851,-2.851,-2.851,-2.851,-2.851,-2.851,-2.8431,-2.8391,-2.8391,-2.8139,-2.807,-2.807,-2.8179,-2.8219,-2.8219,0.0,-2.8391,-2.8339,-2.8151,-2.807,-2.807,-2.807,-2.8099,-2.8219,-2.8351,-2.8431,-2.851,-2.851,-2.851,-2.851,-2.851,-2.851,-2.851,-2.851,-2.851,-2.851,-2.851,-2.851,-2.8438,-2.815,-2.7897,-2.7572,-2.6959,-2.6442,-2.6021,-2.5721,-2.548,-2.5312,-2.5312,-2.5312,-2.5312,-2.5312,-2.5312,-2.5204,-2.4915,-2.464,-2.4314,-2.3725,-2.3003,-2.245,-2.2221,-2.2197,-2.2197,-2.2197,-2.2197,-2.2197,-2.2197,-2.1921,-2.1753,-2.1753,-2.1464,-2.1308,-2.1308,-2.1308,-2.1296,-2.1313,-2.1296,-2.1494,-2.1831,-2.2115,-2.2455,-1.6643,-1.7835,-1.8255,-1.6992,-1.7186,-1.7252,-1.5608,-1.5067,-1.4374,-1.2425,0.0,-1.2281,-1.1285,-1.2201,-1.3542,-1.486,0.0,-1.7687,-1.9932,-2.0838,-2.1472,-2.1991,-2.384,-2.4959,-2.4671,-2.6381,-2.7615,-2.7966,-2.8127,-2.8299,-2.8471,-2.8471,-2.8431,-2.8431,-2.8431,-2.8431,-2.8431,-2.8259,-2.8179,-2.8179,-2.795,-2.7841,-2.7841,-2.807,-2.8139,-2.8087,-2.8179,-2.8179,-2.8139,-2.7909,-2.7841,-2.7841,-2.7893,-2.8002,-2.8179,-2.8219,-2.8339,-2.851,-2.851,-2.851,-2.851,-2.851,-2.851,-2.851,-2.851,-2.851,-2.851,-2.851,-2.851,-2.851,-2.851,-2.8174,-2.7774,-2.7702,-2.6947,-2.619,-2.6117,-2.5685,-2.5312,-2.5312,-2.5312,-2.5312,-2.5312,-2.5312,-2.5312,-2.5312,-2.488,-2.4568,-2.4496,-2.3616,-2.2811,-2.2342,-2.2234,-2.2197,-2.2197,-2.2197,-2.2197,-2.2197,-2.2197,-2.2197,-2.2197,-2.2197,-2.2197,-2.2197,-2.2197,-2.2197,-2.2197,-2.2197,-2.2247,-2.2389,-2.2586,-2.2769,-1.5772,-1.6781,-1.7586,-1.6356,-1.5787,-1.5247,-1.4127,-1.2857,0.0,0.0,0.0,-1.0002,-1.0472,-1.143,0.0,-1.4632,0.0,0.0,0.0,0.0,-2.0944,0.0,0.0,0.0,0.0,0.0,0.0,0.0,0.0,-2.7244,-2.8219,-2.8259,-2.8191,-2.8002,-2.8002,-2.8002,-2.8002,-2.7962,-2.7962,-2.7962,-2.7696,-2.7563,-2.7563,-2.7829,-2.7829,-2.7644,-2.8007,0.0,-2.7921,-2.7696,-2.7563,-2.7603,-2.7788,-2.7921,-2.8002,-2.8311,-2.8471,-2.851,-2.851,-2.851,-2.851,-2.851,-2.851,-2.851,-2.851,-2.851,-2.851,-2.851,-2.851,-2.851,-2.851,-2.8438,-2.827,-2.7825,-2.721,-2.6621,-2.6202,-2.5685,-2.5312,-2.5312,-2.5312,-2.5312,-2.5312,-2.5312,-2.5312,-2.5312,-2.5228,-2.5011,-2.4578,-2.3616,-2.2943,-2.2859,-2.245,-2.2197,-2.2197,-2.2197,-2.2197,-2.2197,-2.2197,-2.2197,-2.2197,-2.2197,-2.2197,-2.2197,-2.2197,-2.2197,-2.2197,-2.2197,-2.2228,-2.2247,-2.2555,-2.2708,-1.483,-1.5807,-1.6474,-1.5083,-1.4782,-1.4426,-1.2945,0.0,0.0,0.0,0.0,-0.9036,-0.8776,-1.0238,0.0,0.0,0.0,0.0,0.0,0.0,0.0,0.0,0.0,0.0,0.0,0.0,0.0,0.0,0.0,-2.6442,-2.795,-2.803,-2.8002,-2.7893,-2.7893,-2.7893,-2.7893,-2.7748,-2.7696,-2.7708,-2.7464,-2.733,-2.733,-2.7574,-2.7615,-2.751,-2.7725,-2.7765,-2.7655,-2.7452,-2.733,-2.7383,-2.7476,-2.7679,-2.7921,-2.8122,-2.8311,-2.851,-2.851,-2.851,-2.851,-2.851,-2.851,-2.851,-2.851,-2.851,-2.851,-2.851,-2.851,-2.851,-2.851,-2.851,-2.845,-2.8198,-2.7474,-2.6669,-2.5865,-2.5492,-2.5312,-2.5312,-2.5312,-2.5312,-2.5312,-2.5312,-2.5312,-2.5312,-2.5312,-2.5216,-2.4963,-2.4254,-2.358,-2.3071,-2.251,-2.2197,-2.2197,-2.2197,-2.2197,-2.2197,-2.2197,-2.2197,-2.2197,-2.2197,-2.2197,-2.2197,-2.2197,-2.2197,-2.2197,-2.2197,-2.2197,-2.2197,-2.2432,-2.2586,-1.3748,-1.4698,-1.5198,-1.3738,-1.362,-1.341,-1.1739,-1.0814,0.0,0.0,0.0,-0.8207,-0.7424,-0.9028,-1.0681,0.0,0.0,0.0,0.0,0.0,0.0,0.0,0.0,0.0,0.0,0.0,0.0,0.0,0.0,0.0,-2.7156,-2.7208,-2.7167,-2.7167,-2.7167,-2.7167,-2.7167,-2.694,-2.6846,-2.6846,-2.6704,-2.6633,-2.6633,-2.6805,-2.6887,-2.6846,-2.6917,-2.701,-2.7133,-2.6962,-2.7015,-2.7231,-2.7313,-2.7557,-2.7933,-2.8002,-2.8243,-2.851,-2.851,-2.851,-2.851,-2.851,-2.851,-2.851,-2.851,-2.851,-2.851,-2.851,-2.851,-2.851,-2.851,-2.851,-2.845,-2.8222,-2.7414,-2.6453,-2.5516,-2.5312,-2.5312,-2.5312,-2.5312,-2.5312,-2.5312,-2.5312,-2.5312,-2.5312,-2.5312,-2.5312,-2.5312,-2.4843,-2.4218,-2.34,-2.2739,-2.2318,-2.2197,-2.2197,-2.2197,-2.2197,-2.2197,-2.2197,-2.2197,-2.2197,-2.2197,-2.2197,-2.2197,-2.2197,-2.2197,-2.2197,-2.2278,-2.2389,-2.2531,-2.2684,-1.25,-1.3313,-1.3913,-1.2635,-1.1885,-1.1176,-1.0192,0.0,0.0,0.0,-0.6931,-0.682,-0.7439,-0.8059,0.0,0.0,0.0,0.0,0.0,0.0,0.0,0.0,0.0,0.0,0.0,0.0,0.0,0.0,0.0,0.0,-2.5094,-2.4904,-2.4797,-2.4797,-2.4797,-2.4797,-2.4797,-2.4787,-2.4797,-2.4797,-2.4754,-2.4754,-2.4754,-2.4978,-2.4935,-2.4787,-2.4967,-2.5389,0.0,-2.5955,-2.6434,-2.7231,-2.7679,-2.7852,-2.7921,-2.8323,-2.8471,-2.851,-2.851,-2.851,-2.851,-2.851,-2.851,-2.851,-2.851,-2.851,-2.851,-2.851,-2.851,-2.851,-2.851,-2.851,-2.827,-2.727,-2.661,-2.6009,-2.5432,-2.5312,-2.5312,-2.5312,-2.5312,-2.5312,-2.5312,-2.5312,-2.5312,-2.5312,-2.5312,-2.5312,-2.5312,-2.4843,-2.4448,-2.4352,-2.3496,-2.2746,-2.2234,-2.2197,-2.2197,-2.2197,-2.2197,-2.2197,-2.2197,-2.2197,-2.2197,-2.2197,-2.2197,-2.2197,-2.2197,-2.2197,-2.2469,-2.3027,-2.3148,-2.3225,-1.1496,-1.2141,-1.2574,-1.1948,-1.1193,-1.0425,-0.9681,0.0,-0.7491,-0.711,-0.669,-0.649,-0.6811,-0.741,-0.8213,0.0,0.0,0.0,0.0,0.0,0.0,0.0,0.0,0.0,0.0,0.0,0.0,0.0,0.0,0.0,-2.2931,-2.393,-2.4498,-2.4498,-2.4498,-2.4498,-2.4498,-2.4498,-2.4498,-2.4498,-2.4498,-2.4498,-2.4498,-2.4573,-2.4573,-2.4498,-2.4573,-2.4776,0.0,-2.5031,-2.5253,-2.56,-2.5893,-2.6434,-2.7092,-2.7366,-2.7914,-2.851,-2.851,-2.851,-2.851,-2.851,-2.851,-2.851,-2.851,-2.851,-2.851,-2.851,-2.851,-2.851,-2.851,-2.851,-2.8246,-2.715,-2.6729,-2.637,-2.5492,-2.5312,-2.5312,-2.5312,-2.5312,-2.5312,-2.5312,-2.5312,-2.5312,-2.5312,-2.5312,-2.5312,-2.5312,-2.5119,-2.4879,-2.452,-2.3592,-2.2927,-2.271,-2.2378,-2.2197,-2.2197,-2.2197,-2.2197,-2.2197,-2.2197,-2.2197,-2.2197,-2.2197,-2.2197,-2.2197,-2.2197,-2.234,-2.2561,-2.261,-2.2932,-1.0629,-1.1182,-1.1483,-1.1297,-1.0617,-0.987,0.0,0.0,-0.7276,-0.6947,-0.66,-0.6346,-0.6346,-0.6957,-0.7623,0.0,-0.9195,-1.0709,-1.2693,0.0,0.0,0.0,0.0,0.0,0.0,0.0,0.0,0.0,0.0,0.0,-2.1696,-2.294,-2.3681,-2.3681,-2.3681,-2.3681,-2.3681,-2.3681,-2.3681,-2.3681,-2.3681,-2.3681,-2.3681,-2.3681,-2.3681,-2.3681,-2.3681,-2.3844,0.0,-2.4413,-2.4659,-2.4914,-2.5421,-2.6133,-2.6917,-2.708,-2.7672,-2.8431,-2.8431,-2.8431,-2.8431,-2.8471,-2.851,-2.851,-2.851,-2.851,-2.851,-2.851,-2.851,-2.851,-2.851,-2.8282,-2.7861,-2.7066,-2.6645,-2.6213,-2.5468,-2.5312,-2.5312,-2.5312,-2.5312,-2.5312,-2.5312,-2.5312,-2.5312,-2.5312,-2.5312,-2.5312,-2.5312,-2.5312,-2.5168,-2.4795,-2.3965,-2.3316,-2.3035,-2.2498,-2.2197,-2.2197,-2.2197,-2.2197,-2.2197,-2.2197,-2.2197,-2.2197,-2.2197,-2.2197,-2.2197,-2.2197,-2.2278,-2.2469,-2.2469,-2.2841,-0.996,-1.0396,-1.0695,-1.0695,-0.9991,-0.9247,0.0,-0.7812,-0.6809,-0.6809,-0.6475,-0.6206,-0.6206,-0.6744,-0.7385,-0.7909,-0.8903,0.0,0.0,0.0,0.0,0.0,0.0,0.0,0.0,0.0,0.0,0.0,0.0,0.0,-2.1696,-2.1741,-2.1731,-2.1731,-2.1731,-2.1731,-2.1731,-2.1731,-2.1731,-2.1731,-2.1731,-2.1731,-2.1731,-2.1731,-2.1731,-2.1731,-2.1731,-2.2246,0.0,-2.4102,-2.4999,-2.5913,-2.7051,-2.7655,-2.7893,-2.7893,-2.803,-2.8219,-2.8219,-2.8219,-2.8219,-2.8431,-2.851,-2.851,-2.851,-2.851,-2.851,-2.851,-2.851,-2.851,-2.851,-2.7702,-2.691,-2.6898,-2.6081,-2.5324,-2.5312,-2.5312,-2.5312,-2.5312,-2.5312,-2.5312,-2.5312,-2.5312,-2.5312,-2.5312,-2.5312,-2.5312,-2.5312,-2.5312,-2.5312,-2.53,-2.4819,-2.4085,-2.3063,-2.2498,-2.2197,-2.2197,-2.2197,-2.2197,-2.2197,-2.2197,-2.2197,-2.2197,-2.2197,-2.2197,-2.2197,-2.2197,-2.25,-2.3088,-2.3088,-2.3165,-0.8811,-0.916,-0.9344,-0.9162,-0.8768,-0.8329,-0.7954,-0.7318,-0.6715,-0.6456,-0.6292,-0.6206,-0.6206,-0.6457,-0.6925,-0.7784,-0.8561,0.0,0.0,0.0,0.0,0.0,0.0,0.0,0.0,0.0,0.0,0.0,0.0,0.0,-2.1696,-2.1696,-2.1696,-2.1696,-2.1696,-2.1696,-2.1696,-2.1696,-2.1696,-2.1696,-2.1696,-2.1696,-2.1696,-2.1696,-2.1696,-2.1696,-2.1696,-2.1865,-2.2157,-2.2467,-2.3149,-2.3996,-2.4553,-2.5579,-2.6734,-2.691,-2.7412,-2.8002,-2.8139,-2.8219,-2.8219,-2.8419,-2.851,-2.851,-2.851,-2.851,-2.851,-2.851,-2.851,-2.851,-2.851,-2.7993,-2.7342,-2.6982,-2.637,-2.5745,-2.5384,-2.5312,-2.5312,-2.5312,-2.5312,-2.5312,-2.5312,-2.5312,-2.5312,-2.5312,-2.5312,-2.5312,-2.5312,-2.5312,-2.5312,-2.5312,-2.4831,-2.4242,-2.3613,-2.3071,-2.2582,-2.2209,-2.2197,-2.2197,-2.2197,-2.2197,-2.2197,-2.2197,-2.2197,-2.2197,-2.2197,-2.2197,-2.2309,-2.25,-2.2997,-2.3027,0.0,-0.7977,-0.8311,-0.8143,-0.7856,-0.7566,-0.7301,-0.6853,-0.6432,-0.6172,-0.608,-0.6072,-0.612,-0.6393,-0.684,-0.7519,-0.8098,0.0,0.0,0.0,0.0,0.0,0.0,0.0,0.0,0.0,0.0,0.0,0.0,0.0,-2.1696,-2.1696,-2.1696,-2.1696,-2.1696,-2.1696,-2.1696,-2.1696,-2.1696,-2.1696,-2.1696,-2.1696,-2.1696,-2.1696,-2.1696,-2.1696,-2.1696,-2.1696,0.0,-2.2069,-2.2589,-2.3139,-2.3671,-2.4606,-2.5663,-2.5715,-2.6404,-2.729,-2.7389,-2.7725,-2.8111,-2.8311,-2.8431,-2.851,-2.851,-2.851,-2.851,-2.851,-2.851,-2.851,-2.851,-2.7969,-2.7306,-2.697,-2.6358,-2.5709,-2.5384,-2.5312,-2.5312,-2.5312,-2.5312,-2.5312,-2.5312,-2.5312,-2.5312,-2.5312,-2.5312,-2.5312,-2.5312,-2.5312,-2.5312,-2.5312,-2.5011,-2.4614,-2.4097,-2.3613,-2.3168,-2.2811,-2.2787,-2.2702,-2.2498,-2.2486,-2.2402,-2.2197,-2.2197,-2.2197,-2.2197,-2.2197,-2.2197,-2.2228,-2.2671,-2.277,0.0,-0.6743,-0.7441,-0.745,-0.72,-0.6929,-0.6912,-0.6446,0.0,-0.598,-0.5886,-0.5847,-0.6021,-0.6556,-0.7044,-0.7255,-0.7675,0.0,0.0,0.0,0.0,0.0,0.0,0.0,0.0,0.0,0.0,0.0,0.0,0.0,-2.1696,-2.1696,-2.1696,-2.1696,-2.1696,-2.1696,-2.1696,-2.1696,-2.1696,-2.1696,-2.1696,-2.1696,-2.1696,-2.1696,-2.1696,0.0,-2.1696,-2.1696,-2.1776,-2.2633,-2.3052,-2.3183,-2.4059,-2.4563,-2.4755,-2.4573,-2.5179,-2.606,-2.6102,-2.6828,-2.7748,-2.8059,-2.8299,-2.851,-2.851,-2.851,-2.851,-2.851,-2.851,-2.851,-2.851,-2.769,-2.6898,-2.6898,-2.6057,-2.5312,-2.5312,-2.5312,-2.5312,-2.5312,-2.5312,-2.5312,-2.5312,-2.5312,-2.5312,-2.5312,-2.5312,-2.5312,-2.5312,-2.5312,-2.5312,-2.5312,-2.5312,-2.5107,-2.4614,-2.4109,-2.3842,-2.3806,-2.3806,-2.3589,-2.3095,-2.3035,-2.2782,-2.2258,-2.2209,-2.2197,-2.2197,-2.2197,-2.2209,-2.2246,-2.2209,-2.2498,-0.3972,0.0,-0.5901,-0.6103,-0.6192,-0.6189,0.0,-0.5998,0.0,0.0,0.0,-0.593,-0.6382,-0.6597,-0.7031,-0.8043,-0.8556,0.0,0.0,0.0,0.0,0.0,0.0,0.0,0.0,0.0,0.0,0.0,0.0,-2.1696,-2.1696,-2.1696,-2.1696,-2.1696,-2.1696,-2.1696,-2.1696,-2.1696,-2.1696,-2.1696,-2.1696,-2.1696,-2.1696,-2.1696,-2.1696,-2.1696,-2.1696,-2.1696,-2.1741,-2.1954,-2.2457,-2.3139,-2.3357,-2.392,-2.4573,-2.4531,-2.4669,-2.4914,-2.5062,-2.5442,-2.5997,-2.7092,-2.7926,-2.851,-2.851,-2.851,-2.851,-2.851,-2.851,-2.851,-2.851,-2.769,-2.6898,-2.6898,-2.6057,-2.5312,-2.5312,-2.5312,-2.5312,-2.5312,-2.5312,-2.5312,-2.5312,-2.5312,-2.5312,-2.5312,-2.5312,-2.5312,-2.5312,-2.5312,-2.5312,-2.5312,-2.5312,-2.5264,-2.5131,-2.4638,-2.4181,-2.383,-2.3806,-2.3746,-2.3625,-2.3228,-2.2919,-2.2799,-2.2402,-2.2197,-2.2197,-2.2197,-2.2402,-2.2787,-2.2378,-2.2722,-0.3205,-0.4061,-0.4956,-0.539,-0.5543,-0.5639,-0.5796,0.0,0.0,0.0,0.0,0.0,-0.6427,0.0,0.0,0.0,0.0,0.0,0.0,0.0,0.0,0.0,0.0,0.0,0.0,0.0,0.0,0.0,0.0,-2.1696,-2.1696,-2.1696,-2.1696,-2.1696,-2.1696,-2.1696,-2.1696,-2.1696,-2.1696,-2.1696,-2.1696,-2.1696,-2.1696,-2.1696,-2.1696,-2.1696,-2.1696,-2.1696,-2.1696,-2.1696,-2.1989,-2.2457,-2.2457,-2.2765,-2.3202,-2.3202,-2.3497,-2.3877,-2.3986,-2.4553,-2.5316,-2.6163,-2.6794,-2.7255,-2.7255,-2.7255,-2.7418,-2.8259,-2.851,-2.851,-2.851,-2.769,-2.6898,-2.6898,-2.6057,-2.5312,-2.5312,-2.5312,-2.5312,-2.5312,-2.5312,-2.5312,-2.5312,-2.5312,-2.5312,-2.5312,-2.5312,-2.5312,-2.5312,-2.5312,-2.5312,-2.5312,-2.5312,-2.5312,-2.5312,-2.5047,-2.4759,-2.4494,-2.4482,-2.4362,-2.4121,-2.3833,-2.358,-2.3372,-2.3095,-2.2919,-2.2919,-2.2919,-2.3095,-2.3372,-2.3083,-2.334,-0.2972,-0.3648,-0.4383,-0.5121,-0.5232,-0.5325,0.0,0.0,0.0,0.0,0.0,0.0,0.0,0.0,0.0,0.0,0.0,0.0,0.0,0.0,0.0,0.0,0.0,0.0,0.0,0.0,0.0,0.0,0.0,-2.1696,-2.1696,-2.1696,-2.1696,-2.1696,-2.1696,-2.1696,-2.1696,-2.1696,-2.1696,-2.1696,-2.1696,-2.1696,-2.1696,-2.1696,-2.1696,-2.1696,0.0,0.0,-2.1696,-2.1696,-2.1696,-2.1696,-2.1696,-2.1696,-2.1696,-2.1696,-2.2201,-2.2877,-2.2931,-2.3823,-2.4978,-2.5189,-2.5484,-2.5746,-2.5788,-2.5777,-2.611,-2.7846,-2.8239,-2.8219,-2.835,-2.7596,-2.6765,-2.6765,-2.6033,-2.5312,-2.5312,-2.5312,-2.5312,-2.5312,-2.5312,-2.5312,-2.5312,-2.5312,-2.5312,-2.5312,-2.5312,-2.5312,-2.5312,-2.5312,-2.5312,-2.5312,-2.5312,-2.5312,-2.5312,-2.5312,-2.5312,-2.5312,-2.5312,-2.5071,-2.4508,-2.4484,-2.4278,-2.3806,-2.3806,-2.3806,-2.3806,-2.3806,-2.3842,-2.3914,-2.3842,-2.4119,-0.2648,-0.3265,-0.4024,-0.5047,-0.5363,-0.5586,0.0,0.0,0.0,0.0,0.0,0.0,0.0,0.0,0.0,0.0,0.0,0.0,0.0,0.0,0.0,0.0,0.0,0.0,0.0,0.0,0.0,0.0,0.0,-2.1696,-2.1696,-2.1696,-2.1696,-2.1696,-2.1696,-2.1696,-2.1696,-2.1696,-2.1696,-2.1696,-2.1696,-2.1696,-2.1696,-2.1696,-2.1696,-2.1696,0.0,-2.1696,-2.1696,-2.1696,-2.1696,-2.1696,-2.1696,-2.1696,-2.1696,-2.1696,-2.1776,-2.1954,-2.2176,-2.2896,-2.3737,-2.4168,-2.4851,-2.5568,-2.5735,-2.5694,-2.583,-2.7051,-2.7076,-2.6872,-2.7642,-2.7043,-2.6226,-2.6226,-2.5757,-2.5312,-2.5312,-2.5312,-2.5312,-2.5312,-2.5312,-2.5312,-2.5312,-2.5312,-2.5312,-2.5312,-2.5312,-2.5312,-2.5312,-2.5312,-2.5312,-2.5312,-2.5312,-2.5312,-2.5312,-2.5312,-2.5312,-2.5312,-2.5312,-2.5071,-2.4508,-2.4484,-2.4278,-2.3806,-2.3806,-2.3806,-2.3806,-2.3806,-2.3989,-2.4398,-2.3998,-2.4278,-0.2395,-0.2872,-0.3558,-0.4731,-0.546,-0.6024,0.0,0.0,0.0,0.0,0.0,0.0,0.0,0.0,0.0,0.0,0.0,0.0,0.0,0.0,0.0,0.0,0.0,0.0,0.0,0.0,0.0,0.0,0.0,0.0,-2.1037,-2.1238,-2.1392,-2.1392,-2.1577,-2.1696,-2.1696,-2.1696,-2.1696,-2.1696,-2.1696,-2.1696,-2.1696,-2.1696,-2.1696,-2.1696,0.0,-2.1696,-2.1696,-2.1696,-2.1696,-2.1696,-2.1696,-2.1696,-2.1696,-2.1696,-2.1696,-2.1741,-2.183,-2.2255,-2.2731,-2.294,-2.3367,-2.3833,-2.392,-2.392,-2.4049,-2.5062,-2.5956,-2.68,-2.7505,-2.714,-2.6466,-2.6166,-2.5697,-2.5312,-2.5312,-2.5312,-2.5312,-2.5312,-2.5312,-2.5312,-2.5312,-2.5312,-2.5312,-2.5312,-2.5312,-2.5312,-2.5312,-2.5312,-2.5312,-2.5312,-2.5312,-2.5276,-2.5218,-2.5182,-2.5206,-2.5312,-2.5312,-2.5204,-2.4951,-2.4939,-2.4843,-2.4602,-2.4602,-2.4602,-2.4602,-2.4602,-2.4723,-2.4939,-2.4711,-2.4855,-0.2254,-0.2682,-0.3309,-0.4364,0.0,0.0,0.0,0.0,0.0,0.0,0.0,0.0,0.0,0.0,0.0,0.0,0.0,0.0,0.0,0.0,0.0,0.0,0.0,0.0,0.0,0.0,0.0,0.0,0.0,0.0,-2.0521,-2.0805,-2.097,-2.097,-2.1238,-2.1403,-2.1403,-2.1403,-2.1458,-2.1549,-2.1549,-2.1495,-2.1403,-2.1403,-2.1458,-2.1549,-2.1549,-2.1604,-2.1696,-2.1696,-2.1696,-2.1696,-2.1696,-2.1696,-2.1696,-2.1696,-2.1696,-2.1696,-2.1696,-2.183,-2.2008,-2.2097,-2.2185,-2.2353,-2.2397,-2.2353,-2.252,-2.3541,-2.4809,-2.608,-2.7034,-2.6957,-2.656,-2.6202,-2.5697,-2.5312,-2.5312,-2.5312,-2.5312,-2.5312,-2.5312,-2.5312,-2.5312,-2.5312,-2.5312,-2.5312,-2.5312,-2.5276,-2.5276,-2.5241,-2.5241,-2.5182,-2.5182,-2.5147,-2.5052,-2.5016,-2.5087,-2.5182,-2.5182,-2.5218,-2.5241,-2.5241,-2.5276,-2.5312,-2.5312,-2.5312,-2.5312,-2.5312,-2.5312,-2.5312,-2.5276,-2.5241,-0.2303,-0.2955,-0.3655,-0.4041,0.0,0.0,0.0,0.0,0.0,0.0,0.0,0.0,0.0,0.0,0.0,0.0,0.0,0.0,0.0,0.0,0.0,0.0,0.0,0.0,0.0,0.0,0.0,0.0,0.0,0.0,-2.0479,-2.0549,-2.0558,-2.0558,-2.0552,-2.0613,-2.0613,-2.0613,-2.0787,-2.1154,-2.1154,-2.0961,-2.0613,-2.0613,-2.0805,-2.1154,-2.1154,-2.1374,-2.1696,-2.1696,-2.1696,-2.1696,-2.1696,-2.1696,-2.1696,-2.1696,-2.1696,-2.1696,-2.1696,-2.1687,-2.1785,-2.2008,-2.2097,-2.2141,-2.2353,-2.2264,-2.2353,-2.3497,-2.3478,-2.3545,-2.5583,-2.6012,-2.5921,-2.6069,-2.5697,-2.5312,-2.5312,-2.5312,-2.5312,-2.5312,-2.5312,-2.5312,-2.5312,-2.5312,-2.5312,-2.5312,-2.5312,-2.5276,-2.5111,-2.5111,-2.5052,-2.4861,-2.4825,-2.4825,-2.4825,-2.4825,-2.4825,-2.4825,-2.4825,-2.4921,-2.5111,-2.5111,-2.5182,-2.5312,-2.5312,-2.5312,-2.5312,-2.5312,-2.5312,-2.5312,-2.5182,-2.5111,-0.2109,-0.3008,-0.3905,-0.3849,0.0,0.0,0.0,0.0,0.0,0.0,0.0,0.0,0.0,0.0,0.0,0.0,0.0,0.0,0.0,0.0,0.0,0.0,0.0,0.0,0.0,0.0,0.0,0.0,0.0,0.0,-1.938,-1.9605,-1.9814,-1.9929,-2.0183,-2.0352,-2.0521,-2.0521,-2.0466,-2.0383,-2.0622,-2.0668,-2.0521,-2.0521,-2.0594,-2.0741,-2.0741,-2.079,-2.0936,-2.0936,-2.0936,-2.0936,-2.0936,-2.1126,-2.1346,-2.1346,-2.1511,-2.165,-2.1394,-2.1346,-2.13,-2.1148,-2.1108,-2.1108,-2.1194,-2.1151,-2.1194,-2.1646,-2.2298,-2.314,-2.4446,-2.5066,-2.5286,-2.4935,-2.5155,-2.5396,-2.5313,-2.5241,-2.5218,-2.5276,-2.5312,-2.5312,-2.5312,-2.5312,-2.5312,-2.5312,-2.5241,-2.5147,-2.5111,-2.4992,-2.4897,-2.479,-2.4682,-2.461,-2.461,-2.449,-2.4418,-2.4418,-2.4646,-2.4897,-2.5087,-2.5123,-2.5147,-2.5312,-2.5312,-2.5312,-2.5312,-2.5312,-2.5276,-2.5182,-2.5111,-2.5016,-0.205,-0.2893,-0.3789,0.0,0.0,0.0,0.0,0.0,0.0,0.0,0.0,0.0,0.0,0.0,0.0,0.0,0.0,0.0,0.0,0.0,0.0,0.0,0.0,0.0,0.0,0.0,0.0,0.0,0.0,0.0,0.0,-1.8949,-1.9163,-1.9317,-1.9628,-1.9897,-2.0021,-2.0095,-1.9998,-1.9692,-2.0008,-2.0136,-2.0136,-2.0136,-2.0209,-2.0287,-2.0287,-2.036,-2.0521,-2.0521,-2.0521,-2.0521,-2.0521,-2.0686,-2.0924,-2.0924,-2.1055,-2.1266,-2.1016,-2.0924,-2.0879,-2.0604,-2.0521,-2.0521,-2.0521,-2.0521,-2.0521,-2.0521,-2.1212,-2.2085,-2.2655,-2.3795,-2.4659,-2.41,-2.4277,-2.4593,-2.4574,-2.4612,-2.4731,-2.4898,-2.5123,-2.5312,-2.5312,-2.5276,-2.5241,-2.5241,-2.5123,-2.4981,-2.4909,-2.4778,-2.4682,-2.461,-2.4502,-2.4418,-2.4418,-2.4273,-2.42,-2.42,-2.4454,-2.4706,-2.4909,-2.4909,-2.4969,-2.5147,-2.5147,-2.5147,-2.5147,-2.5147,-2.5087,-2.4981,-2.4945,-2.4849,-0.2197,-0.26,0.0,0.0,0.0,0.0,0.0,0.0,0.0,0.0,0.0,0.0,0.0,0.0,0.0,0.0,0.0,0.0,0.0,0.0,0.0,0.0,0.0,0.0,0.0,0.0,0.0,0.0,0.0,0.0,0.0,-1.87,-1.87,-1.87,-1.8882,-1.9002,-1.9002,-1.9192,-1.9301,-1.9301,-1.9301,-1.9301,-1.9301,-1.9301,-1.9531,-1.9884,-1.9884,-2.0104,-2.0512,-2.0512,-2.0512,-2.0512,-2.0512,-2.0512,-2.047,-2.047,-2.0512,-2.0521,-2.0512,-2.047,-2.047,-2.0512,-2.0512,-2.0512,-2.0512,-2.0512,-2.0512,-2.0512,-2.0186,-1.9966,-2.0161,-2.2141,-2.3993,-2.3755,-2.3123,-2.2675,-2.2947,-2.3415,-2.3854,-2.4036,-2.4743,-2.5276,-2.5264,-2.517,-2.5087,-2.5123,-2.4921,-2.4718,-2.4526,-2.449,-2.4418,-2.4236,-2.42,-2.42,-2.42,-2.42,-2.42,-2.42,-2.42,-2.4309,-2.4502,-2.449,-2.461,-2.479,-2.479,-2.479,-2.479,-2.479,-2.479,-2.479,-2.461,-2.449,-0.2216,0.0,0.0,0.0,0.0,0.0,0.0,0.0,0.0,0.0,0.0,0.0,0.0,0.0,0.0,0.0,0.0,0.0,0.0,0.0,0.0,0.0,0.0,0.0,0.0,0.0,0.0,0.0,0.0,0.0,0.0,-1.8201,-1.8371,-1.87,-1.8772,-1.8922,-1.9222,-1.9262,-1.9301,-1.9301,-1.9301,-1.9301,-1.9301,-1.9301,-1.9366,-1.9494,-1.9494,-1.9558,-1.9659,-1.9659,-1.9659,-1.9659,-1.9659,-1.9842,-2.0067,-2.0067,-2.0283,-2.0484,-2.0159,-2.0067,-2.0012,-1.976,-1.9659,-1.9659,-1.9659,-1.9659,-1.9659,-1.9659,-1.9909,-2.0114,-1.9857,-2.0715,-2.167,-2.1814,-2.2202,-2.2524,-2.2526,-2.2515,-2.259,-2.2776,-2.3036,-2.3368,-2.3927,-2.4011,-2.4168,-2.4814,-2.4718,-2.4538,-2.4309,-2.4309,-2.4273,-2.42,-2.42,-2.42,-2.42,-2.42,-2.42,-2.42,-2.42,-2.4309,-2.4502,-2.449,-2.461,-2.479,-2.479,-2.479,-2.479,-2.479,-2.479,-2.479,-2.461,-2.449,-0.2524,0.0,0.0,0.0,0.0,0.0,0.0,0.0,0.0,0.0,0.0,0.0,0.0,0.0,0.0,0.0,0.0,0.0,0.0,0.0,0.0,0.0,0.0,0.0,0.0,0.0,0.0,0.0,0.0,0.0,0.0,-1.8,-1.8121,-1.8411,-1.8531,-1.8683,-1.8944,-1.9033,-1.9112,-1.9192,-1.9112,-1.9112,-1.9192,-1.9262,-1.9301,-1.9301,-1.9301,-1.9301,-1.9301,-1.9301,-1.9301,-1.9301,-1.9301,-1.9457,-1.9677,-1.9677,-1.9833,-1.9998,-1.9769,-1.9677,-1.9641,-1.9384,-1.9301,-1.9301,-1.9301,-1.9301,-1.9301,-1.9301,-1.9605,-1.9833,-1.9543,-1.9773,-2.0165,-2.0528,-2.0967,-2.137,-2.1349,-2.1431,-2.1583,-2.1762,-2.2065,-2.244,-2.2925,-2.2962,-2.3084,-2.3596,-2.3813,-2.3861,-2.3751,-2.4007,-2.42,-2.42,-2.42,-2.42,-2.42,-2.42,-2.42,-2.42,-2.42,-2.4261,-2.4381,-2.4381,-2.4454,-2.4574,-2.4574,-2.4574,-2.4574,-2.4574,-2.4574,-2.4574,-2.4454,-2.4381,0.0,0.0,0.0,0.0,0.0,0.0,0.0,0.0,0.0,0.0,0.0,0.0,0.0,0.0,0.0,0.0,0.0,0.0,0.0,0.0,0.0,0.0,0.0,0.0,0.0,0.0,0.0,0.0,0.0,0.0,-1.8,-1.8,-1.7951,-1.7919,-1.8233,-1.8313,-1.8184,-1.8442,-1.8643,-1.8705,-1.8563,-1.8563,-1.8745,-1.9103,-1.9262,-1.9301,-1.9262,-1.9262,-1.9301,-1.9301,-1.9301,-1.9301,-1.9301,-1.9301,-1.9301,-1.9301,-1.9301,-1.9301,-1.9301,-1.9301,-1.9301,-1.9301,-1.9301,-1.9301,-1.9301,-1.9301,-1.9301,-1.9301,-1.9301,-1.9301,-1.9301,-1.9301,-1.9381,-1.9745,-1.9715,-1.9636,-1.9824,-2.0274,-2.0721,-2.0904,-2.1545,-2.2065,-2.2103,-2.1989,-2.1876,-2.1962,-2.2558,-2.3001,-2.3001,-2.3703,-2.42,-2.42,-2.42,-2.42,-2.42,-2.42,-2.42,-2.42,-2.42,-2.42,-2.42,-2.42,-2.42,-2.42,-2.42,-2.42,-2.42,-2.4127,-2.4152,-2.4236,-2.4116,-2.4152,0.0,0.0,0.0,0.0,0.0,0.0,0.0,0.0,0.0,0.0,0.0,0.0,0.0,0.0,0.0,0.0,0.0,0.0,0.0,0.0,0.0,0.0,0.0,0.0,0.0,0.0,0.0,0.0,0.0,0.0,-1.8,-1.8,-1.7749,-1.7245,-1.7991,-1.7804,-1.6544,-1.731,-1.735,-1.6626,-1.6585,-1.6585,-1.6707,-1.8327,-1.9152,-1.9301,-1.9112,-1.9152,-1.9301,-1.9301,-1.9301,-1.9301,-1.9301,-1.9301,-1.9301,-1.9301,-1.9301,-1.9301,-1.9301,-1.9301,-1.9301,-1.9301,-1.9301,-1.9301,-1.9301,-1.9301,-1.9301,-1.9301,-1.9301,-1.9301,-1.9301,-1.9301,-1.9301,-1.942,-1.939,-1.9381,-1.942,-1.9539,-1.9648,-1.9687,-1.9835,-2.0138,-2.076,-2.0837,-2.1068,-2.1756,-2.2494,-2.3001,-2.3001,-2.3703,-2.42,-2.42,-2.42,-2.42,-2.42,-2.42,-2.42,-2.42,-2.42,-2.42,-2.42,-2.42,-2.42,-2.42,-2.42,-2.42,-2.42,-2.3556,-2.3677,-2.4418,-2.3641,-2.3677,0.0,0.0,0.0,0.0,0.0,0.0,0.0,0.0,0.0,0.0,0.0,0.0,0.0,0.0,0.0,0.0,0.0,0.0,0.0,0.0,0.0,0.0,0.0,0.0,0.0,0.0,0.0,0.0,0.0,-1.672,-1.6404,-1.6365,-1.6206,-1.584,-1.6317,-1.6198,-1.5338,-1.6357,-1.6686,-1.63,-1.6589,-1.6758,-1.6894,-1.747,-1.8037,-1.8519,-1.8536,-1.8816,-1.9301,-1.9301,-1.9301,-1.9301,-1.9301,-1.9301,-1.9301,-1.9301,-1.9301,-1.9301,-1.9301,-1.9301,-1.9301,-1.9301,-1.9301,-1.9301,-1.9301,-1.9301,-1.9301,-1.9301,-1.9301,-1.9301,-1.9301,-1.9301,-1.9301,-1.9301,-1.9301,-1.9301,-1.9301,-1.9301,-1.9301,-1.9301,-1.9301,-1.9411,-1.9844,-2.0226,-2.0653,-2.1116,-2.2231,-2.3001,-2.3001,-2.3703,-2.42,-2.42,-2.42,-2.42,-2.42,-2.3861,-2.3787,-2.4164,-2.3471,-2.3213,-2.3593,-2.325,-2.325,-2.3641,-2.3641,-2.3446,-2.3054,-2.2644,-2.2681,-2.3202,-2.2681,-2.2916,0.0,0.0,0.0,0.0,0.0,0.0,0.0,0.0,0.0,0.0,0.0,0.0,0.0,0.0,0.0,0.0,0.0,0.0,0.0,0.0,0.0,0.0,0.0,0.0,0.0,0.0,0.0,0.0,0.0,-1.5258,-1.4647,-1.4608,-1.453,-1.4382,-1.453,-1.4452,-1.4141,-1.5238,-1.5771,-1.5787,-1.6284,-1.6647,-1.6839,-1.6104,-1.6545,-1.7876,-1.8046,-1.8536,-1.9192,-1.9222,-1.9262,-1.9262,-1.9301,-1.9301,-1.9301,-1.9301,-1.9301,-1.9301,-1.9301,-1.9301,-1.9301,-1.9301,-1.9301,-1.9301,-1.9301,-1.9301,-1.9301,-1.9301,-1.9301,-1.9301,-1.9301,-1.9301,-1.9301,-1.9301,-1.9301,-1.9301,-1.9301,-1.9301,-1.9301,-1.9301,-1.9301,-1.9301,-1.9301,-1.9844,-2.0304,-2.0304,-2.1576,-2.258,-2.258,-2.3287,-2.3776,-2.3776,-2.3776,-2.3776,-2.3776,-2.3187,-2.3065,-2.374,-2.2521,-2.2107,-2.2767,-2.2145,-2.2031,-2.258,-2.2729,-2.2456,-2.1794,-2.1642,-2.1642,-2.1794,-2.1642,-2.1993,0.0,0.0,0.0,0.0,0.0,0.0,0.0,0.0,0.0,0.0,0.0,0.0,0.0,0.0,0.0,0.0,0.0,0.0,0.0,0.0,0.0,0.0,0.0,0.0,0.0,0.0,0.0,0.0,-1.4686,-1.4686,-1.4608,-1.4608,-1.4265,-1.3502,-1.4226,-1.3835,-1.2273,-1.322,-1.3319,-1.2523,-1.2603,-1.2764,-1.3041,-1.3168,-1.5157,-1.8571,-1.8612,-1.8652,-1.8772,-1.8962,-1.9033,-1.9073,-1.9231,-1.9301,-1.9301,-1.9301,-1.9301,-1.9301,-1.9301,-1.9301,-1.9301,-1.9301,-1.9301,-1.9301,-1.9301,-1.9301,-1.9301,-1.9301,-1.9301,-1.9301,-1.9301,-1.9301,-1.9301,-1.9301,-1.9301,-1.9301,-1.9301,-1.9301,-1.9301,-1.9301,-1.9301,-1.9301,-1.9301,-1.9381,-1.946,-1.946,-2.0226,-2.0847,-2.0847,-2.1603,-2.2107,-2.2107,-2.2107,-2.2107,-2.2107,-2.2031,-2.1993,-2.2096,-2.1918,-2.1842,-2.1956,-2.188,-2.1499,-2.0847,-2.1576,-2.1918,-2.1794,-2.1039,-2.1068,-2.1794,-2.1039,-2.1155,0.0,0.0,0.0,0.0,0.0,0.0,0.0,0.0,0.0,0.0,0.0,0.0,0.0,0.0,0.0,0.0,0.0,0.0,0.0,0.0,0.0,0.0,0.0,0.0,0.0,0.0,0.0,0.0,-1.3051,-1.3127,-1.2665,-1.2634,-1.2444,-1.2075,-1.2444,-1.2253,-1.1467,-1.2537,-1.3088,-1.3088,-1.3328,-1.3343,-1.3284,-1.3863,-1.495,-1.6322,-1.6404,-1.7025,-1.7983,-1.8063,-1.8385,-1.8851,-1.8922,-1.9042,-1.9112,-1.9112,-1.9183,-1.9301,-1.9301,-1.9301,-1.9301,-1.9301,-1.9301,-1.9301,-1.9301,-1.9301,-1.9301,-1.9301,-1.9301,-1.9301,-1.9301,-1.9301,-1.9301,-1.9301,-1.9301,-1.9301,-1.9301,-1.9301,-1.9301,-1.9301,-1.9301,-1.9301,-1.9301,-1.9687,-1.9962,-1.9962,-2.0869,-2.1576,-2.1576,-2.1888,-2.2159,-2.2159,-2.1921,-2.1794,-2.1794,-2.1346,-2.126,-2.1766,-2.0914,-2.0605,-2.1039,-2.0644,-2.0226,-1.9844,-2.0653,-2.0847,-2.0421,-1.9991,-2.0031,-2.0382,-1.9991,-2.0265,0.0,0.0,0.0,0.0,0.0,0.0,0.0,0.0,0.0,0.0,0.0,0.0,0.0,0.0,0.0,0.0,0.0,0.0,0.0,0.0,0.0,0.0,0.0,0.0,0.0,0.0,0.0,0.0,-1.1669,-1.1744,-1.1149,-1.1111,-1.1111,-1.1111,-1.1111,-1.1111,-1.1111,-1.1979,-1.2725,-1.3259,-1.356,-1.3596,-1.34,-1.4045,-1.414,-1.3821,-1.4594,-1.5703,-1.6911,-1.6944,-1.7359,-1.7991,-1.8282,-1.8474,-1.8705,-1.8913,-1.9112,-1.9301,-1.9301,-1.9301,-1.9301,-1.9301,-1.9301,-1.9301,-1.9301,-1.9301,-1.9301,-1.9301,-1.9301,-1.9301,-1.9301,-1.9301,-1.9301,-1.9301,-1.9301,-1.9301,-1.9301,-1.9301,-1.9301,-1.9301,-1.9301,-1.9301,-1.9301,-1.9805,-2.0235,-2.034,-2.1145,-2.18,-2.191,-2.192,-2.192,-2.192,-2.1648,-2.1436,-2.1326,-2.0703,-2.0576,-2.1116,-1.9991,-1.9569,-2.0148,-1.9608,-1.9301,-1.9301,-1.9883,-1.9883,-1.9301,-1.9301,-1.9301,-1.9301,-1.9301,-1.9608,0.0,0.0,0.0,0.0,0.0,0.0,0.0,0.0,0.0,0.0,0.0,0.0,0.0,0.0,0.0,0.0,0.0,0.0,0.0,0.0,0.0,0.0,0.0,0.0,0.0,0.0,0.0,0.0,-1.1149,-1.1149,-1.1111,-1.1111,-1.1111,-1.1111,-1.1111,-1.1111,-1.1111,-1.1161,-1.1204,-1.1241,-1.1254,-1.14,-1.1644,-1.1674,-1.1827,-1.2187,-1.457,-1.5587,-1.5519,-1.5711,-1.582,-1.5944,-1.7066,-1.7594,-1.7868,-1.8705,-1.9112,-1.9301,-1.9301,-1.9301,-1.9301,-1.9301,-1.9301,-1.9301,-1.9301,-1.9301,-1.9301,-1.9301,-1.9301,-1.9301,-1.9301,-1.9301,-1.9301,-1.9301,-1.9301,-1.9301,-1.9301,-1.9301,-1.9301,-1.9301,-1.9301,-1.9301,-1.9301,-1.9341,-1.947,-1.9874,-1.9997,-2.0186,-2.0564,-2.061,-2.061,-2.061,-2.0592,-2.0426,-2.0048,-1.9979,-1.9804,-1.9439,-1.9341,-1.9301,-1.9381,-1.9301,-1.9301,-1.9301,-1.9341,-1.9341,-1.9301,-1.9301,-1.9301,-1.9301,-1.9301,-1.9301,0.0,0.0,0.0,0.0,0.0,0.0,0.0,0.0,0.0,0.0,0.0,0.0,0.0,0.0,0.0,0.0,0.0,0.0,0.0,0.0,0.0,0.0,0.0,0.0,0.0,0.0,0.0,0.0,0.0,-1.0962,-1.1074,-1.1111,-1.1111,-1.1111,-1.1111,-1.1111,-1.1111,-1.1111,-1.1111,-1.1111,-1.1111,-1.1166,-1.1268,-1.1411,-1.1543,-1.1691,-1.28,-1.3675,-1.431,-1.4385,-1.4826,-1.5553,-1.5966,-1.6329,-1.665,-1.6944,-1.731,-1.7715,-1.8278,-1.8487,-1.8567,-1.9134,-1.9301,-1.9301,-1.9301,-1.9301,-1.9301,-1.9301,-1.9301,-1.9301,-1.9301,-1.9301,-1.9301,-1.9301,-1.9301,-1.9301,-1.9301,-1.9301,-1.9301,-1.9301,-1.9301,-1.9301,-1.9301,-1.9301,-1.9439,-1.9829,-2.0104,-2.0448,-2.0842,-2.0897,-2.0897,-2.0897,-2.0397,-2.0049,-1.9902,-1.9646,-1.9467,-1.9311,-1.9301,-1.9301,-1.9301,-1.9301,-1.9301,-1.9301,-1.9301,-1.9301,-1.9301,-1.9301,-1.9301,-1.9301,-1.9301,-1.9301,0.0,0.0,0.0,0.0,0.0,0.0,0.0,0.0,0.0,0.0,0.0,0.0,0.0,0.0,0.0,0.0,0.0,0.0,0.0,0.0,0.0,0.0,0.0,0.0,0.0,0.0,0.0,0.0,0.0,0.0,-1.0887,-1.0962,-1.1037,-1.1111,-1.1111,-1.1111,-1.1111,-1.1111,-1.1111,-1.1111,-1.1111,-1.1111,-1.1117,-1.1266,-1.1351,-1.1363,-1.1537,-1.2205,-1.3082,-1.3173,-1.3693,-1.4414,-1.4768,-1.5171,-1.5621,-1.5869,-1.6288,-1.678,-1.7342,-1.7553,-1.7674,-1.8238,-1.8447,-1.8447,-1.8447,-1.8647,-1.8856,-1.8856,-1.9054,-1.9301,-1.9301,-1.9301,-1.9301,-1.9301,-1.9301,-1.9301,-1.9301,-1.9301,-1.9301,-1.9301,-1.9301,-1.9301,-1.9301,-1.9301,-1.9439,-1.9829,-2.0223,-2.0668,-2.1062,-2.1236,-2.1319,-2.1319,-2.0723,-2.0232,-2.0095,-1.9751,-1.9448,-1.9311,-1.9301,-1.9301,-1.9301,-1.9301,-1.9301,-1.9301,-1.9301,-1.9301,-1.9301,-1.9301,-1.9301,-1.9301,-1.9301,-1.9301,0.0,0.0,0.0,0.0,0.0,0.0,0.0,0.0,0.0,0.0,0.0,0.0,0.0,0.0,0.0,0.0,0.0,0.0,0.0,0.0,0.0,0.0,0.0,0.0,0.0,0.0,0.0,0.0,-1.0464,-1.047,-1.0501,-1.0663,-1.0887,-1.1074,-1.1074,-1.1074,-1.1111,-1.1111,-1.1111,-1.1111,-1.1111,-1.1111,-1.1111,-1.1111,-1.1111,-1.1111,-1.1111,-1.1413,-1.192,-1.2186,-1.23,-1.2419,-1.3503,-1.4238,-1.4747,-1.5621,-1.6206,-1.6617,-1.6657,-1.6657,-1.6657,-1.6698,-1.6698,-1.6698,-1.6698,-1.731,-1.7957,-1.7957,-1.8567,-1.9222,-1.9222,-1.9222,-1.9262,-1.9262,-1.9262,-1.9301,-1.9301,-1.9301,-1.9301,-1.9301,-1.9301,-1.9301,-1.9301,-1.9301,-1.9439,-1.9829,-2.0214,-2.064,-2.1034,-2.1403,-2.165,-2.165,-2.1319,-2.0924,-2.0539,-2.0095,-1.9742,-1.9329,-1.9301,-1.9301,-1.9301,-1.9301,-1.9301,-1.9301,-1.9301,-1.9301,-1.9301,-1.9301,-1.9301,-1.9301,-1.9301,-1.9301,-0.0816,0.0,0.0,0.0,0.0,0.0,0.0,0.0,0.0,0.0,0.0,0.0,0.0,0.0,0.0,0.0,0.0,0.0,0.0,0.0,0.0,0.0,0.0,0.0,0.0,0.0,0.0,0.0,-0.9941,-1.0146,-1.0292,-1.0459,-1.0663,-1.0887,-1.0887,-1.0962,-1.1111,-1.1111,-1.1111,-1.1111,-1.1111,-1.1111,-1.1111,-1.1111,-1.1111,-1.1111,-1.1111,-1.1196,-1.1359,-1.1591,-1.1928,-1.2318,-1.264,-1.3165,-1.3802,-1.4013,-1.444,-1.4908,-1.5553,-1.576,-1.5842,-1.6494,-1.6698,-1.6698,-1.6698,-1.6862,-1.7058,-1.7058,-1.722,-1.7432,-1.7432,-1.7876,-1.8359,-1.8359,-1.8856,-1.9301,-1.9301,-1.9301,-1.9301,-1.9301,-1.9301,-1.9301,-1.9301,-1.9301,-1.9439,-1.9829,-1.9976,-2.0195,-2.0631,-2.0744,-2.0817,-2.0817,-2.0451,-2.0177,-2.0058,-1.9714,-1.943,-1.9311,-1.9301,-1.9301,-1.9301,-1.9301,-1.9301,-1.9301,-1.9301,-1.9301,-1.9301,-1.9301,-1.9301,-1.9301,-1.9301,-1.9301,0.0,0.0,0.0,0.0,0.0,0.0,0.0,-0.2516,0.0,0.0,0.0,0.0,0.0,0.0,0.0,0.0,0.0,0.0,0.0,0.0,0.0,0.0,0.0,0.0,0.0,-0.9335,-0.9403,-0.9368,-0.9518,-0.9708,-0.9892,-1.0027,-1.0219,-1.0543,-1.0549,-1.067,-1.0962,-1.0962,-1.1037,-1.1111,-1.1111,-1.1111,-1.1111,-1.1111,-1.1111,-1.1111,-1.1111,-1.1111,-1.1123,-1.1248,-1.1567,-1.2011,-1.2228,-1.2617,-1.3113,-1.3226,-1.3568,-1.3997,-1.4524,-1.4692,-1.4768,-1.5394,-1.547,-1.5338,-1.5421,-1.5621,-1.5869,-1.5951,-1.6322,-1.6698,-1.6698,-1.7066,-1.7472,-1.7472,-1.7836,-1.8318,-1.8687,-1.8767,-1.8856,-1.9222,-1.9301,-1.9301,-1.9301,-1.9301,-1.9384,-1.9591,-1.9774,-1.9976,-2.0204,-2.042,-2.0521,-2.0521,-2.0122,-1.9893,-1.9893,-1.954,-1.9301,-1.9301,-1.9301,-1.9301,-1.9301,-1.9301,-1.9301,-1.9301,-1.9301,-1.9301,-1.9301,-1.9301,-1.9301,-1.9301,-1.9301,-1.9301,0.0,-0.0927,0.0,0.0,0.0,0.0,-0.2388,-0.2327,-0.2413,0.0,0.0,0.0,0.0,0.0,0.0,0.0,0.0,0.0,0.0,0.0,0.0,0.0,0.0,0.0,-0.9125,-0.9152,-0.9157,-0.913,-0.9152,-0.9243,-0.9429,-0.9456,-0.9673,-1.0107,-1.0113,-1.03,-1.0734,-1.0734,-1.082,-1.1037,-1.1074,-1.1074,-1.1074,-1.1074,-1.1111,-1.1111,-1.1111,-1.1111,-1.1111,-1.1111,-1.1274,-1.1537,-1.2,-1.2429,-1.2727,-1.2964,-1.3324,-1.3652,-1.3652,-1.3652,-1.3695,-1.3955,-1.3737,-1.344,-1.361,-1.4097,-1.4622,-1.4838,-1.5628,-1.6412,-1.6412,-1.6494,-1.6576,-1.6576,-1.6617,-1.6903,-1.7674,-1.7876,-1.8078,-1.8856,-1.9183,-1.9301,-1.9301,-1.9301,-1.9301,-1.9301,-1.9622,-1.982,-1.982,-2.0163,-2.0383,-2.0383,-2.0031,-1.982,-1.982,-1.9522,-1.9301,-1.9301,-1.9301,-1.9301,-1.9301,-1.9301,-1.9301,-1.9301,-1.9301,-1.9301,-1.9301,-1.9301,-1.9301,-1.9301,-1.9301,-1.9301,0.0397,-0.0225,-0.0872,-0.0784,0.0,0.0,-0.1724,-0.1974,-0.2244,0.0,0.0,0.0,0.0,0.0,0.0,0.0,0.0,0.0,0.0,0.0,0.0,0.0,0.0,0.0,-0.8585,-0.8818,-0.8851,-0.8662,-0.8824,-0.8965,-0.8999,-0.9178,-0.9379,-0.9645,-0.9645,-0.9869,-1.0294,-1.0331,-1.0435,-1.0625,-1.0775,-1.085,-1.085,-1.1037,-1.1111,-1.1111,-1.1111,-1.1111,-1.1111,-1.1111,-1.1274,-1.1501,-1.1609,-1.2064,-1.2702,-1.2752,-1.3075,-1.3483,-1.3483,-1.3483,-1.3483,-1.3525,-1.3483,-1.3398,-1.3434,-1.3646,-1.3942,-1.4201,-1.4454,-1.4622,-1.4622,-1.511,-1.5636,-1.5636,-1.6214,-1.6739,-1.6903,-1.6935,-1.6984,-1.718,-1.8318,-1.9301,-1.9301,-1.9301,-1.9301,-1.9301,-1.9366,-1.9421,-1.9421,-1.9494,-1.954,-1.954,-1.9467,-1.9421,-1.9421,-1.9347,-1.9301,-1.9301,-1.9301,-1.9301,-1.9301,-1.9301,-1.9301,-1.9301,-1.9301,-1.9301,-1.9301,-1.9301,-1.9301,-1.9301,-1.9301,-1.9301,0.0693,0.0174,-0.0326,-0.0172,0.0,0.0,0.0,-0.1455,-0.1815,-0.2005,0.0,0.0,0.0,0.0,0.0,0.0,0.0,0.0,0.0,0.0,0.0,0.0,0.0,0.0,-0.7227,-0.7427,-0.7517,-0.7456,-0.7584,-0.7641,-0.7641,-0.7735,-0.7913,-0.8137,-0.8137,-0.8554,-0.9348,-0.9353,-0.9688,-1.0336,-1.0446,-1.0621,-1.0812,-1.0887,-1.0999,-1.1111,-1.1111,-1.1111,-1.1111,-1.1111,-1.1196,-1.1297,-1.1441,-1.173,-1.2117,-1.2386,-1.2736,-1.3082,-1.322,-1.3264,-1.3264,-1.3355,-1.3222,-1.3094,-1.3222,-1.3313,-1.344,-1.3695,-1.3828,-1.3913,-1.4088,-1.4328,-1.4608,-1.4699,-1.4894,-1.5213,-1.5745,-1.5786,-1.582,-1.6273,-1.7082,-1.7859,-1.8527,-1.9015,-1.9301,-1.9301,-1.9301,-1.9301,-1.9301,-1.9301,-1.9301,-1.9301,-1.9301,-1.9262,-1.9152,-1.9222,-1.9262,-1.9152,-1.8856,-1.8647,-1.8647,-1.8238,-1.7997,-1.7997,-1.7997,-1.7997,-1.7997,-1.7997,-1.8247,-1.8647,-1.8207,-1.7997,0.0,0.0,0.0,0.0,0.0,-0.0709,0.0,0.0,0.0,-0.1603,0.0,0.0,0.0,0.0,0.0,0.0,0.0,0.0,0.0,0.0,0.0,0.0,0.0,0.0,-0.5911,-0.6015,-0.6131,-0.6282,-0.6294,-0.631,-0.6343,-0.6379,-0.6502,-0.6725,-0.6729,-0.719,-0.8159,-0.8159,-0.8679,-0.9634,-0.9712,-0.9943,-1.0282,-1.0357,-1.0475,-1.0657,-1.0812,-1.085,-1.085,-1.085,-1.0962,-1.1135,-1.1321,-1.1441,-1.1543,-1.2005,-1.232,-1.257,-1.2842,-1.2935,-1.2983,-1.3209,-1.3003,-1.2747,-1.3009,-1.3094,-1.3143,-1.3355,-1.3525,-1.3695,-1.3913,-1.3786,-1.3695,-1.3913,-1.3695,-1.3646,-1.451,-1.4545,-1.4664,-1.535,-1.564,-1.6175,-1.7464,-1.8238,-1.8687,-1.8727,-1.8727,-1.8727,-1.8678,-1.8727,-1.8767,-1.8767,-1.8727,-1.8687,-1.8505,-1.8656,-1.8656,-1.8505,-1.8046,-1.7755,-1.7755,-1.7066,-1.6698,-1.6698,-1.6698,-1.6698,-1.6698,-1.6535,-1.6903,-1.7715,-1.7025,-1.6698,0.0,0.0,0.0,0.0,0.0524,0.0,0.0,0.0,-0.1058,-0.0798,0.0,0.0,0.0,0.0,0.0,0.0,0.0,0.0,0.0,0.0,0.0,0.0,0.0,0.0,0.0,-0.5595,-0.5667,-0.5852,-0.5925,-0.6029,-0.6211,-0.6343,-0.6408,-0.6428,-0.6432,-0.6618,-0.6984,-0.6984,-0.7192,-0.7651,-0.7974,-0.8263,-0.8423,-0.8775,-0.8965,-0.9003,-0.9728,-1.003,-1.003,-1.003,-1.0475,-1.1111,-1.1148,-1.1273,-1.1501,-1.1561,-1.1769,-1.2045,-1.2311,-1.2396,-1.2438,-1.2675,-1.2747,-1.2747,-1.3009,-1.3094,-1.3143,-1.3355,-1.3434,-1.344,-1.3483,-1.3483,-1.344,-1.3483,-1.344,-1.344,-1.3561,-1.3561,-1.3561,-1.3682,-1.4336,-1.524,-1.6396,-1.6462,-1.6462,-1.6683,-1.6723,-1.6634,-1.6413,-1.6723,-1.6935,-1.6764,-1.6723,-1.6723,-1.6683,-1.6723,-1.6723,-1.6683,-1.6772,-1.6862,-1.6862,-1.6739,-1.6698,-1.6698,-1.6698,-1.6698,-1.6698,-1.5925,-1.6008,-1.6862,-1.6739,-1.6698,0.0,0.0,0.0,0.0,0.0,0.0,0.0688,0.0,-0.0215,0.0,0.0,0.0,0.0,0.0,0.0,0.0,0.0,0.0,0.0,0.0,0.0,0.0,0.0,0.0,0.0,0.0,0.0,-0.447,-0.4527,-0.4669,-0.4855,-0.4993,-0.5098,-0.5183,-0.5186,-0.5416,-0.5911,-0.5944,-0.6302,-0.701,-0.7212,-0.7537,-0.7988,-0.8221,-0.847,-0.8703,-0.9046,-0.9198,-0.9198,-0.9198,-0.942,-0.9717,-0.9717,-1.0349,-1.131,-1.1429,-1.1561,-1.1718,-1.2168,-1.2312,-1.2355,-1.262,-1.2705,-1.2705,-1.2833,-1.2881,-1.2918,-1.3137,-1.3228,-1.3264,-1.3355,-1.3307,-1.327,-1.3355,-1.3179,-1.3052,-1.3179,-1.3094,-1.3009,-1.3009,-1.3294,-1.3747,-1.4378,-1.5316,-1.6044,-1.6134,-1.6175,-1.6175,-1.6224,-1.6396,-1.6486,-1.6396,-1.6396,-1.6355,-1.6198,-1.6314,-1.6404,-1.6419,-1.6131,-1.5718,-1.5193,-1.5193,-1.5193,-1.5193,-1.5193,-1.5193,-1.5193,-1.4824,-1.4824,-1.5193,-1.5193,-1.5193,0.133,0.0,0.0,0.0,0.0,0.0,0.0,0.0,0.0,0.0,0.0,0.0,0.0,0.0,0.0,0.0,0.0,0.0,0.0,0.0,0.0,0.0,0.0,0.0,0.0,0.0,0.0,-0.3311,0.0,-0.3471,-0.3784,-0.3953,-0.4094,-0.4246,-0.4284,-0.4528,-0.5017,-0.5017,-0.5423,-0.6161,-0.6277,-0.6618,-0.7126,-0.7371,-0.7651,-0.7936,-0.8246,-0.836,-0.836,-0.836,-0.8513,-0.8665,-0.8475,-0.9226,-1.0455,-1.0648,-1.0721,-1.0789,-1.1283,-1.1709,-1.211,-1.2553,-1.2705,-1.2705,-1.2705,-1.2705,-1.2747,-1.2924,-1.3009,-1.3009,-1.3179,-1.3094,-1.3009,-1.3179,-1.296,-1.2747,-1.2966,-1.2839,-1.2705,-1.2705,-1.2705,-1.2747,-1.2966,-1.4154,-1.5101,-1.5184,-1.5233,-1.5233,-1.5365,-1.5489,-1.5572,-1.5489,-1.5489,-1.5413,-1.5213,-1.5413,-1.5587,-1.5643,-1.5276,-1.4741,-1.4039,-1.4046,-1.4088,-1.4088,-1.4088,-1.4088,-1.4088,-1.4088,-1.4088,-1.4088,-1.4088,-1.4088,0.0,0.0,0.0,0.1893,0.0,0.0,0.0,0.0,0.102,0.0,0.0,0.0,0.0,0.0,0.0,0.0,0.0,0.0,0.0,0.0,0.0,0.0,0.0,0.0,0.0,0.0,-0.2405,0.0,-0.2768,-0.2947,-0.3491,-0.3773,-0.3956,-0.4092,-0.4238,-0.43,-0.4334,-0.4334,-0.4425,-0.4573,-0.4789,-0.4995,-0.5199,-0.5654,-0.5919,-0.6054,-0.7096,-0.7522,-0.7522,-0.7522,-0.7978,-0.8627,-0.7825,-0.8055,-0.878,-0.8784,-0.8789,-0.8846,-0.9252,-1.0247,-1.1488,-1.24,-1.2705,-1.2705,-1.2705,-1.2705,-1.2705,-1.2705,-1.2705,-1.2705,-1.2705,-1.2705,-1.2705,-1.2705,-1.2705,-1.2705,-1.2705,-1.2705,-1.2705,-1.2705,-1.2705,-1.2705,-1.2705,-1.2741,-1.2869,-1.3137,-1.3179,-1.3088,-1.2869,-1.3215,-1.3434,-1.3222,-1.3222,-1.3179,-1.3179,-1.3392,-1.3561,-1.3779,-1.3997,-1.3997,-1.3737,-1.3955,-1.4088,-1.4088,-1.4088,-1.4088,-1.4088,-1.4088,-1.4088,-1.4088,-1.4088,-1.4088,0.0,0.0,0.1223,0.1464,0.0,0.0,0.0,0.0,0.0,0.0,0.0,0.0,0.0,0.0,0.0,0.0,0.0,0.0,0.0,0.0,0.0,0.0,0.0,0.0,0.0,0.0,0.0,0.0,-0.2537,0.0,-0.3215,-0.3453,-0.3689,-0.3953,-0.4071,-0.4164,-0.43,-0.43,-0.4319,-0.4357,-0.4539,-0.4771,-0.5048,-0.5238,-0.5538,-0.5902,-0.6286,-0.656,-0.6721,-0.6721,-0.6872,-0.7099,-0.6795,-0.6872,-0.7253,-0.8322,-0.8703,-0.876,-0.9162,-0.9782,-1.0448,-1.0745,-1.0832,-1.0832,-1.0832,-1.1273,-1.1752,-1.1752,-1.2229,-1.2705,-1.2705,-1.2705,-1.2705,-1.2705,-1.2705,-1.2705,-1.2705,-1.2705,-1.2705,-1.2705,-1.2705,-1.2705,-1.2705,-1.2705,-1.2747,-1.2833,-1.2839,-1.2881,-1.2966,-1.3094,-1.3179,-1.31,-1.3094,-1.3094,-1.3094,-1.3264,-1.344,-1.3483,-1.361,-1.3652,-1.3695,-1.3779,-1.3913,-1.4088,-1.4088,-1.4088,-1.4088,-1.4088,-1.4088,-1.4088,-1.4088,-1.4088,0.1149,0.1115,0.0,0.1366,0.1377,0.0,0.1637,0.0,0.1504,0.0,0.0,0.0,0.0,0.0,0.0,0.0,0.0,0.0,0.0,0.0,0.0,0.0,0.0,0.0,0.0,0.0,-0.1685,-0.2224,-0.2305,0.0,0.0,-0.3221,-0.3449,-0.3704,-0.3851,-0.4028,-0.4197,-0.4197,-0.4233,-0.4303,-0.4451,-0.4642,-0.4915,-0.5032,-0.531,-0.5709,-0.5747,-0.5944,-0.6141,-0.6141,-0.6219,-0.63,-0.63,-0.63,-0.6416,-0.7446,-0.791,-0.8054,-0.8653,-0.9121,-0.9449,-0.9792,-0.9879,-0.9879,-0.9879,-1.0318,-1.0885,-1.1192,-1.1757,-1.2272,-1.2613,-1.2705,-1.2705,-1.2705,-1.2705,-1.2705,-1.2705,-1.2705,-1.2705,-1.2705,-1.2705,-1.2705,-1.2705,-1.2705,-1.2705,-1.2705,-1.2705,-1.2747,-1.2924,-1.2966,-1.2966,-1.2966,-1.2966,-1.3009,-1.3094,-1.3222,-1.3313,-1.3313,-1.3349,-1.344,-1.3476,-1.3568,-1.3695,-1.3955,-1.3955,-1.3997,-1.4088,-1.4088,-1.4088,-1.4088,-1.4088,-1.4088]}]]